<?xml version="1.0" encoding="UTF-8" standalone="no" ?>
<gpx xmlns="http://www.topografix.com/GPX/1/1" xmlns:xsi="http://www.w3.org/2001/XMLSchema-instance" xsi:schemaLocation="http://www.topografix.com/GPX/1/1 http://www.topografix.com/GPX/1/1/gpx.xsd" version="1.1" creator="VisuGPX - https://www.visugpx.com">
  <metadata>
    <name>Rando VTT Col de la pousterle</name>
    <desc><![CDATA[départ des Vigneaux pour une boucle de 24 Km  à fort dénivelé au départ.]]></desc>
  </metadata>
  <trk>
    <name><![CDATA[47]]></name>
    <trkseg>
      <trkpt lat="44.82205" lon="6.5344">
        <ele>1105</ele>
        <time>2010-07-28T09:04:29Z</time>
      </trkpt>
      <trkpt lat="44.82207" lon="6.53434">
        <ele>1105</ele>
        <time>2010-07-28T09:04:31Z</time>
      </trkpt>
      <trkpt lat="44.82216" lon="6.53421">
        <ele>1102</ele>
        <time>2010-07-28T09:04:36Z</time>
      </trkpt>
      <trkpt lat="44.82223" lon="6.53408">
        <ele>1105</ele>
        <time>2010-07-28T09:04:41Z</time>
      </trkpt>
      <trkpt lat="44.82228" lon="6.53397">
        <ele>1105</ele>
        <time>2010-07-28T09:04:45Z</time>
      </trkpt>
      <trkpt lat="44.82238" lon="6.53376">
        <ele>1106</ele>
        <time>2010-07-28T09:04:53Z</time>
      </trkpt>
      <trkpt lat="44.8225" lon="6.53349">
        <ele>1093</ele>
        <time>2010-07-28T09:05:03Z</time>
      </trkpt>
      <trkpt lat="44.82259" lon="6.5333">
        <ele>1095</ele>
        <time>2010-07-28T09:05:11Z</time>
      </trkpt>
      <trkpt lat="44.82265" lon="6.53313">
        <ele>1097</ele>
        <time>2010-07-28T09:05:18Z</time>
      </trkpt>
      <trkpt lat="44.82272" lon="6.53297">
        <ele>1098</ele>
        <time>2010-07-28T09:05:25Z</time>
      </trkpt>
      <trkpt lat="44.82281" lon="6.53282">
        <ele>1098</ele>
        <time>2010-07-28T09:05:32Z</time>
      </trkpt>
      <trkpt lat="44.82292" lon="6.53263">
        <ele>1098</ele>
        <time>2010-07-28T09:05:41Z</time>
      </trkpt>
      <trkpt lat="44.823" lon="6.5325">
        <ele>1102</ele>
        <time>2010-07-28T09:05:47Z</time>
      </trkpt>
      <trkpt lat="44.82314" lon="6.53228">
        <ele>1101</ele>
        <time>2010-07-28T09:05:57Z</time>
      </trkpt>
      <trkpt lat="44.82321" lon="6.53213">
        <ele>1102</ele>
        <time>2010-07-28T09:06:04Z</time>
      </trkpt>
      <trkpt lat="44.82329" lon="6.53196">
        <ele>1103</ele>
        <time>2010-07-28T09:06:12Z</time>
      </trkpt>
      <trkpt lat="44.82333" lon="6.53174">
        <ele>1097</ele>
        <time>2010-07-28T09:06:20Z</time>
      </trkpt>
      <trkpt lat="44.8234" lon="6.53145">
        <ele>1097</ele>
        <time>2010-07-28T09:06:30Z</time>
      </trkpt>
      <trkpt lat="44.82351" lon="6.5312">
        <ele>1098</ele>
        <time>2010-07-28T09:06:40Z</time>
      </trkpt>
      <trkpt lat="44.82358" lon="6.53092">
        <ele>1100</ele>
        <time>2010-07-28T09:06:50Z</time>
      </trkpt>
      <trkpt lat="44.82356" lon="6.53071">
        <ele>1103</ele>
        <time>2010-07-28T09:06:57Z</time>
      </trkpt>
      <trkpt lat="44.82352" lon="6.53046">
        <ele>1103</ele>
        <time>2010-07-28T09:07:05Z</time>
      </trkpt>
      <trkpt lat="44.82347" lon="6.53025">
        <ele>1106</ele>
        <time>2010-07-28T09:07:12Z</time>
      </trkpt>
      <trkpt lat="44.82342" lon="6.52999">
        <ele>1114</ele>
        <time>2010-07-28T09:07:21Z</time>
      </trkpt>
      <trkpt lat="44.82337" lon="6.52978">
        <ele>1111</ele>
        <time>2010-07-28T09:07:29Z</time>
      </trkpt>
      <trkpt lat="44.82332" lon="6.52961">
        <ele>1126</ele>
        <time>2010-07-28T09:07:35Z</time>
      </trkpt>
      <trkpt lat="44.82328" lon="6.52948">
        <ele>1126</ele>
        <time>2010-07-28T09:07:41Z</time>
      </trkpt>
      <trkpt lat="44.8233" lon="6.52936">
        <ele>1126</ele>
        <time>2010-07-28T09:07:47Z</time>
      </trkpt>
      <trkpt lat="44.82336" lon="6.52915">
        <ele>1120</ele>
        <time>2010-07-28T09:07:56Z</time>
      </trkpt>
      <trkpt lat="44.82335" lon="6.52898">
        <ele>1115</ele>
        <time>2010-07-28T09:08:02Z</time>
      </trkpt>
      <trkpt lat="44.82337" lon="6.52889">
        <ele>1113</ele>
        <time>2010-07-28T09:08:08Z</time>
      </trkpt>
      <trkpt lat="44.82334" lon="6.52885">
        <ele>1113</ele>
        <time>2010-07-28T09:08:23Z</time>
      </trkpt>
      <trkpt lat="44.82333" lon="6.52883">
        <ele>1128</ele>
        <time>2010-07-28T09:08:28Z</time>
      </trkpt>
      <trkpt lat="44.82332" lon="6.52882">
        <ele>1128</ele>
        <time>2010-07-28T09:08:31Z</time>
      </trkpt>
      <trkpt lat="44.8233" lon="6.52883">
        <ele>1128</ele>
        <time>2010-07-28T09:08:41Z</time>
      </trkpt>
      <trkpt lat="44.82329" lon="6.52883">
        <ele>1128</ele>
        <time>2010-07-28T09:08:45Z</time>
      </trkpt>
      <trkpt lat="44.82323" lon="6.52878">
        <ele>1129</ele>
        <time>2010-07-28T09:08:50Z</time>
      </trkpt>
      <trkpt lat="44.82321" lon="6.52871">
        <ele>1129</ele>
        <time>2010-07-28T09:08:53Z</time>
      </trkpt>
      <trkpt lat="44.82315" lon="6.52859">
        <ele>1129</ele>
        <time>2010-07-28T09:08:59Z</time>
      </trkpt>
      <trkpt lat="44.82306" lon="6.52839">
        <ele>1130</ele>
        <time>2010-07-28T09:09:08Z</time>
      </trkpt>
      <trkpt lat="44.82304" lon="6.52826">
        <ele>1134</ele>
        <time>2010-07-28T09:09:14Z</time>
      </trkpt>
      <trkpt lat="44.82305" lon="6.52814">
        <ele>1135</ele>
        <time>2010-07-28T09:09:20Z</time>
      </trkpt>
      <trkpt lat="44.82303" lon="6.52797">
        <ele>1137</ele>
        <time>2010-07-28T09:09:28Z</time>
      </trkpt>
      <trkpt lat="44.82302" lon="6.52783">
        <ele>1137</ele>
        <time>2010-07-28T09:09:35Z</time>
      </trkpt>
      <trkpt lat="44.823" lon="6.52767">
        <ele>1138</ele>
        <time>2010-07-28T09:09:42Z</time>
      </trkpt>
      <trkpt lat="44.823" lon="6.52748">
        <ele>1145</ele>
        <time>2010-07-28T09:09:50Z</time>
      </trkpt>
      <trkpt lat="44.823" lon="6.52731">
        <ele>1146</ele>
        <time>2010-07-28T09:09:57Z</time>
      </trkpt>
      <trkpt lat="44.823" lon="6.5272">
        <ele>1147</ele>
        <time>2010-07-28T09:10:02Z</time>
      </trkpt>
      <trkpt lat="44.82303" lon="6.527">
        <ele>1147</ele>
        <time>2010-07-28T09:10:10Z</time>
      </trkpt>
      <trkpt lat="44.82307" lon="6.52675">
        <ele>1146</ele>
        <time>2010-07-28T09:10:20Z</time>
      </trkpt>
      <trkpt lat="44.82311" lon="6.52659">
        <ele>1150</ele>
        <time>2010-07-28T09:10:27Z</time>
      </trkpt>
      <trkpt lat="44.82315" lon="6.52645">
        <ele>1151</ele>
        <time>2010-07-28T09:10:33Z</time>
      </trkpt>
      <trkpt lat="44.82317" lon="6.52624">
        <ele>1153</ele>
        <time>2010-07-28T09:10:42Z</time>
      </trkpt>
      <trkpt lat="44.82321" lon="6.52603">
        <ele>1152</ele>
        <time>2010-07-28T09:10:50Z</time>
      </trkpt>
      <trkpt lat="44.82322" lon="6.52581">
        <ele>1152</ele>
        <time>2010-07-28T09:10:58Z</time>
      </trkpt>
      <trkpt lat="44.82323" lon="6.52578">
        <ele>1152</ele>
        <time>2010-07-28T09:10:59Z</time>
      </trkpt>
      <trkpt lat="44.82325" lon="6.52555">
        <ele>1158</ele>
        <time>2010-07-28T09:11:08Z</time>
      </trkpt>
      <trkpt lat="44.82324" lon="6.52552">
        <ele>1159</ele>
        <time>2010-07-28T09:11:09Z</time>
      </trkpt>
      <trkpt lat="44.82324" lon="6.52547">
        <ele>1159</ele>
        <time>2010-07-28T09:11:12Z</time>
      </trkpt>
      <trkpt lat="44.82326" lon="6.52536">
        <ele>1160</ele>
        <time>2010-07-28T09:11:18Z</time>
      </trkpt>
      <trkpt lat="44.82324" lon="6.52522">
        <ele>1159</ele>
        <time>2010-07-28T09:11:25Z</time>
      </trkpt>
      <trkpt lat="44.82323" lon="6.52508">
        <ele>1157</ele>
        <time>2010-07-28T09:11:32Z</time>
      </trkpt>
      <trkpt lat="44.82323" lon="6.52505">
        <ele>1156</ele>
        <time>2010-07-28T09:11:33Z</time>
      </trkpt>
      <trkpt lat="44.8232" lon="6.52486">
        <ele>1162</ele>
        <time>2010-07-28T09:11:41Z</time>
      </trkpt>
      <trkpt lat="44.82317" lon="6.52475">
        <ele>1165</ele>
        <time>2010-07-28T09:11:46Z</time>
      </trkpt>
      <trkpt lat="44.82318" lon="6.52455">
        <ele>1167</ele>
        <time>2010-07-28T09:11:53Z</time>
      </trkpt>
      <trkpt lat="44.8232" lon="6.52436">
        <ele>1166</ele>
        <time>2010-07-28T09:12:00Z</time>
      </trkpt>
      <trkpt lat="44.82322" lon="6.52421">
        <ele>1163</ele>
        <time>2010-07-28T09:12:06Z</time>
      </trkpt>
      <trkpt lat="44.82324" lon="6.52402">
        <ele>1166</ele>
        <time>2010-07-28T09:12:13Z</time>
      </trkpt>
      <trkpt lat="44.82325" lon="6.52385">
        <ele>1168</ele>
        <time>2010-07-28T09:12:20Z</time>
      </trkpt>
      <trkpt lat="44.82323" lon="6.52365">
        <ele>1169</ele>
        <time>2010-07-28T09:12:28Z</time>
      </trkpt>
      <trkpt lat="44.82319" lon="6.52339">
        <ele>1165</ele>
        <time>2010-07-28T09:12:39Z</time>
      </trkpt>
      <trkpt lat="44.82314" lon="6.5232">
        <ele>1166</ele>
        <time>2010-07-28T09:12:46Z</time>
      </trkpt>
      <trkpt lat="44.82309" lon="6.52303">
        <ele>1167</ele>
        <time>2010-07-28T09:12:53Z</time>
      </trkpt>
      <trkpt lat="44.82302" lon="6.52291">
        <ele>1168</ele>
        <time>2010-07-28T09:13:00Z</time>
      </trkpt>
      <trkpt lat="44.82282" lon="6.52274">
        <ele>1172</ele>
        <time>2010-07-28T09:13:11Z</time>
      </trkpt>
      <trkpt lat="44.82275" lon="6.52266">
        <ele>1174</ele>
        <time>2010-07-28T09:13:18Z</time>
      </trkpt>
      <trkpt lat="44.82269" lon="6.5226">
        <ele>1177</ele>
        <time>2010-07-28T09:13:25Z</time>
      </trkpt>
      <trkpt lat="44.82261" lon="6.52248">
        <ele>1178</ele>
        <time>2010-07-28T09:13:32Z</time>
      </trkpt>
      <trkpt lat="44.82259" lon="6.52237">
        <ele>1176</ele>
        <time>2010-07-28T09:13:38Z</time>
      </trkpt>
      <trkpt lat="44.82257" lon="6.52234">
        <ele>1176</ele>
        <time>2010-07-28T09:13:40Z</time>
      </trkpt>
      <trkpt lat="44.82253" lon="6.52229">
        <ele>1175</ele>
        <time>2010-07-28T09:13:46Z</time>
      </trkpt>
      <trkpt lat="44.82256" lon="6.52225">
        <ele>1173</ele>
        <time>2010-07-28T09:13:53Z</time>
      </trkpt>
      <trkpt lat="44.82257" lon="6.52222">
        <ele>1173</ele>
        <time>2010-07-28T09:13:57Z</time>
      </trkpt>
      <trkpt lat="44.82255" lon="6.52222">
        <ele>1173</ele>
        <time>2010-07-28T09:14:05Z</time>
      </trkpt>
      <trkpt lat="44.82251" lon="6.52229">
        <ele>1175</ele>
        <time>2010-07-28T09:14:10Z</time>
      </trkpt>
      <trkpt lat="44.82249" lon="6.52238">
        <ele>1192</ele>
        <time>2010-07-28T09:14:15Z</time>
      </trkpt>
      <trkpt lat="44.82246" lon="6.52242">
        <ele>1191</ele>
        <time>2010-07-28T09:14:18Z</time>
      </trkpt>
      <trkpt lat="44.82246" lon="6.52244">
        <ele>1190</ele>
        <time>2010-07-28T09:14:24Z</time>
      </trkpt>
      <trkpt lat="44.82248" lon="6.5223">
        <ele>1194</ele>
        <time>2010-07-28T09:14:29Z</time>
      </trkpt>
      <trkpt lat="44.82249" lon="6.5221">
        <ele>1196</ele>
        <time>2010-07-28T09:14:33Z</time>
      </trkpt>
      <trkpt lat="44.82247" lon="6.52194">
        <ele>1194</ele>
        <time>2010-07-28T09:14:39Z</time>
      </trkpt>
      <trkpt lat="44.82245" lon="6.52182">
        <ele>1191</ele>
        <time>2010-07-28T09:14:45Z</time>
      </trkpt>
      <trkpt lat="44.82241" lon="6.5217">
        <ele>1188</ele>
        <time>2010-07-28T09:14:50Z</time>
      </trkpt>
      <trkpt lat="44.82238" lon="6.52163">
        <ele>1188</ele>
        <time>2010-07-28T09:14:53Z</time>
      </trkpt>
      <trkpt lat="44.82232" lon="6.52152">
        <ele>1191</ele>
        <time>2010-07-28T09:14:58Z</time>
      </trkpt>
      <trkpt lat="44.82228" lon="6.52141">
        <ele>1193</ele>
        <time>2010-07-28T09:15:03Z</time>
      </trkpt>
      <trkpt lat="44.82226" lon="6.52138">
        <ele>1193</ele>
        <time>2010-07-28T09:15:04Z</time>
      </trkpt>
      <trkpt lat="44.82218" lon="6.52125">
        <ele>1195</ele>
        <time>2010-07-28T09:15:10Z</time>
      </trkpt>
      <trkpt lat="44.82211" lon="6.52106">
        <ele>1196</ele>
        <time>2010-07-28T09:15:17Z</time>
      </trkpt>
      <trkpt lat="44.82205" lon="6.52089">
        <ele>1197</ele>
        <time>2010-07-28T09:15:23Z</time>
      </trkpt>
      <trkpt lat="44.82204" lon="6.52069">
        <ele>1194</ele>
        <time>2010-07-28T09:15:30Z</time>
      </trkpt>
      <trkpt lat="44.82204" lon="6.52064">
        <ele>1194</ele>
        <time>2010-07-28T09:15:32Z</time>
      </trkpt>
      <trkpt lat="44.82198" lon="6.52053">
        <ele>1195</ele>
        <time>2010-07-28T09:15:38Z</time>
      </trkpt>
      <trkpt lat="44.82196" lon="6.52057">
        <ele>1195</ele>
        <time>2010-07-28T09:15:41Z</time>
      </trkpt>
      <trkpt lat="44.82199" lon="6.52067">
        <ele>1195</ele>
        <time>2010-07-28T09:15:46Z</time>
      </trkpt>
      <trkpt lat="44.82203" lon="6.52077">
        <ele>1195</ele>
        <time>2010-07-28T09:15:51Z</time>
      </trkpt>
      <trkpt lat="44.82206" lon="6.52082">
        <ele>1194</ele>
        <time>2010-07-28T09:15:54Z</time>
      </trkpt>
      <trkpt lat="44.82207" lon="6.52105">
        <ele>1196</ele>
        <time>2010-07-28T09:16:02Z</time>
      </trkpt>
      <trkpt lat="44.82207" lon="6.52114">
        <ele>1197</ele>
        <time>2010-07-28T09:16:06Z</time>
      </trkpt>
      <trkpt lat="44.82206" lon="6.52133">
        <ele>1198</ele>
        <time>2010-07-28T09:16:13Z</time>
      </trkpt>
      <trkpt lat="44.82205" lon="6.52138">
        <ele>1198</ele>
        <time>2010-07-28T09:16:15Z</time>
      </trkpt>
      <trkpt lat="44.82203" lon="6.52154">
        <ele>1200</ele>
        <time>2010-07-28T09:16:21Z</time>
      </trkpt>
      <trkpt lat="44.82205" lon="6.5217">
        <ele>1203</ele>
        <time>2010-07-28T09:16:27Z</time>
      </trkpt>
      <trkpt lat="44.82206" lon="6.52188">
        <ele>1203</ele>
        <time>2010-07-28T09:16:33Z</time>
      </trkpt>
      <trkpt lat="44.82207" lon="6.52203">
        <ele>1203</ele>
        <time>2010-07-28T09:16:39Z</time>
      </trkpt>
      <trkpt lat="44.82207" lon="6.52219">
        <ele>1203</ele>
        <time>2010-07-28T09:16:45Z</time>
      </trkpt>
      <trkpt lat="44.82206" lon="6.52236">
        <ele>1204</ele>
        <time>2010-07-28T09:16:51Z</time>
      </trkpt>
      <trkpt lat="44.82201" lon="6.52255">
        <ele>1208</ele>
        <time>2010-07-28T09:16:57Z</time>
      </trkpt>
      <trkpt lat="44.822" lon="6.52269">
        <ele>1208</ele>
        <time>2010-07-28T09:17:03Z</time>
      </trkpt>
      <trkpt lat="44.82201" lon="6.52279">
        <ele>1208</ele>
        <time>2010-07-28T09:17:07Z</time>
      </trkpt>
      <trkpt lat="44.822" lon="6.52289">
        <ele>1208</ele>
        <time>2010-07-28T09:17:11Z</time>
      </trkpt>
      <trkpt lat="44.82198" lon="6.52308">
        <ele>1209</ele>
        <time>2010-07-28T09:17:19Z</time>
      </trkpt>
      <trkpt lat="44.82198" lon="6.52316">
        <ele>1209</ele>
        <time>2010-07-28T09:17:22Z</time>
      </trkpt>
      <trkpt lat="44.82194" lon="6.52332">
        <ele>1211</ele>
        <time>2010-07-28T09:17:28Z</time>
      </trkpt>
      <trkpt lat="44.82192" lon="6.52345">
        <ele>1212</ele>
        <time>2010-07-28T09:17:33Z</time>
      </trkpt>
      <trkpt lat="44.82191" lon="6.52356">
        <ele>1211</ele>
        <time>2010-07-28T09:17:39Z</time>
      </trkpt>
      <trkpt lat="44.82187" lon="6.52368">
        <ele>1211</ele>
        <time>2010-07-28T09:17:44Z</time>
      </trkpt>
      <trkpt lat="44.82186" lon="6.52373">
        <ele>1211</ele>
        <time>2010-07-28T09:17:46Z</time>
      </trkpt>
      <trkpt lat="44.8218" lon="6.52385">
        <ele>1212</ele>
        <time>2010-07-28T09:17:51Z</time>
      </trkpt>
      <trkpt lat="44.82174" lon="6.52397">
        <ele>1214</ele>
        <time>2010-07-28T09:17:56Z</time>
      </trkpt>
      <trkpt lat="44.82164" lon="6.52413">
        <ele>1223</ele>
        <time>2010-07-28T09:18:03Z</time>
      </trkpt>
      <trkpt lat="44.82158" lon="6.52429">
        <ele>1224</ele>
        <time>2010-07-28T09:18:09Z</time>
      </trkpt>
      <trkpt lat="44.82152" lon="6.52452">
        <ele>1226</ele>
        <time>2010-07-28T09:18:16Z</time>
      </trkpt>
      <trkpt lat="44.82144" lon="6.52482">
        <ele>1226</ele>
        <time>2010-07-28T09:18:24Z</time>
      </trkpt>
      <trkpt lat="44.82139" lon="6.52502">
        <ele>1226</ele>
        <time>2010-07-28T09:18:31Z</time>
      </trkpt>
      <trkpt lat="44.82136" lon="6.52523">
        <ele>1226</ele>
        <time>2010-07-28T09:18:39Z</time>
      </trkpt>
      <trkpt lat="44.82129" lon="6.52531">
        <ele>1227</ele>
        <time>2010-07-28T09:18:46Z</time>
      </trkpt>
      <trkpt lat="44.82129" lon="6.52534">
        <ele>1227</ele>
        <time>2010-07-28T09:18:51Z</time>
      </trkpt>
      <trkpt lat="44.82131" lon="6.52536">
        <ele>1227</ele>
        <time>2010-07-28T09:18:57Z</time>
      </trkpt>
      <trkpt lat="44.82131" lon="6.52538">
        <ele>1227</ele>
        <time>2010-07-28T09:19:03Z</time>
      </trkpt>
      <trkpt lat="44.82132" lon="6.5254">
        <ele>1227</ele>
        <time>2010-07-28T09:19:08Z</time>
      </trkpt>
      <trkpt lat="44.82126" lon="6.52542">
        <ele>1227</ele>
        <time>2010-07-28T09:19:20Z</time>
      </trkpt>
      <trkpt lat="44.82116" lon="6.52544">
        <ele>1228</ele>
        <time>2010-07-28T09:19:28Z</time>
      </trkpt>
      <trkpt lat="44.82111" lon="6.52548">
        <ele>1228</ele>
        <time>2010-07-28T09:19:32Z</time>
      </trkpt>
      <trkpt lat="44.82105" lon="6.52559">
        <ele>1228</ele>
        <time>2010-07-28T09:19:39Z</time>
      </trkpt>
      <trkpt lat="44.82093" lon="6.52568">
        <ele>1229</ele>
        <time>2010-07-28T09:19:48Z</time>
      </trkpt>
      <trkpt lat="44.82079" lon="6.5258">
        <ele>1233</ele>
        <time>2010-07-28T09:19:57Z</time>
      </trkpt>
      <trkpt lat="44.82063" lon="6.52594">
        <ele>1234</ele>
        <time>2010-07-28T09:20:07Z</time>
      </trkpt>
      <trkpt lat="44.82052" lon="6.52599">
        <ele>1235</ele>
        <time>2010-07-28T09:20:14Z</time>
      </trkpt>
      <trkpt lat="44.82037" lon="6.52605">
        <ele>1236</ele>
        <time>2010-07-28T09:20:24Z</time>
      </trkpt>
      <trkpt lat="44.82024" lon="6.52608">
        <ele>1236</ele>
        <time>2010-07-28T09:20:32Z</time>
      </trkpt>
      <trkpt lat="44.82006" lon="6.52616">
        <ele>1237</ele>
        <time>2010-07-28T09:20:42Z</time>
      </trkpt>
      <trkpt lat="44.8199" lon="6.52631">
        <ele>1249</ele>
        <time>2010-07-28T09:20:53Z</time>
      </trkpt>
      <trkpt lat="44.81982" lon="6.52643">
        <ele>1249</ele>
        <time>2010-07-28T09:21:00Z</time>
      </trkpt>
      <trkpt lat="44.81981" lon="6.52645">
        <ele>1249</ele>
        <time>2010-07-28T09:21:01Z</time>
      </trkpt>
      <trkpt lat="44.81975" lon="6.52649">
        <ele>1250</ele>
        <time>2010-07-28T09:21:05Z</time>
      </trkpt>
      <trkpt lat="44.81962" lon="6.52659">
        <ele>1253</ele>
        <time>2010-07-28T09:21:15Z</time>
      </trkpt>
      <trkpt lat="44.81954" lon="6.52663">
        <ele>1255</ele>
        <time>2010-07-28T09:21:22Z</time>
      </trkpt>
      <trkpt lat="44.81945" lon="6.52666">
        <ele>1257</ele>
        <time>2010-07-28T09:21:29Z</time>
      </trkpt>
      <trkpt lat="44.8194" lon="6.52666">
        <ele>1259</ele>
        <time>2010-07-28T09:21:35Z</time>
      </trkpt>
      <trkpt lat="44.81938" lon="6.52665">
        <ele>1259</ele>
        <time>2010-07-28T09:21:37Z</time>
      </trkpt>
      <trkpt lat="44.8193" lon="6.52664">
        <ele>1262</ele>
        <time>2010-07-28T09:21:42Z</time>
      </trkpt>
      <trkpt lat="44.81925" lon="6.5266">
        <ele>1263</ele>
        <time>2010-07-28T09:21:46Z</time>
      </trkpt>
      <trkpt lat="44.81922" lon="6.52658">
        <ele>1263</ele>
        <time>2010-07-28T09:21:50Z</time>
      </trkpt>
      <trkpt lat="44.81923" lon="6.52644">
        <ele>1260</ele>
        <time>2010-07-28T09:21:58Z</time>
      </trkpt>
      <trkpt lat="44.81924" lon="6.52633">
        <ele>1260</ele>
        <time>2010-07-28T09:22:04Z</time>
      </trkpt>
      <trkpt lat="44.81925" lon="6.52631">
        <ele>1259</ele>
        <time>2010-07-28T09:22:05Z</time>
      </trkpt>
      <trkpt lat="44.81926" lon="6.52619">
        <ele>1260</ele>
        <time>2010-07-28T09:22:10Z</time>
      </trkpt>
      <trkpt lat="44.81928" lon="6.52606">
        <ele>1261</ele>
        <time>2010-07-28T09:22:16Z</time>
      </trkpt>
      <trkpt lat="44.81932" lon="6.52595">
        <ele>1263</ele>
        <time>2010-07-28T09:22:21Z</time>
      </trkpt>
      <trkpt lat="44.81933" lon="6.52588">
        <ele>1263</ele>
        <time>2010-07-28T09:22:25Z</time>
      </trkpt>
      <trkpt lat="44.81937" lon="6.52579">
        <ele>1265</ele>
        <time>2010-07-28T09:22:31Z</time>
      </trkpt>
      <trkpt lat="44.81942" lon="6.52573">
        <ele>1264</ele>
        <time>2010-07-28T09:22:37Z</time>
      </trkpt>
      <trkpt lat="44.81944" lon="6.52571">
        <ele>1263</ele>
        <time>2010-07-28T09:22:38Z</time>
      </trkpt>
      <trkpt lat="44.81948" lon="6.52563">
        <ele>1262</ele>
        <time>2010-07-28T09:22:44Z</time>
      </trkpt>
      <trkpt lat="44.81956" lon="6.52545">
        <ele>1261</ele>
        <time>2010-07-28T09:22:53Z</time>
      </trkpt>
      <trkpt lat="44.81961" lon="6.52535">
        <ele>1261</ele>
        <time>2010-07-28T09:22:58Z</time>
      </trkpt>
      <trkpt lat="44.81967" lon="6.52517">
        <ele>1261</ele>
        <time>2010-07-28T09:23:06Z</time>
      </trkpt>
      <trkpt lat="44.81969" lon="6.525">
        <ele>1264</ele>
        <time>2010-07-28T09:23:14Z</time>
      </trkpt>
      <trkpt lat="44.81969" lon="6.52498">
        <ele>1264</ele>
        <time>2010-07-28T09:23:15Z</time>
      </trkpt>
      <trkpt lat="44.81968" lon="6.52481">
        <ele>1265</ele>
        <time>2010-07-28T09:23:23Z</time>
      </trkpt>
      <trkpt lat="44.81968" lon="6.52474">
        <ele>1266</ele>
        <time>2010-07-28T09:23:26Z</time>
      </trkpt>
      <trkpt lat="44.81966" lon="6.52467">
        <ele>1266</ele>
        <time>2010-07-28T09:23:33Z</time>
      </trkpt>
      <trkpt lat="44.81969" lon="6.52456">
        <ele>1266</ele>
        <time>2010-07-28T09:23:47Z</time>
      </trkpt>
      <trkpt lat="44.81974" lon="6.52441">
        <ele>1266</ele>
        <time>2010-07-28T09:23:55Z</time>
      </trkpt>
      <trkpt lat="44.81975" lon="6.52434">
        <ele>1265</ele>
        <time>2010-07-28T09:23:59Z</time>
      </trkpt>
      <trkpt lat="44.81978" lon="6.52424">
        <ele>1264</ele>
        <time>2010-07-28T09:24:04Z</time>
      </trkpt>
      <trkpt lat="44.81982" lon="6.52412">
        <ele>1264</ele>
        <time>2010-07-28T09:24:11Z</time>
      </trkpt>
      <trkpt lat="44.81985" lon="6.52406">
        <ele>1264</ele>
        <time>2010-07-28T09:24:14Z</time>
      </trkpt>
      <trkpt lat="44.81987" lon="6.52385">
        <ele>1265</ele>
        <time>2010-07-28T09:24:23Z</time>
      </trkpt>
      <trkpt lat="44.81983" lon="6.52371">
        <ele>1265</ele>
        <time>2010-07-28T09:24:30Z</time>
      </trkpt>
      <trkpt lat="44.8198" lon="6.52359">
        <ele>1265</ele>
        <time>2010-07-28T09:24:36Z</time>
      </trkpt>
      <trkpt lat="44.81975" lon="6.52347">
        <ele>1265</ele>
        <time>2010-07-28T09:24:41Z</time>
      </trkpt>
      <trkpt lat="44.81961" lon="6.52339">
        <ele>1268</ele>
        <time>2010-07-28T09:24:49Z</time>
      </trkpt>
      <trkpt lat="44.81953" lon="6.52335">
        <ele>1269</ele>
        <time>2010-07-28T09:24:54Z</time>
      </trkpt>
      <trkpt lat="44.81944" lon="6.52336">
        <ele>1271</ele>
        <time>2010-07-28T09:25:00Z</time>
      </trkpt>
      <trkpt lat="44.81934" lon="6.52335">
        <ele>1273</ele>
        <time>2010-07-28T09:25:07Z</time>
      </trkpt>
      <trkpt lat="44.81927" lon="6.52335">
        <ele>1275</ele>
        <time>2010-07-28T09:25:13Z</time>
      </trkpt>
      <trkpt lat="44.81917" lon="6.52337">
        <ele>1277</ele>
        <time>2010-07-28T09:25:20Z</time>
      </trkpt>
      <trkpt lat="44.81909" lon="6.52338">
        <ele>1281</ele>
        <time>2010-07-28T09:25:24Z</time>
      </trkpt>
      <trkpt lat="44.81901" lon="6.52339">
        <ele>1283</ele>
        <time>2010-07-28T09:25:30Z</time>
      </trkpt>
      <trkpt lat="44.81887" lon="6.52338">
        <ele>1285</ele>
        <time>2010-07-28T09:25:39Z</time>
      </trkpt>
      <trkpt lat="44.81874" lon="6.52336">
        <ele>1287</ele>
        <time>2010-07-28T09:25:47Z</time>
      </trkpt>
      <trkpt lat="44.81866" lon="6.52333">
        <ele>1284</ele>
        <time>2010-07-28T09:25:52Z</time>
      </trkpt>
      <trkpt lat="44.81856" lon="6.52331">
        <ele>1286</ele>
        <time>2010-07-28T09:25:59Z</time>
      </trkpt>
      <trkpt lat="44.81847" lon="6.52329">
        <ele>1287</ele>
        <time>2010-07-28T09:26:05Z</time>
      </trkpt>
      <trkpt lat="44.81835" lon="6.52325">
        <ele>1289</ele>
        <time>2010-07-28T09:26:13Z</time>
      </trkpt>
      <trkpt lat="44.81823" lon="6.52316">
        <ele>1296</ele>
        <time>2010-07-28T09:26:21Z</time>
      </trkpt>
      <trkpt lat="44.81811" lon="6.5231">
        <ele>1297</ele>
        <time>2010-07-28T09:26:29Z</time>
      </trkpt>
      <trkpt lat="44.81801" lon="6.52307">
        <ele>1298</ele>
        <time>2010-07-28T09:26:35Z</time>
      </trkpt>
      <trkpt lat="44.81794" lon="6.52303">
        <ele>1299</ele>
        <time>2010-07-28T09:26:41Z</time>
      </trkpt>
      <trkpt lat="44.81786" lon="6.52297">
        <ele>1300</ele>
        <time>2010-07-28T09:26:47Z</time>
      </trkpt>
      <trkpt lat="44.81773" lon="6.52297">
        <ele>1302</ele>
        <time>2010-07-28T09:26:54Z</time>
      </trkpt>
      <trkpt lat="44.81766" lon="6.52295">
        <ele>1303</ele>
        <time>2010-07-28T09:27:00Z</time>
      </trkpt>
      <trkpt lat="44.81755" lon="6.52291">
        <ele>1303</ele>
        <time>2010-07-28T09:27:07Z</time>
      </trkpt>
      <trkpt lat="44.81749" lon="6.52292">
        <ele>1320</ele>
        <time>2010-07-28T09:27:14Z</time>
      </trkpt>
      <trkpt lat="44.81745" lon="6.52301">
        <ele>1320</ele>
        <time>2010-07-28T09:27:22Z</time>
      </trkpt>
      <trkpt lat="44.8174" lon="6.52308">
        <ele>1319</ele>
        <time>2010-07-28T09:27:27Z</time>
      </trkpt>
      <trkpt lat="44.81738" lon="6.52315">
        <ele>1318</ele>
        <time>2010-07-28T09:27:31Z</time>
      </trkpt>
      <trkpt lat="44.81737" lon="6.5233">
        <ele>1315</ele>
        <time>2010-07-28T09:27:39Z</time>
      </trkpt>
      <trkpt lat="44.81735" lon="6.52346">
        <ele>1317</ele>
        <time>2010-07-28T09:27:46Z</time>
      </trkpt>
      <trkpt lat="44.81737" lon="6.52359">
        <ele>1318</ele>
        <time>2010-07-28T09:27:52Z</time>
      </trkpt>
      <trkpt lat="44.81738" lon="6.52379">
        <ele>1320</ele>
        <time>2010-07-28T09:28:00Z</time>
      </trkpt>
      <trkpt lat="44.8174" lon="6.52393">
        <ele>1319</ele>
        <time>2010-07-28T09:28:06Z</time>
      </trkpt>
      <trkpt lat="44.81744" lon="6.5241">
        <ele>1317</ele>
        <time>2010-07-28T09:28:14Z</time>
      </trkpt>
      <trkpt lat="44.81744" lon="6.52419">
        <ele>1317</ele>
        <time>2010-07-28T09:28:19Z</time>
      </trkpt>
      <trkpt lat="44.81742" lon="6.52422">
        <ele>1319</ele>
        <time>2010-07-28T09:28:25Z</time>
      </trkpt>
      <trkpt lat="44.81738" lon="6.5242">
        <ele>1320</ele>
        <time>2010-07-28T09:28:32Z</time>
      </trkpt>
      <trkpt lat="44.81737" lon="6.52421">
        <ele>1320</ele>
        <time>2010-07-28T09:28:41Z</time>
      </trkpt>
      <trkpt lat="44.81736" lon="6.52422">
        <ele>1321</ele>
        <time>2010-07-28T09:28:47Z</time>
      </trkpt>
      <trkpt lat="44.81733" lon="6.52421">
        <ele>1321</ele>
        <time>2010-07-28T09:28:51Z</time>
      </trkpt>
      <trkpt lat="44.81729" lon="6.52419">
        <ele>1322</ele>
        <time>2010-07-28T09:28:56Z</time>
      </trkpt>
      <trkpt lat="44.81722" lon="6.52412">
        <ele>1321</ele>
        <time>2010-07-28T09:29:03Z</time>
      </trkpt>
      <trkpt lat="44.81715" lon="6.5241">
        <ele>1323</ele>
        <time>2010-07-28T09:29:09Z</time>
      </trkpt>
      <trkpt lat="44.8171" lon="6.52406">
        <ele>1324</ele>
        <time>2010-07-28T09:29:13Z</time>
      </trkpt>
      <trkpt lat="44.81702" lon="6.52396">
        <ele>1325</ele>
        <time>2010-07-28T09:29:20Z</time>
      </trkpt>
      <trkpt lat="44.81701" lon="6.52395">
        <ele>1325</ele>
        <time>2010-07-28T09:29:21Z</time>
      </trkpt>
      <trkpt lat="44.81694" lon="6.52382">
        <ele>1326</ele>
        <time>2010-07-28T09:29:29Z</time>
      </trkpt>
      <trkpt lat="44.81692" lon="6.52376">
        <ele>1326</ele>
        <time>2010-07-28T09:29:33Z</time>
      </trkpt>
      <trkpt lat="44.81687" lon="6.52366">
        <ele>1326</ele>
        <time>2010-07-28T09:29:39Z</time>
      </trkpt>
      <trkpt lat="44.81682" lon="6.52358">
        <ele>1327</ele>
        <time>2010-07-28T09:29:44Z</time>
      </trkpt>
      <trkpt lat="44.81677" lon="6.5235">
        <ele>1329</ele>
        <time>2010-07-28T09:29:50Z</time>
      </trkpt>
      <trkpt lat="44.81675" lon="6.52344">
        <ele>1330</ele>
        <time>2010-07-28T09:29:55Z</time>
      </trkpt>
      <trkpt lat="44.81672" lon="6.52331">
        <ele>1333</ele>
        <time>2010-07-28T09:30:02Z</time>
      </trkpt>
      <trkpt lat="44.81671" lon="6.52323">
        <ele>1332</ele>
        <time>2010-07-28T09:30:07Z</time>
      </trkpt>
      <trkpt lat="44.81673" lon="6.52309">
        <ele>1330</ele>
        <time>2010-07-28T09:30:14Z</time>
      </trkpt>
      <trkpt lat="44.81673" lon="6.52293">
        <ele>1331</ele>
        <time>2010-07-28T09:30:21Z</time>
      </trkpt>
      <trkpt lat="44.8167" lon="6.52285">
        <ele>1332</ele>
        <time>2010-07-28T09:30:25Z</time>
      </trkpt>
      <trkpt lat="44.81664" lon="6.52275">
        <ele>1354</ele>
        <time>2010-07-28T09:30:30Z</time>
      </trkpt>
      <trkpt lat="44.81662" lon="6.52279">
        <ele>1354</ele>
        <time>2010-07-28T09:30:33Z</time>
      </trkpt>
      <trkpt lat="44.81661" lon="6.52287">
        <ele>1354</ele>
        <time>2010-07-28T09:30:40Z</time>
      </trkpt>
      <trkpt lat="44.81658" lon="6.52295">
        <ele>1354</ele>
        <time>2010-07-28T09:30:47Z</time>
      </trkpt>
      <trkpt lat="44.81655" lon="6.52307">
        <ele>1352</ele>
        <time>2010-07-28T09:30:54Z</time>
      </trkpt>
      <trkpt lat="44.81655" lon="6.52308">
        <ele>1352</ele>
        <time>2010-07-28T09:30:55Z</time>
      </trkpt>
      <trkpt lat="44.81654" lon="6.52314">
        <ele>1350</ele>
        <time>2010-07-28T09:30:59Z</time>
      </trkpt>
      <trkpt lat="44.81655" lon="6.52326">
        <ele>1346</ele>
        <time>2010-07-28T09:31:06Z</time>
      </trkpt>
      <trkpt lat="44.81656" lon="6.52334">
        <ele>1343</ele>
        <time>2010-07-28T09:31:11Z</time>
      </trkpt>
      <trkpt lat="44.81655" lon="6.52336">
        <ele>1344</ele>
        <time>2010-07-28T09:31:12Z</time>
      </trkpt>
      <trkpt lat="44.81655" lon="6.52344">
        <ele>1346</ele>
        <time>2010-07-28T09:31:16Z</time>
      </trkpt>
      <trkpt lat="44.81654" lon="6.52356">
        <ele>1349</ele>
        <time>2010-07-28T09:31:22Z</time>
      </trkpt>
      <trkpt lat="44.8165" lon="6.52373">
        <ele>1352</ele>
        <time>2010-07-28T09:31:29Z</time>
      </trkpt>
      <trkpt lat="44.81649" lon="6.52385">
        <ele>1352</ele>
        <time>2010-07-28T09:31:34Z</time>
      </trkpt>
      <trkpt lat="44.81647" lon="6.52401">
        <ele>1351</ele>
        <time>2010-07-28T09:31:41Z</time>
      </trkpt>
      <trkpt lat="44.81642" lon="6.52418">
        <ele>1353</ele>
        <time>2010-07-28T09:31:48Z</time>
      </trkpt>
      <trkpt lat="44.8164" lon="6.52431">
        <ele>1355</ele>
        <time>2010-07-28T09:31:54Z</time>
      </trkpt>
      <trkpt lat="44.81637" lon="6.52444">
        <ele>1356</ele>
        <time>2010-07-28T09:32:00Z</time>
      </trkpt>
      <trkpt lat="44.81636" lon="6.52449">
        <ele>1357</ele>
        <time>2010-07-28T09:32:02Z</time>
      </trkpt>
      <trkpt lat="44.81633" lon="6.52469">
        <ele>1358</ele>
        <time>2010-07-28T09:32:11Z</time>
      </trkpt>
      <trkpt lat="44.81632" lon="6.52477">
        <ele>1359</ele>
        <time>2010-07-28T09:32:14Z</time>
      </trkpt>
      <trkpt lat="44.81631" lon="6.52488">
        <ele>1359</ele>
        <time>2010-07-28T09:32:19Z</time>
      </trkpt>
      <trkpt lat="44.81636" lon="6.52508">
        <ele>1360</ele>
        <time>2010-07-28T09:32:27Z</time>
      </trkpt>
      <trkpt lat="44.81638" lon="6.52523">
        <ele>1361</ele>
        <time>2010-07-28T09:32:34Z</time>
      </trkpt>
      <trkpt lat="44.81637" lon="6.52525">
        <ele>1361</ele>
        <time>2010-07-28T09:32:39Z</time>
      </trkpt>
      <trkpt lat="44.81633" lon="6.52523">
        <ele>1362</ele>
        <time>2010-07-28T09:32:45Z</time>
      </trkpt>
      <trkpt lat="44.81628" lon="6.52515">
        <ele>1363</ele>
        <time>2010-07-28T09:32:51Z</time>
      </trkpt>
      <trkpt lat="44.8162" lon="6.52509">
        <ele>1366</ele>
        <time>2010-07-28T09:32:57Z</time>
      </trkpt>
      <trkpt lat="44.81614" lon="6.52498">
        <ele>1365</ele>
        <time>2010-07-28T09:33:04Z</time>
      </trkpt>
      <trkpt lat="44.81614" lon="6.52497">
        <ele>1365</ele>
        <time>2010-07-28T09:33:05Z</time>
      </trkpt>
      <trkpt lat="44.81613" lon="6.52484">
        <ele>1364</ele>
        <time>2010-07-28T09:33:12Z</time>
      </trkpt>
      <trkpt lat="44.81612" lon="6.52476">
        <ele>1364</ele>
        <time>2010-07-28T09:33:18Z</time>
      </trkpt>
      <trkpt lat="44.81613" lon="6.52461">
        <ele>1363</ele>
        <time>2010-07-28T09:33:25Z</time>
      </trkpt>
      <trkpt lat="44.81612" lon="6.52452">
        <ele>1363</ele>
        <time>2010-07-28T09:33:30Z</time>
      </trkpt>
      <trkpt lat="44.81611" lon="6.52436">
        <ele>1365</ele>
        <time>2010-07-28T09:33:38Z</time>
      </trkpt>
      <trkpt lat="44.8161" lon="6.52421">
        <ele>1366</ele>
        <time>2010-07-28T09:33:46Z</time>
      </trkpt>
      <trkpt lat="44.81608" lon="6.52409">
        <ele>1365</ele>
        <time>2010-07-28T09:33:53Z</time>
      </trkpt>
      <trkpt lat="44.81605" lon="6.52393">
        <ele>1364</ele>
        <time>2010-07-28T09:34:00Z</time>
      </trkpt>
      <trkpt lat="44.81604" lon="6.5239">
        <ele>1364</ele>
        <time>2010-07-28T09:34:02Z</time>
      </trkpt>
      <trkpt lat="44.81601" lon="6.52378">
        <ele>1364</ele>
        <time>2010-07-28T09:34:09Z</time>
      </trkpt>
      <trkpt lat="44.81597" lon="6.52361">
        <ele>1365</ele>
        <time>2010-07-28T09:34:16Z</time>
      </trkpt>
      <trkpt lat="44.81595" lon="6.52351">
        <ele>1367</ele>
        <time>2010-07-28T09:34:21Z</time>
      </trkpt>
      <trkpt lat="44.81593" lon="6.52334">
        <ele>1371</ele>
        <time>2010-07-28T09:34:28Z</time>
      </trkpt>
      <trkpt lat="44.81592" lon="6.52316">
        <ele>1369</ele>
        <time>2010-07-28T09:34:36Z</time>
      </trkpt>
      <trkpt lat="44.81593" lon="6.52305">
        <ele>1367</ele>
        <time>2010-07-28T09:34:41Z</time>
      </trkpt>
      <trkpt lat="44.81593" lon="6.52286">
        <ele>1367</ele>
        <time>2010-07-28T09:34:49Z</time>
      </trkpt>
      <trkpt lat="44.81594" lon="6.52272">
        <ele>1369</ele>
        <time>2010-07-28T09:34:55Z</time>
      </trkpt>
      <trkpt lat="44.81596" lon="6.52253">
        <ele>1373</ele>
        <time>2010-07-28T09:35:01Z</time>
      </trkpt>
      <trkpt lat="44.81601" lon="6.52242">
        <ele>1378</ele>
        <time>2010-07-28T09:35:07Z</time>
      </trkpt>
      <trkpt lat="44.81605" lon="6.52232">
        <ele>1377</ele>
        <time>2010-07-28T09:35:14Z</time>
      </trkpt>
      <trkpt lat="44.81609" lon="6.52223">
        <ele>1377</ele>
        <time>2010-07-28T09:35:18Z</time>
      </trkpt>
      <trkpt lat="44.81613" lon="6.52207">
        <ele>1378</ele>
        <time>2010-07-28T09:35:25Z</time>
      </trkpt>
      <trkpt lat="44.81614" lon="6.52204">
        <ele>1378</ele>
        <time>2010-07-28T09:35:27Z</time>
      </trkpt>
      <trkpt lat="44.81616" lon="6.52196">
        <ele>1379</ele>
        <time>2010-07-28T09:35:31Z</time>
      </trkpt>
      <trkpt lat="44.8162" lon="6.52192">
        <ele>1379</ele>
        <time>2010-07-28T09:35:34Z</time>
      </trkpt>
      <trkpt lat="44.81629" lon="6.5218">
        <ele>1377</ele>
        <time>2010-07-28T09:35:42Z</time>
      </trkpt>
      <trkpt lat="44.81634" lon="6.52171">
        <ele>1377</ele>
        <time>2010-07-28T09:35:47Z</time>
      </trkpt>
      <trkpt lat="44.81636" lon="6.52168">
        <ele>1376</ele>
        <time>2010-07-28T09:35:49Z</time>
      </trkpt>
      <trkpt lat="44.81644" lon="6.52155">
        <ele>1389</ele>
        <time>2010-07-28T09:35:58Z</time>
      </trkpt>
      <trkpt lat="44.81647" lon="6.52152">
        <ele>1388</ele>
        <time>2010-07-28T09:36:00Z</time>
      </trkpt>
      <trkpt lat="44.81654" lon="6.5215">
        <ele>1387</ele>
        <time>2010-07-28T09:36:07Z</time>
      </trkpt>
      <trkpt lat="44.81658" lon="6.52142">
        <ele>1388</ele>
        <time>2010-07-28T09:36:10Z</time>
      </trkpt>
      <trkpt lat="44.81664" lon="6.52138">
        <ele>1390</ele>
        <time>2010-07-28T09:36:14Z</time>
      </trkpt>
      <trkpt lat="44.81668" lon="6.52133">
        <ele>1368</ele>
        <time>2010-07-28T09:36:18Z</time>
      </trkpt>
      <trkpt lat="44.81671" lon="6.52132">
        <ele>1367</ele>
        <time>2010-07-28T09:36:20Z</time>
      </trkpt>
      <trkpt lat="44.81675" lon="6.52129">
        <ele>1368</ele>
        <time>2010-07-28T09:36:26Z</time>
      </trkpt>
      <trkpt lat="44.8168" lon="6.52124">
        <ele>1368</ele>
        <time>2010-07-28T09:36:31Z</time>
      </trkpt>
      <trkpt lat="44.8168" lon="6.52123">
        <ele>1368</ele>
        <time>2010-07-28T09:36:32Z</time>
      </trkpt>
      <trkpt lat="44.81682" lon="6.5212">
        <ele>1368</ele>
        <time>2010-07-28T09:36:34Z</time>
      </trkpt>
      <trkpt lat="44.81689" lon="6.52113">
        <ele>1368</ele>
        <time>2010-07-28T09:36:41Z</time>
      </trkpt>
      <trkpt lat="44.81696" lon="6.52098">
        <ele>1369</ele>
        <time>2010-07-28T09:36:47Z</time>
      </trkpt>
      <trkpt lat="44.81703" lon="6.52082">
        <ele>1382</ele>
        <time>2010-07-28T09:36:54Z</time>
      </trkpt>
      <trkpt lat="44.81706" lon="6.52072">
        <ele>1381</ele>
        <time>2010-07-28T09:36:58Z</time>
      </trkpt>
      <trkpt lat="44.81709" lon="6.52056">
        <ele>1382</ele>
        <time>2010-07-28T09:37:06Z</time>
      </trkpt>
      <trkpt lat="44.81711" lon="6.52049">
        <ele>1382</ele>
        <time>2010-07-28T09:37:09Z</time>
      </trkpt>
      <trkpt lat="44.81716" lon="6.5204">
        <ele>1382</ele>
        <time>2010-07-28T09:37:14Z</time>
      </trkpt>
      <trkpt lat="44.81718" lon="6.52037">
        <ele>1382</ele>
        <time>2010-07-28T09:37:20Z</time>
      </trkpt>
      <trkpt lat="44.81716" lon="6.52036">
        <ele>1383</ele>
        <time>2010-07-28T09:37:32Z</time>
      </trkpt>
      <trkpt lat="44.81716" lon="6.5203">
        <ele>1383</ele>
        <time>2010-07-28T09:37:48Z</time>
      </trkpt>
      <trkpt lat="44.81716" lon="6.52029">
        <ele>1384</ele>
        <time>2010-07-28T09:37:51Z</time>
      </trkpt>
      <trkpt lat="44.81715" lon="6.52027">
        <ele>1384</ele>
        <time>2010-07-28T09:38:00Z</time>
      </trkpt>
      <trkpt lat="44.81713" lon="6.52027">
        <ele>1384</ele>
        <time>2010-07-28T09:38:48Z</time>
      </trkpt>
      <trkpt lat="44.81713" lon="6.52028">
        <ele>1384</ele>
        <time>2010-07-28T09:39:11Z</time>
      </trkpt>
      <trkpt lat="44.81712" lon="6.52028">
        <ele>1385</ele>
        <time>2010-07-28T09:39:15Z</time>
      </trkpt>
      <trkpt lat="44.81714" lon="6.5203">
        <ele>1384</ele>
        <time>2010-07-28T09:40:12Z</time>
      </trkpt>
      <trkpt lat="44.81715" lon="6.5203">
        <ele>1384</ele>
        <time>2010-07-28T09:40:29Z</time>
      </trkpt>
      <trkpt lat="44.81715" lon="6.5203">
        <ele>1384</ele>
        <time>2010-07-28T09:40:43Z</time>
      </trkpt>
      <trkpt lat="44.81714" lon="6.52032">
        <ele>1384</ele>
        <time>2010-07-28T09:40:57Z</time>
      </trkpt>
      <trkpt lat="44.81713" lon="6.52037">
        <ele>1383</ele>
        <time>2010-07-28T09:41:30Z</time>
      </trkpt>
      <trkpt lat="44.81719" lon="6.52038">
        <ele>1382</ele>
        <time>2010-07-28T09:41:49Z</time>
      </trkpt>
      <trkpt lat="44.81721" lon="6.52037">
        <ele>1381</ele>
        <time>2010-07-28T09:41:51Z</time>
      </trkpt>
      <trkpt lat="44.81725" lon="6.52019">
        <ele>1382</ele>
        <time>2010-07-28T09:41:58Z</time>
      </trkpt>
      <trkpt lat="44.81729" lon="6.52007">
        <ele>1381</ele>
        <time>2010-07-28T09:42:03Z</time>
      </trkpt>
      <trkpt lat="44.81732" lon="6.51994">
        <ele>1390</ele>
        <time>2010-07-28T09:42:09Z</time>
      </trkpt>
      <trkpt lat="44.81736" lon="6.5198">
        <ele>1393</ele>
        <time>2010-07-28T09:42:15Z</time>
      </trkpt>
      <trkpt lat="44.81737" lon="6.5197">
        <ele>1396</ele>
        <time>2010-07-28T09:42:20Z</time>
      </trkpt>
      <trkpt lat="44.81738" lon="6.51969">
        <ele>1396</ele>
        <time>2010-07-28T09:42:21Z</time>
      </trkpt>
      <trkpt lat="44.81743" lon="6.51957">
        <ele>1398</ele>
        <time>2010-07-28T09:42:27Z</time>
      </trkpt>
      <trkpt lat="44.81744" lon="6.51947">
        <ele>1399</ele>
        <time>2010-07-28T09:42:32Z</time>
      </trkpt>
      <trkpt lat="44.81749" lon="6.51933">
        <ele>1399</ele>
        <time>2010-07-28T09:42:40Z</time>
      </trkpt>
      <trkpt lat="44.8175" lon="6.5193">
        <ele>1399</ele>
        <time>2010-07-28T09:42:42Z</time>
      </trkpt>
      <trkpt lat="44.81753" lon="6.51923">
        <ele>1387</ele>
        <time>2010-07-28T09:42:46Z</time>
      </trkpt>
      <trkpt lat="44.81757" lon="6.51918">
        <ele>1387</ele>
        <time>2010-07-28T09:42:49Z</time>
      </trkpt>
      <trkpt lat="44.81766" lon="6.51908">
        <ele>1389</ele>
        <time>2010-07-28T09:42:55Z</time>
      </trkpt>
      <trkpt lat="44.81769" lon="6.51898">
        <ele>1388</ele>
        <time>2010-07-28T09:43:00Z</time>
      </trkpt>
      <trkpt lat="44.81768" lon="6.5189">
        <ele>1388</ele>
        <time>2010-07-28T09:43:05Z</time>
      </trkpt>
      <trkpt lat="44.8177" lon="6.51884">
        <ele>1389</ele>
        <time>2010-07-28T09:43:09Z</time>
      </trkpt>
      <trkpt lat="44.81765" lon="6.51877">
        <ele>1390</ele>
        <time>2010-07-28T09:43:15Z</time>
      </trkpt>
      <trkpt lat="44.81759" lon="6.51878">
        <ele>1391</ele>
        <time>2010-07-28T09:43:20Z</time>
      </trkpt>
      <trkpt lat="44.81752" lon="6.51887">
        <ele>1391</ele>
        <time>2010-07-28T09:43:28Z</time>
      </trkpt>
      <trkpt lat="44.81743" lon="6.51898">
        <ele>1409</ele>
        <time>2010-07-28T09:43:36Z</time>
      </trkpt>
      <trkpt lat="44.8174" lon="6.51908">
        <ele>1406</ele>
        <time>2010-07-28T09:43:44Z</time>
      </trkpt>
      <trkpt lat="44.81735" lon="6.51919">
        <ele>1400</ele>
        <time>2010-07-28T09:43:51Z</time>
      </trkpt>
      <trkpt lat="44.81731" lon="6.51927">
        <ele>1401</ele>
        <time>2010-07-28T09:43:56Z</time>
      </trkpt>
      <trkpt lat="44.81724" lon="6.51935">
        <ele>1403</ele>
        <time>2010-07-28T09:44:02Z</time>
      </trkpt>
      <trkpt lat="44.81718" lon="6.51947">
        <ele>1404</ele>
        <time>2010-07-28T09:44:09Z</time>
      </trkpt>
      <trkpt lat="44.81708" lon="6.51958">
        <ele>1405</ele>
        <time>2010-07-28T09:44:17Z</time>
      </trkpt>
      <trkpt lat="44.81702" lon="6.51968">
        <ele>1405</ele>
        <time>2010-07-28T09:44:23Z</time>
      </trkpt>
      <trkpt lat="44.81691" lon="6.5198">
        <ele>1407</ele>
        <time>2010-07-28T09:44:31Z</time>
      </trkpt>
      <trkpt lat="44.81682" lon="6.51988">
        <ele>1410</ele>
        <time>2010-07-28T09:44:37Z</time>
      </trkpt>
      <trkpt lat="44.8167" lon="6.51996">
        <ele>1415</ele>
        <time>2010-07-28T09:44:45Z</time>
      </trkpt>
      <trkpt lat="44.81664" lon="6.52001">
        <ele>1418</ele>
        <time>2010-07-28T09:44:51Z</time>
      </trkpt>
      <trkpt lat="44.81655" lon="6.52005">
        <ele>1419</ele>
        <time>2010-07-28T09:44:58Z</time>
      </trkpt>
      <trkpt lat="44.81646" lon="6.52002">
        <ele>1421</ele>
        <time>2010-07-28T09:45:05Z</time>
      </trkpt>
      <trkpt lat="44.81643" lon="6.52002">
        <ele>1421</ele>
        <time>2010-07-28T09:45:07Z</time>
      </trkpt>
      <trkpt lat="44.81636" lon="6.52001">
        <ele>1423</ele>
        <time>2010-07-28T09:45:13Z</time>
      </trkpt>
      <trkpt lat="44.81632" lon="6.51997">
        <ele>1434</ele>
        <time>2010-07-28T09:45:19Z</time>
      </trkpt>
      <trkpt lat="44.81632" lon="6.51995">
        <ele>1435</ele>
        <time>2010-07-28T09:45:20Z</time>
      </trkpt>
      <trkpt lat="44.81632" lon="6.51993">
        <ele>1435</ele>
        <time>2010-07-28T09:45:22Z</time>
      </trkpt>
      <trkpt lat="44.81635" lon="6.51983">
        <ele>1435</ele>
        <time>2010-07-28T09:45:30Z</time>
      </trkpt>
      <trkpt lat="44.81635" lon="6.51982">
        <ele>1435</ele>
        <time>2010-07-28T09:45:31Z</time>
      </trkpt>
      <trkpt lat="44.81642" lon="6.51981">
        <ele>1433</ele>
        <time>2010-07-28T09:45:38Z</time>
      </trkpt>
      <trkpt lat="44.8165" lon="6.5197">
        <ele>1433</ele>
        <time>2010-07-28T09:45:46Z</time>
      </trkpt>
      <trkpt lat="44.81658" lon="6.51964">
        <ele>1433</ele>
        <time>2010-07-28T09:45:53Z</time>
      </trkpt>
      <trkpt lat="44.81665" lon="6.51959">
        <ele>1433</ele>
        <time>2010-07-28T09:45:58Z</time>
      </trkpt>
      <trkpt lat="44.81674" lon="6.51945">
        <ele>1414</ele>
        <time>2010-07-28T09:46:08Z</time>
      </trkpt>
      <trkpt lat="44.81677" lon="6.51934">
        <ele>1417</ele>
        <time>2010-07-28T09:46:15Z</time>
      </trkpt>
      <trkpt lat="44.81677" lon="6.51932">
        <ele>1417</ele>
        <time>2010-07-28T09:46:16Z</time>
      </trkpt>
      <trkpt lat="44.81676" lon="6.51917">
        <ele>1423</ele>
        <time>2010-07-28T09:46:25Z</time>
      </trkpt>
      <trkpt lat="44.81678" lon="6.51907">
        <ele>1426</ele>
        <time>2010-07-28T09:46:31Z</time>
      </trkpt>
      <trkpt lat="44.81678" lon="6.51893">
        <ele>1424</ele>
        <time>2010-07-28T09:46:39Z</time>
      </trkpt>
      <trkpt lat="44.81677" lon="6.51882">
        <ele>1424</ele>
        <time>2010-07-28T09:46:46Z</time>
      </trkpt>
      <trkpt lat="44.81675" lon="6.51868">
        <ele>1426</ele>
        <time>2010-07-28T09:46:53Z</time>
      </trkpt>
      <trkpt lat="44.81672" lon="6.51852">
        <ele>1429</ele>
        <time>2010-07-28T09:47:01Z</time>
      </trkpt>
      <trkpt lat="44.8167" lon="6.51845">
        <ele>1432</ele>
        <time>2010-07-28T09:47:04Z</time>
      </trkpt>
      <trkpt lat="44.8167" lon="6.51833">
        <ele>1438</ele>
        <time>2010-07-28T09:47:09Z</time>
      </trkpt>
      <trkpt lat="44.81666" lon="6.51824">
        <ele>1445</ele>
        <time>2010-07-28T09:47:13Z</time>
      </trkpt>
      <trkpt lat="44.81658" lon="6.51817">
        <ele>1449</ele>
        <time>2010-07-28T09:47:20Z</time>
      </trkpt>
      <trkpt lat="44.81657" lon="6.51817">
        <ele>1449</ele>
        <time>2010-07-28T09:47:26Z</time>
      </trkpt>
      <trkpt lat="44.81654" lon="6.51822">
        <ele>1449</ele>
        <time>2010-07-28T09:47:32Z</time>
      </trkpt>
      <trkpt lat="44.8165" lon="6.51829">
        <ele>1449</ele>
        <time>2010-07-28T09:47:38Z</time>
      </trkpt>
      <trkpt lat="44.81648" lon="6.51835">
        <ele>1446</ele>
        <time>2010-07-28T09:47:43Z</time>
      </trkpt>
      <trkpt lat="44.81641" lon="6.51842">
        <ele>1448</ele>
        <time>2010-07-28T09:47:49Z</time>
      </trkpt>
      <trkpt lat="44.81635" lon="6.51849">
        <ele>1449</ele>
        <time>2010-07-28T09:47:55Z</time>
      </trkpt>
      <trkpt lat="44.81632" lon="6.51853">
        <ele>1450</ele>
        <time>2010-07-28T09:47:59Z</time>
      </trkpt>
      <trkpt lat="44.81624" lon="6.51862">
        <ele>1452</ele>
        <time>2010-07-28T09:48:07Z</time>
      </trkpt>
      <trkpt lat="44.81623" lon="6.5187">
        <ele>1451</ele>
        <time>2010-07-28T09:48:13Z</time>
      </trkpt>
      <trkpt lat="44.81618" lon="6.51877">
        <ele>1452</ele>
        <time>2010-07-28T09:48:19Z</time>
      </trkpt>
      <trkpt lat="44.81609" lon="6.51893">
        <ele>1453</ele>
        <time>2010-07-28T09:48:27Z</time>
      </trkpt>
      <trkpt lat="44.81605" lon="6.51902">
        <ele>1454</ele>
        <time>2010-07-28T09:48:34Z</time>
      </trkpt>
      <trkpt lat="44.81605" lon="6.51903">
        <ele>1454</ele>
        <time>2010-07-28T09:48:35Z</time>
      </trkpt>
      <trkpt lat="44.81599" lon="6.51915">
        <ele>1456</ele>
        <time>2010-07-28T09:48:42Z</time>
      </trkpt>
      <trkpt lat="44.8159" lon="6.51926">
        <ele>1454</ele>
        <time>2010-07-28T09:48:50Z</time>
      </trkpt>
      <trkpt lat="44.81586" lon="6.51931">
        <ele>1452</ele>
        <time>2010-07-28T09:48:55Z</time>
      </trkpt>
      <trkpt lat="44.81576" lon="6.51944">
        <ele>1463</ele>
        <time>2010-07-28T09:49:02Z</time>
      </trkpt>
      <trkpt lat="44.81568" lon="6.51958">
        <ele>1462</ele>
        <time>2010-07-28T09:49:10Z</time>
      </trkpt>
      <trkpt lat="44.81562" lon="6.51969">
        <ele>1462</ele>
        <time>2010-07-28T09:49:16Z</time>
      </trkpt>
      <trkpt lat="44.81556" lon="6.51972">
        <ele>1462</ele>
        <time>2010-07-28T09:49:20Z</time>
      </trkpt>
      <trkpt lat="44.81557" lon="6.51967">
        <ele>1463</ele>
        <time>2010-07-28T09:49:28Z</time>
      </trkpt>
      <trkpt lat="44.81562" lon="6.51964">
        <ele>1462</ele>
        <time>2010-07-28T09:49:36Z</time>
      </trkpt>
      <trkpt lat="44.81565" lon="6.51959">
        <ele>1463</ele>
        <time>2010-07-28T09:49:40Z</time>
      </trkpt>
      <trkpt lat="44.8157" lon="6.51949">
        <ele>1463</ele>
        <time>2010-07-28T09:49:47Z</time>
      </trkpt>
      <trkpt lat="44.81571" lon="6.51937">
        <ele>1464</ele>
        <time>2010-07-28T09:49:53Z</time>
      </trkpt>
      <trkpt lat="44.81571" lon="6.51924">
        <ele>1464</ele>
        <time>2010-07-28T09:50:00Z</time>
      </trkpt>
      <trkpt lat="44.81572" lon="6.51912">
        <ele>1469</ele>
        <time>2010-07-28T09:50:06Z</time>
      </trkpt>
      <trkpt lat="44.81574" lon="6.51905">
        <ele>1470</ele>
        <time>2010-07-28T09:50:10Z</time>
      </trkpt>
      <trkpt lat="44.81575" lon="6.51897">
        <ele>1471</ele>
        <time>2010-07-28T09:50:15Z</time>
      </trkpt>
      <trkpt lat="44.81576" lon="6.51888">
        <ele>1473</ele>
        <time>2010-07-28T09:50:21Z</time>
      </trkpt>
      <trkpt lat="44.81576" lon="6.5188">
        <ele>1474</ele>
        <time>2010-07-28T09:50:26Z</time>
      </trkpt>
      <trkpt lat="44.81576" lon="6.51872">
        <ele>1475</ele>
        <time>2010-07-28T09:50:29Z</time>
      </trkpt>
      <trkpt lat="44.81575" lon="6.51865">
        <ele>1475</ele>
        <time>2010-07-28T09:50:33Z</time>
      </trkpt>
      <trkpt lat="44.81573" lon="6.51863">
        <ele>1476</ele>
        <time>2010-07-28T09:50:36Z</time>
      </trkpt>
      <trkpt lat="44.81568" lon="6.5186">
        <ele>1476</ele>
        <time>2010-07-28T09:50:40Z</time>
      </trkpt>
      <trkpt lat="44.81566" lon="6.51865">
        <ele>1476</ele>
        <time>2010-07-28T09:50:48Z</time>
      </trkpt>
      <trkpt lat="44.81562" lon="6.51868">
        <ele>1477</ele>
        <time>2010-07-28T09:50:53Z</time>
      </trkpt>
      <trkpt lat="44.81559" lon="6.5187">
        <ele>1477</ele>
        <time>2010-07-28T09:50:56Z</time>
      </trkpt>
      <trkpt lat="44.81554" lon="6.51871">
        <ele>1478</ele>
        <time>2010-07-28T09:51:01Z</time>
      </trkpt>
      <trkpt lat="44.81546" lon="6.51877">
        <ele>1478</ele>
        <time>2010-07-28T09:51:06Z</time>
      </trkpt>
      <trkpt lat="44.81537" lon="6.5188">
        <ele>1479</ele>
        <time>2010-07-28T09:51:14Z</time>
      </trkpt>
      <trkpt lat="44.81534" lon="6.51882">
        <ele>1480</ele>
        <time>2010-07-28T09:51:21Z</time>
      </trkpt>
      <trkpt lat="44.81532" lon="6.51885">
        <ele>1480</ele>
        <time>2010-07-28T09:51:29Z</time>
      </trkpt>
      <trkpt lat="44.81531" lon="6.51887">
        <ele>1480</ele>
        <time>2010-07-28T09:51:37Z</time>
      </trkpt>
      <trkpt lat="44.81529" lon="6.51886">
        <ele>1480</ele>
        <time>2010-07-28T09:51:44Z</time>
      </trkpt>
      <trkpt lat="44.81523" lon="6.51886">
        <ele>1481</ele>
        <time>2010-07-28T09:51:50Z</time>
      </trkpt>
      <trkpt lat="44.81514" lon="6.51889">
        <ele>1481</ele>
        <time>2010-07-28T09:51:55Z</time>
      </trkpt>
      <trkpt lat="44.81503" lon="6.51897">
        <ele>1482</ele>
        <time>2010-07-28T09:52:02Z</time>
      </trkpt>
      <trkpt lat="44.8149" lon="6.519">
        <ele>1496</ele>
        <time>2010-07-28T09:52:09Z</time>
      </trkpt>
      <trkpt lat="44.81489" lon="6.51899">
        <ele>1497</ele>
        <time>2010-07-28T09:52:10Z</time>
      </trkpt>
      <trkpt lat="44.8149" lon="6.51898">
        <ele>1497</ele>
        <time>2010-07-28T09:52:16Z</time>
      </trkpt>
      <trkpt lat="44.81498" lon="6.51893">
        <ele>1497</ele>
        <time>2010-07-28T09:52:22Z</time>
      </trkpt>
      <trkpt lat="44.81499" lon="6.5189">
        <ele>1498</ele>
        <time>2010-07-28T09:52:25Z</time>
      </trkpt>
      <trkpt lat="44.81509" lon="6.51883">
        <ele>1482</ele>
        <time>2010-07-28T09:52:31Z</time>
      </trkpt>
      <trkpt lat="44.81515" lon="6.51879">
        <ele>1482</ele>
        <time>2010-07-28T09:52:35Z</time>
      </trkpt>
      <trkpt lat="44.81519" lon="6.51871">
        <ele>1483</ele>
        <time>2010-07-28T09:52:41Z</time>
      </trkpt>
      <trkpt lat="44.81526" lon="6.51863">
        <ele>1483</ele>
        <time>2010-07-28T09:52:47Z</time>
      </trkpt>
      <trkpt lat="44.81532" lon="6.51855">
        <ele>1483</ele>
        <time>2010-07-28T09:52:53Z</time>
      </trkpt>
      <trkpt lat="44.8154" lon="6.51841">
        <ele>1482</ele>
        <time>2010-07-28T09:52:59Z</time>
      </trkpt>
      <trkpt lat="44.81541" lon="6.51839">
        <ele>1482</ele>
        <time>2010-07-28T09:53:00Z</time>
      </trkpt>
      <trkpt lat="44.81546" lon="6.51831">
        <ele>1488</ele>
        <time>2010-07-28T09:53:04Z</time>
      </trkpt>
      <trkpt lat="44.81549" lon="6.51819">
        <ele>1487</ele>
        <time>2010-07-28T09:53:09Z</time>
      </trkpt>
      <trkpt lat="44.81557" lon="6.51798">
        <ele>1487</ele>
        <time>2010-07-28T09:53:18Z</time>
      </trkpt>
      <trkpt lat="44.81562" lon="6.51787">
        <ele>1487</ele>
        <time>2010-07-28T09:53:23Z</time>
      </trkpt>
      <trkpt lat="44.8157" lon="6.51773">
        <ele>1485</ele>
        <time>2010-07-28T09:53:30Z</time>
      </trkpt>
      <trkpt lat="44.81571" lon="6.51759">
        <ele>1483</ele>
        <time>2010-07-28T09:53:36Z</time>
      </trkpt>
      <trkpt lat="44.81571" lon="6.51748">
        <ele>1485</ele>
        <time>2010-07-28T09:53:42Z</time>
      </trkpt>
      <trkpt lat="44.81573" lon="6.51738">
        <ele>1487</ele>
        <time>2010-07-28T09:53:48Z</time>
      </trkpt>
      <trkpt lat="44.81572" lon="6.51732">
        <ele>1488</ele>
        <time>2010-07-28T09:53:51Z</time>
      </trkpt>
      <trkpt lat="44.8157" lon="6.51717">
        <ele>1492</ele>
        <time>2010-07-28T09:53:58Z</time>
      </trkpt>
      <trkpt lat="44.81569" lon="6.51713">
        <ele>1492</ele>
        <time>2010-07-28T09:54:00Z</time>
      </trkpt>
      <trkpt lat="44.81556" lon="6.51701">
        <ele>1495</ele>
        <time>2010-07-28T09:54:09Z</time>
      </trkpt>
      <trkpt lat="44.81547" lon="6.51694">
        <ele>1497</ele>
        <time>2010-07-28T09:54:15Z</time>
      </trkpt>
      <trkpt lat="44.81543" lon="6.51689">
        <ele>1498</ele>
        <time>2010-07-28T09:54:18Z</time>
      </trkpt>
      <trkpt lat="44.81543" lon="6.5168">
        <ele>1498</ele>
        <time>2010-07-28T09:54:24Z</time>
      </trkpt>
      <trkpt lat="44.81542" lon="6.51674">
        <ele>1498</ele>
        <time>2010-07-28T09:54:26Z</time>
      </trkpt>
      <trkpt lat="44.81548" lon="6.5166">
        <ele>1501</ele>
        <time>2010-07-28T09:54:34Z</time>
      </trkpt>
      <trkpt lat="44.81551" lon="6.51655">
        <ele>1501</ele>
        <time>2010-07-28T09:54:37Z</time>
      </trkpt>
      <trkpt lat="44.81552" lon="6.51652">
        <ele>1501</ele>
        <time>2010-07-28T09:54:39Z</time>
      </trkpt>
      <trkpt lat="44.81557" lon="6.51645">
        <ele>1500</ele>
        <time>2010-07-28T09:54:44Z</time>
      </trkpt>
      <trkpt lat="44.81562" lon="6.51628">
        <ele>1501</ele>
        <time>2010-07-28T09:54:53Z</time>
      </trkpt>
      <trkpt lat="44.81562" lon="6.51613">
        <ele>1501</ele>
        <time>2010-07-28T09:55:00Z</time>
      </trkpt>
      <trkpt lat="44.81557" lon="6.51594">
        <ele>1502</ele>
        <time>2010-07-28T09:55:08Z</time>
      </trkpt>
      <trkpt lat="44.81554" lon="6.51576">
        <ele>1506</ele>
        <time>2010-07-28T09:55:17Z</time>
      </trkpt>
      <trkpt lat="44.81552" lon="6.51564">
        <ele>1507</ele>
        <time>2010-07-28T09:55:23Z</time>
      </trkpt>
      <trkpt lat="44.81547" lon="6.51551">
        <ele>1508</ele>
        <time>2010-07-28T09:55:29Z</time>
      </trkpt>
      <trkpt lat="44.81541" lon="6.51536">
        <ele>1510</ele>
        <time>2010-07-28T09:55:36Z</time>
      </trkpt>
      <trkpt lat="44.81538" lon="6.51521">
        <ele>1511</ele>
        <time>2010-07-28T09:55:43Z</time>
      </trkpt>
      <trkpt lat="44.81536" lon="6.51515">
        <ele>1512</ele>
        <time>2010-07-28T09:55:46Z</time>
      </trkpt>
      <trkpt lat="44.81531" lon="6.51507">
        <ele>1513</ele>
        <time>2010-07-28T09:55:51Z</time>
      </trkpt>
      <trkpt lat="44.81527" lon="6.51492">
        <ele>1516</ele>
        <time>2010-07-28T09:55:58Z</time>
      </trkpt>
      <trkpt lat="44.81523" lon="6.51479">
        <ele>1516</ele>
        <time>2010-07-28T09:56:05Z</time>
      </trkpt>
      <trkpt lat="44.81519" lon="6.51465">
        <ele>1516</ele>
        <time>2010-07-28T09:56:12Z</time>
      </trkpt>
      <trkpt lat="44.81517" lon="6.51452">
        <ele>1516</ele>
        <time>2010-07-28T09:56:18Z</time>
      </trkpt>
      <trkpt lat="44.81511" lon="6.51449">
        <ele>1518</ele>
        <time>2010-07-28T09:56:23Z</time>
      </trkpt>
      <trkpt lat="44.81506" lon="6.51457">
        <ele>1518</ele>
        <time>2010-07-28T09:56:29Z</time>
      </trkpt>
      <trkpt lat="44.81506" lon="6.51467">
        <ele>1518</ele>
        <time>2010-07-28T09:56:35Z</time>
      </trkpt>
      <trkpt lat="44.81506" lon="6.51469">
        <ele>1518</ele>
        <time>2010-07-28T09:56:36Z</time>
      </trkpt>
      <trkpt lat="44.81503" lon="6.51482">
        <ele>1520</ele>
        <time>2010-07-28T09:56:43Z</time>
      </trkpt>
      <trkpt lat="44.81504" lon="6.51488">
        <ele>1522</ele>
        <time>2010-07-28T09:56:47Z</time>
      </trkpt>
      <trkpt lat="44.81504" lon="6.51494">
        <ele>1525</ele>
        <time>2010-07-28T09:56:50Z</time>
      </trkpt>
      <trkpt lat="44.81502" lon="6.51508">
        <ele>1524</ele>
        <time>2010-07-28T09:56:57Z</time>
      </trkpt>
      <trkpt lat="44.81502" lon="6.51523">
        <ele>1519</ele>
        <time>2010-07-28T09:57:04Z</time>
      </trkpt>
      <trkpt lat="44.81505" lon="6.51539">
        <ele>1517</ele>
        <time>2010-07-28T09:57:11Z</time>
      </trkpt>
      <trkpt lat="44.81506" lon="6.51554">
        <ele>1517</ele>
        <time>2010-07-28T09:57:18Z</time>
      </trkpt>
      <trkpt lat="44.81502" lon="6.51556">
        <ele>1518</ele>
        <time>2010-07-28T09:57:24Z</time>
      </trkpt>
      <trkpt lat="44.81505" lon="6.51555">
        <ele>1517</ele>
        <time>2010-07-28T09:57:40Z</time>
      </trkpt>
      <trkpt lat="44.81506" lon="6.51555">
        <ele>1517</ele>
        <time>2010-07-28T09:57:46Z</time>
      </trkpt>
      <trkpt lat="44.81507" lon="6.51554">
        <ele>1517</ele>
        <time>2010-07-28T09:57:54Z</time>
      </trkpt>
      <trkpt lat="44.81508" lon="6.51553">
        <ele>1517</ele>
        <time>2010-07-28T09:58:07Z</time>
      </trkpt>
      <trkpt lat="44.81505" lon="6.51546">
        <ele>1517</ele>
        <time>2010-07-28T09:58:12Z</time>
      </trkpt>
      <trkpt lat="44.81503" lon="6.51536">
        <ele>1517</ele>
        <time>2010-07-28T09:58:19Z</time>
      </trkpt>
      <trkpt lat="44.81498" lon="6.51522">
        <ele>1537</ele>
        <time>2010-07-28T09:58:28Z</time>
      </trkpt>
      <trkpt lat="44.81495" lon="6.51512">
        <ele>1535</ele>
        <time>2010-07-28T09:58:35Z</time>
      </trkpt>
      <trkpt lat="44.81492" lon="6.515">
        <ele>1534</ele>
        <time>2010-07-28T09:58:43Z</time>
      </trkpt>
      <trkpt lat="44.81491" lon="6.51487">
        <ele>1537</ele>
        <time>2010-07-28T09:58:50Z</time>
      </trkpt>
      <trkpt lat="44.81486" lon="6.51474">
        <ele>1541</ele>
        <time>2010-07-28T09:58:57Z</time>
      </trkpt>
      <trkpt lat="44.8148" lon="6.51463">
        <ele>1543</ele>
        <time>2010-07-28T09:59:04Z</time>
      </trkpt>
      <trkpt lat="44.81476" lon="6.51445">
        <ele>1544</ele>
        <time>2010-07-28T09:59:13Z</time>
      </trkpt>
      <trkpt lat="44.81477" lon="6.51433">
        <ele>1543</ele>
        <time>2010-07-28T09:59:20Z</time>
      </trkpt>
      <trkpt lat="44.81477" lon="6.51423">
        <ele>1542</ele>
        <time>2010-07-28T09:59:27Z</time>
      </trkpt>
      <trkpt lat="44.81477" lon="6.51418">
        <ele>1542</ele>
        <time>2010-07-28T09:59:30Z</time>
      </trkpt>
      <trkpt lat="44.81477" lon="6.51407">
        <ele>1548</ele>
        <time>2010-07-28T09:59:36Z</time>
      </trkpt>
      <trkpt lat="44.81476" lon="6.51393">
        <ele>1551</ele>
        <time>2010-07-28T09:59:44Z</time>
      </trkpt>
      <trkpt lat="44.81477" lon="6.51376">
        <ele>1553</ele>
        <time>2010-07-28T09:59:52Z</time>
      </trkpt>
      <trkpt lat="44.8148" lon="6.51361">
        <ele>1554</ele>
        <time>2010-07-28T09:59:58Z</time>
      </trkpt>
      <trkpt lat="44.81484" lon="6.51343">
        <ele>1553</ele>
        <time>2010-07-28T10:00:06Z</time>
      </trkpt>
      <trkpt lat="44.81485" lon="6.51341">
        <ele>1553</ele>
        <time>2010-07-28T10:00:07Z</time>
      </trkpt>
      <trkpt lat="44.81488" lon="6.51331">
        <ele>1558</ele>
        <time>2010-07-28T10:00:12Z</time>
      </trkpt>
      <trkpt lat="44.81491" lon="6.51319">
        <ele>1560</ele>
        <time>2010-07-28T10:00:18Z</time>
      </trkpt>
      <trkpt lat="44.81496" lon="6.51305">
        <ele>1564</ele>
        <time>2010-07-28T10:00:25Z</time>
      </trkpt>
      <trkpt lat="44.81499" lon="6.513">
        <ele>1565</ele>
        <time>2010-07-28T10:00:28Z</time>
      </trkpt>
      <trkpt lat="44.81506" lon="6.51284">
        <ele>1543</ele>
        <time>2010-07-28T10:00:37Z</time>
      </trkpt>
      <trkpt lat="44.8151" lon="6.51274">
        <ele>1545</ele>
        <time>2010-07-28T10:00:43Z</time>
      </trkpt>
      <trkpt lat="44.81511" lon="6.51266">
        <ele>1548</ele>
        <time>2010-07-28T10:00:47Z</time>
      </trkpt>
      <trkpt lat="44.8151" lon="6.51252">
        <ele>1552</ele>
        <time>2010-07-28T10:00:53Z</time>
      </trkpt>
      <trkpt lat="44.81509" lon="6.51232">
        <ele>1555</ele>
        <time>2010-07-28T10:01:02Z</time>
      </trkpt>
      <trkpt lat="44.81509" lon="6.51218">
        <ele>1554</ele>
        <time>2010-07-28T10:01:09Z</time>
      </trkpt>
      <trkpt lat="44.81509" lon="6.51201">
        <ele>1556</ele>
        <time>2010-07-28T10:01:16Z</time>
      </trkpt>
      <trkpt lat="44.81512" lon="6.51187">
        <ele>1558</ele>
        <time>2010-07-28T10:01:23Z</time>
      </trkpt>
      <trkpt lat="44.81517" lon="6.51175">
        <ele>1559</ele>
        <time>2010-07-28T10:01:30Z</time>
      </trkpt>
      <trkpt lat="44.81523" lon="6.51164">
        <ele>1564</ele>
        <time>2010-07-28T10:01:36Z</time>
      </trkpt>
      <trkpt lat="44.8153" lon="6.51154">
        <ele>1563</ele>
        <time>2010-07-28T10:01:42Z</time>
      </trkpt>
      <trkpt lat="44.81537" lon="6.51144">
        <ele>1561</ele>
        <time>2010-07-28T10:01:49Z</time>
      </trkpt>
      <trkpt lat="44.81541" lon="6.51141">
        <ele>1561</ele>
        <time>2010-07-28T10:01:52Z</time>
      </trkpt>
      <trkpt lat="44.81541" lon="6.51139">
        <ele>1561</ele>
        <time>2010-07-28T10:01:58Z</time>
      </trkpt>
      <trkpt lat="44.81541" lon="6.51137">
        <ele>1561</ele>
        <time>2010-07-28T10:02:20Z</time>
      </trkpt>
      <trkpt lat="44.81541" lon="6.51136">
        <ele>1561</ele>
        <time>2010-07-28T10:02:25Z</time>
      </trkpt>
      <trkpt lat="44.81541" lon="6.51135">
        <ele>1561</ele>
        <time>2010-07-28T10:02:39Z</time>
      </trkpt>
      <trkpt lat="44.8154" lon="6.51131">
        <ele>1562</ele>
        <time>2010-07-28T10:02:56Z</time>
      </trkpt>
      <trkpt lat="44.81536" lon="6.51127">
        <ele>1563</ele>
        <time>2010-07-28T10:03:23Z</time>
      </trkpt>
      <trkpt lat="44.81535" lon="6.51128">
        <ele>1563</ele>
        <time>2010-07-28T10:03:38Z</time>
      </trkpt>
      <trkpt lat="44.81536" lon="6.51126">
        <ele>1563</ele>
        <time>2010-07-28T10:03:43Z</time>
      </trkpt>
      <trkpt lat="44.81542" lon="6.51117">
        <ele>1562</ele>
        <time>2010-07-28T10:03:49Z</time>
      </trkpt>
      <trkpt lat="44.81552" lon="6.5111">
        <ele>1561</ele>
        <time>2010-07-28T10:03:55Z</time>
      </trkpt>
      <trkpt lat="44.81557" lon="6.51099">
        <ele>1560</ele>
        <time>2010-07-28T10:04:02Z</time>
      </trkpt>
      <trkpt lat="44.81558" lon="6.51093">
        <ele>1560</ele>
        <time>2010-07-28T10:04:05Z</time>
      </trkpt>
      <trkpt lat="44.81557" lon="6.51076">
        <ele>1567</ele>
        <time>2010-07-28T10:04:11Z</time>
      </trkpt>
      <trkpt lat="44.81556" lon="6.51072">
        <ele>1568</ele>
        <time>2010-07-28T10:04:12Z</time>
      </trkpt>
      <trkpt lat="44.8156" lon="6.51059">
        <ele>1569</ele>
        <time>2010-07-28T10:04:18Z</time>
      </trkpt>
      <trkpt lat="44.81566" lon="6.51047">
        <ele>1569</ele>
        <time>2010-07-28T10:04:23Z</time>
      </trkpt>
      <trkpt lat="44.81576" lon="6.51029">
        <ele>1570</ele>
        <time>2010-07-28T10:04:30Z</time>
      </trkpt>
      <trkpt lat="44.81586" lon="6.51011">
        <ele>1555</ele>
        <time>2010-07-28T10:04:37Z</time>
      </trkpt>
      <trkpt lat="44.81594" lon="6.50988">
        <ele>1559</ele>
        <time>2010-07-28T10:04:44Z</time>
      </trkpt>
      <trkpt lat="44.81605" lon="6.50962">
        <ele>1556</ele>
        <time>2010-07-28T10:04:52Z</time>
      </trkpt>
      <trkpt lat="44.81607" lon="6.50942">
        <ele>1559</ele>
        <time>2010-07-28T10:04:58Z</time>
      </trkpt>
      <trkpt lat="44.81608" lon="6.50926">
        <ele>1561</ele>
        <time>2010-07-28T10:05:03Z</time>
      </trkpt>
      <trkpt lat="44.8161" lon="6.50909">
        <ele>1569</ele>
        <time>2010-07-28T10:05:09Z</time>
      </trkpt>
      <trkpt lat="44.8161" lon="6.50893">
        <ele>1568</ele>
        <time>2010-07-28T10:05:14Z</time>
      </trkpt>
      <trkpt lat="44.81609" lon="6.50877">
        <ele>1568</ele>
        <time>2010-07-28T10:05:20Z</time>
      </trkpt>
      <trkpt lat="44.81608" lon="6.50872">
        <ele>1569</ele>
        <time>2010-07-28T10:05:23Z</time>
      </trkpt>
      <trkpt lat="44.81605" lon="6.50863">
        <ele>1570</ele>
        <time>2010-07-28T10:05:27Z</time>
      </trkpt>
      <trkpt lat="44.81608" lon="6.50845">
        <ele>1572</ele>
        <time>2010-07-28T10:05:34Z</time>
      </trkpt>
      <trkpt lat="44.81608" lon="6.5083">
        <ele>1576</ele>
        <time>2010-07-28T10:05:41Z</time>
      </trkpt>
      <trkpt lat="44.81609" lon="6.50819">
        <ele>1574</ele>
        <time>2010-07-28T10:05:46Z</time>
      </trkpt>
      <trkpt lat="44.8161" lon="6.50803">
        <ele>1573</ele>
        <time>2010-07-28T10:05:52Z</time>
      </trkpt>
      <trkpt lat="44.81612" lon="6.50788">
        <ele>1572</ele>
        <time>2010-07-28T10:05:59Z</time>
      </trkpt>
      <trkpt lat="44.81613" lon="6.5078">
        <ele>1572</ele>
        <time>2010-07-28T10:06:02Z</time>
      </trkpt>
      <trkpt lat="44.81612" lon="6.50753">
        <ele>1573</ele>
        <time>2010-07-28T10:06:12Z</time>
      </trkpt>
      <trkpt lat="44.81608" lon="6.50735">
        <ele>1573</ele>
        <time>2010-07-28T10:06:18Z</time>
      </trkpt>
      <trkpt lat="44.81603" lon="6.50719">
        <ele>1573</ele>
        <time>2010-07-28T10:06:25Z</time>
      </trkpt>
      <trkpt lat="44.81594" lon="6.50697">
        <ele>1573</ele>
        <time>2010-07-28T10:06:34Z</time>
      </trkpt>
      <trkpt lat="44.81585" lon="6.50673">
        <ele>1577</ele>
        <time>2010-07-28T10:06:44Z</time>
      </trkpt>
      <trkpt lat="44.81578" lon="6.50657">
        <ele>1583</ele>
        <time>2010-07-28T10:06:51Z</time>
      </trkpt>
      <trkpt lat="44.81567" lon="6.50644">
        <ele>1586</ele>
        <time>2010-07-28T10:06:58Z</time>
      </trkpt>
      <trkpt lat="44.8156" lon="6.50632">
        <ele>1588</ele>
        <time>2010-07-28T10:07:04Z</time>
      </trkpt>
      <trkpt lat="44.81558" lon="6.50612">
        <ele>1588</ele>
        <time>2010-07-28T10:07:12Z</time>
      </trkpt>
      <trkpt lat="44.81548" lon="6.50598">
        <ele>1590</ele>
        <time>2010-07-28T10:07:19Z</time>
      </trkpt>
      <trkpt lat="44.81539" lon="6.50582">
        <ele>1597</ele>
        <time>2010-07-28T10:07:26Z</time>
      </trkpt>
      <trkpt lat="44.81537" lon="6.50568">
        <ele>1597</ele>
        <time>2010-07-28T10:07:32Z</time>
      </trkpt>
      <trkpt lat="44.81535" lon="6.50556">
        <ele>1598</ele>
        <time>2010-07-28T10:07:38Z</time>
      </trkpt>
      <trkpt lat="44.81538" lon="6.50536">
        <ele>1599</ele>
        <time>2010-07-28T10:07:46Z</time>
      </trkpt>
      <trkpt lat="44.81544" lon="6.5052">
        <ele>1599</ele>
        <time>2010-07-28T10:07:53Z</time>
      </trkpt>
      <trkpt lat="44.81549" lon="6.50507">
        <ele>1598</ele>
        <time>2010-07-28T10:07:59Z</time>
      </trkpt>
      <trkpt lat="44.81554" lon="6.50498">
        <ele>1604</ele>
        <time>2010-07-28T10:08:04Z</time>
      </trkpt>
      <trkpt lat="44.81551" lon="6.50483">
        <ele>1606</ele>
        <time>2010-07-28T10:08:10Z</time>
      </trkpt>
      <trkpt lat="44.81545" lon="6.50481">
        <ele>1608</ele>
        <time>2010-07-28T10:08:13Z</time>
      </trkpt>
      <trkpt lat="44.81537" lon="6.50486">
        <ele>1609</ele>
        <time>2010-07-28T10:08:19Z</time>
      </trkpt>
      <trkpt lat="44.81535" lon="6.5049">
        <ele>1609</ele>
        <time>2010-07-28T10:08:22Z</time>
      </trkpt>
      <trkpt lat="44.81524" lon="6.50499">
        <ele>1611</ele>
        <time>2010-07-28T10:08:29Z</time>
      </trkpt>
      <trkpt lat="44.81512" lon="6.50507">
        <ele>1609</ele>
        <time>2010-07-28T10:08:36Z</time>
      </trkpt>
      <trkpt lat="44.81502" lon="6.50524">
        <ele>1606</ele>
        <time>2010-07-28T10:08:44Z</time>
      </trkpt>
      <trkpt lat="44.81495" lon="6.50538">
        <ele>1621</ele>
        <time>2010-07-28T10:08:50Z</time>
      </trkpt>
      <trkpt lat="44.81489" lon="6.50547">
        <ele>1621</ele>
        <time>2010-07-28T10:08:56Z</time>
      </trkpt>
      <trkpt lat="44.81484" lon="6.50558">
        <ele>1620</ele>
        <time>2010-07-28T10:09:02Z</time>
      </trkpt>
      <trkpt lat="44.81482" lon="6.50563">
        <ele>1619</ele>
        <time>2010-07-28T10:09:05Z</time>
      </trkpt>
      <trkpt lat="44.81476" lon="6.50574">
        <ele>1619</ele>
        <time>2010-07-28T10:09:10Z</time>
      </trkpt>
      <trkpt lat="44.81475" lon="6.50577">
        <ele>1619</ele>
        <time>2010-07-28T10:09:11Z</time>
      </trkpt>
      <trkpt lat="44.8147" lon="6.50594">
        <ele>1616</ele>
        <time>2010-07-28T10:09:18Z</time>
      </trkpt>
      <trkpt lat="44.81465" lon="6.50605">
        <ele>1617</ele>
        <time>2010-07-28T10:09:24Z</time>
      </trkpt>
      <trkpt lat="44.81458" lon="6.50617">
        <ele>1618</ele>
        <time>2010-07-28T10:09:30Z</time>
      </trkpt>
      <trkpt lat="44.8145" lon="6.50632">
        <ele>1619</ele>
        <time>2010-07-28T10:09:38Z</time>
      </trkpt>
      <trkpt lat="44.81445" lon="6.50649">
        <ele>1620</ele>
        <time>2010-07-28T10:09:45Z</time>
      </trkpt>
      <trkpt lat="44.81439" lon="6.50662">
        <ele>1622</ele>
        <time>2010-07-28T10:09:51Z</time>
      </trkpt>
      <trkpt lat="44.81435" lon="6.50672">
        <ele>1622</ele>
        <time>2010-07-28T10:09:57Z</time>
      </trkpt>
      <trkpt lat="44.81432" lon="6.50684">
        <ele>1621</ele>
        <time>2010-07-28T10:10:01Z</time>
      </trkpt>
      <trkpt lat="44.81429" lon="6.50695">
        <ele>1620</ele>
        <time>2010-07-28T10:10:05Z</time>
      </trkpt>
      <trkpt lat="44.81429" lon="6.50702">
        <ele>1619</ele>
        <time>2010-07-28T10:10:08Z</time>
      </trkpt>
      <trkpt lat="44.81427" lon="6.50716">
        <ele>1619</ele>
        <time>2010-07-28T10:10:14Z</time>
      </trkpt>
      <trkpt lat="44.81426" lon="6.50725">
        <ele>1620</ele>
        <time>2010-07-28T10:10:18Z</time>
      </trkpt>
      <trkpt lat="44.81423" lon="6.50743">
        <ele>1624</ele>
        <time>2010-07-28T10:10:25Z</time>
      </trkpt>
      <trkpt lat="44.8142" lon="6.50757">
        <ele>1625</ele>
        <time>2010-07-28T10:10:30Z</time>
      </trkpt>
      <trkpt lat="44.81418" lon="6.50772">
        <ele>1621</ele>
        <time>2010-07-28T10:10:36Z</time>
      </trkpt>
      <trkpt lat="44.81419" lon="6.50775">
        <ele>1621</ele>
        <time>2010-07-28T10:10:37Z</time>
      </trkpt>
      <trkpt lat="44.81422" lon="6.5079">
        <ele>1619</ele>
        <time>2010-07-28T10:10:43Z</time>
      </trkpt>
      <trkpt lat="44.81423" lon="6.50804">
        <ele>1619</ele>
        <time>2010-07-28T10:10:48Z</time>
      </trkpt>
      <trkpt lat="44.81424" lon="6.50806">
        <ele>1619</ele>
        <time>2010-07-28T10:10:49Z</time>
      </trkpt>
      <trkpt lat="44.81427" lon="6.50819">
        <ele>1620</ele>
        <time>2010-07-28T10:10:55Z</time>
      </trkpt>
      <trkpt lat="44.81421" lon="6.50837">
        <ele>1623</ele>
        <time>2010-07-28T10:11:03Z</time>
      </trkpt>
      <trkpt lat="44.81414" lon="6.50853">
        <ele>1631</ele>
        <time>2010-07-28T10:11:10Z</time>
      </trkpt>
      <trkpt lat="44.81408" lon="6.50869">
        <ele>1632</ele>
        <time>2010-07-28T10:11:18Z</time>
      </trkpt>
      <trkpt lat="44.81398" lon="6.50887">
        <ele>1632</ele>
        <time>2010-07-28T10:11:27Z</time>
      </trkpt>
      <trkpt lat="44.81392" lon="6.50901">
        <ele>1632</ele>
        <time>2010-07-28T10:11:34Z</time>
      </trkpt>
      <trkpt lat="44.81382" lon="6.50914">
        <ele>1633</ele>
        <time>2010-07-28T10:11:42Z</time>
      </trkpt>
      <trkpt lat="44.81372" lon="6.50925">
        <ele>1633</ele>
        <time>2010-07-28T10:11:51Z</time>
      </trkpt>
      <trkpt lat="44.81367" lon="6.50932">
        <ele>1634</ele>
        <time>2010-07-28T10:11:55Z</time>
      </trkpt>
      <trkpt lat="44.81362" lon="6.50939">
        <ele>1634</ele>
        <time>2010-07-28T10:11:59Z</time>
      </trkpt>
      <trkpt lat="44.81351" lon="6.50953">
        <ele>1635</ele>
        <time>2010-07-28T10:12:07Z</time>
      </trkpt>
      <trkpt lat="44.81345" lon="6.50963">
        <ele>1635</ele>
        <time>2010-07-28T10:12:13Z</time>
      </trkpt>
      <trkpt lat="44.81338" lon="6.50974">
        <ele>1636</ele>
        <time>2010-07-28T10:12:18Z</time>
      </trkpt>
      <trkpt lat="44.81332" lon="6.50994">
        <ele>1646</ele>
        <time>2010-07-28T10:12:26Z</time>
      </trkpt>
      <trkpt lat="44.81328" lon="6.51011">
        <ele>1649</ele>
        <time>2010-07-28T10:12:34Z</time>
      </trkpt>
      <trkpt lat="44.81326" lon="6.51017">
        <ele>1651</ele>
        <time>2010-07-28T10:12:38Z</time>
      </trkpt>
      <trkpt lat="44.81325" lon="6.51031">
        <ele>1653</ele>
        <time>2010-07-28T10:12:45Z</time>
      </trkpt>
      <trkpt lat="44.81323" lon="6.51044">
        <ele>1654</ele>
        <time>2010-07-28T10:12:51Z</time>
      </trkpt>
      <trkpt lat="44.81322" lon="6.51059">
        <ele>1654</ele>
        <time>2010-07-28T10:12:58Z</time>
      </trkpt>
      <trkpt lat="44.81322" lon="6.51073">
        <ele>1652</ele>
        <time>2010-07-28T10:13:04Z</time>
      </trkpt>
      <trkpt lat="44.81325" lon="6.51086">
        <ele>1649</ele>
        <time>2010-07-28T10:13:10Z</time>
      </trkpt>
      <trkpt lat="44.81325" lon="6.51091">
        <ele>1649</ele>
        <time>2010-07-28T10:13:12Z</time>
      </trkpt>
      <trkpt lat="44.81323" lon="6.51107">
        <ele>1651</ele>
        <time>2010-07-28T10:13:19Z</time>
      </trkpt>
      <trkpt lat="44.81321" lon="6.51121">
        <ele>1652</ele>
        <time>2010-07-28T10:13:28Z</time>
      </trkpt>
      <trkpt lat="44.81317" lon="6.51132">
        <ele>1652</ele>
        <time>2010-07-28T10:13:34Z</time>
      </trkpt>
      <trkpt lat="44.81311" lon="6.51142">
        <ele>1652</ele>
        <time>2010-07-28T10:13:41Z</time>
      </trkpt>
      <trkpt lat="44.81303" lon="6.51149">
        <ele>1652</ele>
        <time>2010-07-28T10:13:48Z</time>
      </trkpt>
      <trkpt lat="44.8129" lon="6.51154">
        <ele>1653</ele>
        <time>2010-07-28T10:13:57Z</time>
      </trkpt>
      <trkpt lat="44.81277" lon="6.51154">
        <ele>1655</ele>
        <time>2010-07-28T10:14:06Z</time>
      </trkpt>
      <trkpt lat="44.81266" lon="6.51155">
        <ele>1656</ele>
        <time>2010-07-28T10:14:13Z</time>
      </trkpt>
      <trkpt lat="44.81251" lon="6.51153">
        <ele>1656</ele>
        <time>2010-07-28T10:14:23Z</time>
      </trkpt>
      <trkpt lat="44.81239" lon="6.51155">
        <ele>1662</ele>
        <time>2010-07-28T10:14:30Z</time>
      </trkpt>
      <trkpt lat="44.81229" lon="6.51155">
        <ele>1664</ele>
        <time>2010-07-28T10:14:36Z</time>
      </trkpt>
      <trkpt lat="44.81218" lon="6.51155">
        <ele>1665</ele>
        <time>2010-07-28T10:14:42Z</time>
      </trkpt>
      <trkpt lat="44.81208" lon="6.51156">
        <ele>1666</ele>
        <time>2010-07-28T10:14:48Z</time>
      </trkpt>
      <trkpt lat="44.81195" lon="6.5116">
        <ele>1666</ele>
        <time>2010-07-28T10:14:55Z</time>
      </trkpt>
      <trkpt lat="44.81185" lon="6.51162">
        <ele>1666</ele>
        <time>2010-07-28T10:15:01Z</time>
      </trkpt>
      <trkpt lat="44.81176" lon="6.51164">
        <ele>1665</ele>
        <time>2010-07-28T10:15:07Z</time>
      </trkpt>
      <trkpt lat="44.81161" lon="6.51173">
        <ele>1665</ele>
        <time>2010-07-28T10:15:15Z</time>
      </trkpt>
      <trkpt lat="44.81143" lon="6.51185">
        <ele>1668</ele>
        <time>2010-07-28T10:15:24Z</time>
      </trkpt>
      <trkpt lat="44.81126" lon="6.51194">
        <ele>1670</ele>
        <time>2010-07-28T10:15:32Z</time>
      </trkpt>
      <trkpt lat="44.81113" lon="6.51202">
        <ele>1671</ele>
        <time>2010-07-28T10:15:39Z</time>
      </trkpt>
      <trkpt lat="44.81108" lon="6.51206">
        <ele>1671</ele>
        <time>2010-07-28T10:15:42Z</time>
      </trkpt>
      <trkpt lat="44.81107" lon="6.51207">
        <ele>1671</ele>
        <time>2010-07-28T10:15:43Z</time>
      </trkpt>
      <trkpt lat="44.81105" lon="6.51209">
        <ele>1672</ele>
        <time>2010-07-28T10:15:44Z</time>
      </trkpt>
      <trkpt lat="44.81104" lon="6.5121">
        <ele>1672</ele>
        <time>2010-07-28T10:15:45Z</time>
      </trkpt>
      <trkpt lat="44.81089" lon="6.51224">
        <ele>1672</ele>
        <time>2010-07-28T10:15:53Z</time>
      </trkpt>
      <trkpt lat="44.8108" lon="6.51237">
        <ele>1684</ele>
        <time>2010-07-28T10:16:00Z</time>
      </trkpt>
      <trkpt lat="44.81077" lon="6.51246">
        <ele>1681</ele>
        <time>2010-07-28T10:16:04Z</time>
      </trkpt>
      <trkpt lat="44.8108" lon="6.51257">
        <ele>1681</ele>
        <time>2010-07-28T10:16:08Z</time>
      </trkpt>
      <trkpt lat="44.81078" lon="6.51274">
        <ele>1687</ele>
        <time>2010-07-28T10:16:15Z</time>
      </trkpt>
      <trkpt lat="44.81075" lon="6.51277">
        <ele>1688</ele>
        <time>2010-07-28T10:16:18Z</time>
      </trkpt>
      <trkpt lat="44.81068" lon="6.5127">
        <ele>1688</ele>
        <time>2010-07-28T10:16:25Z</time>
      </trkpt>
      <trkpt lat="44.81061" lon="6.51263">
        <ele>1689</ele>
        <time>2010-07-28T10:16:32Z</time>
      </trkpt>
      <trkpt lat="44.81053" lon="6.51255">
        <ele>1691</ele>
        <time>2010-07-28T10:16:39Z</time>
      </trkpt>
      <trkpt lat="44.8105" lon="6.51245">
        <ele>1692</ele>
        <time>2010-07-28T10:16:46Z</time>
      </trkpt>
      <trkpt lat="44.81048" lon="6.51229">
        <ele>1693</ele>
        <time>2010-07-28T10:16:54Z</time>
      </trkpt>
      <trkpt lat="44.81047" lon="6.51218">
        <ele>1694</ele>
        <time>2010-07-28T10:17:00Z</time>
      </trkpt>
      <trkpt lat="44.81047" lon="6.51209">
        <ele>1694</ele>
        <time>2010-07-28T10:17:05Z</time>
      </trkpt>
      <trkpt lat="44.8105" lon="6.51193">
        <ele>1694</ele>
        <time>2010-07-28T10:17:11Z</time>
      </trkpt>
      <trkpt lat="44.81058" lon="6.5118">
        <ele>1692</ele>
        <time>2010-07-28T10:17:19Z</time>
      </trkpt>
      <trkpt lat="44.81062" lon="6.51171">
        <ele>1691</ele>
        <time>2010-07-28T10:17:24Z</time>
      </trkpt>
      <trkpt lat="44.81062" lon="6.51159">
        <ele>1698</ele>
        <time>2010-07-28T10:17:30Z</time>
      </trkpt>
      <trkpt lat="44.81056" lon="6.51153">
        <ele>1701</ele>
        <time>2010-07-28T10:17:35Z</time>
      </trkpt>
      <trkpt lat="44.81051" lon="6.51153">
        <ele>1702</ele>
        <time>2010-07-28T10:17:39Z</time>
      </trkpt>
      <trkpt lat="44.81047" lon="6.51158">
        <ele>1703</ele>
        <time>2010-07-28T10:17:43Z</time>
      </trkpt>
      <trkpt lat="44.81039" lon="6.5116">
        <ele>1705</ele>
        <time>2010-07-28T10:17:50Z</time>
      </trkpt>
      <trkpt lat="44.8103" lon="6.51166">
        <ele>1707</ele>
        <time>2010-07-28T10:17:57Z</time>
      </trkpt>
      <trkpt lat="44.81019" lon="6.51176">
        <ele>1703</ele>
        <time>2010-07-28T10:18:06Z</time>
      </trkpt>
      <trkpt lat="44.81017" lon="6.51178">
        <ele>1703</ele>
        <time>2010-07-28T10:18:08Z</time>
      </trkpt>
      <trkpt lat="44.81012" lon="6.5119">
        <ele>1702</ele>
        <time>2010-07-28T10:18:15Z</time>
      </trkpt>
      <trkpt lat="44.81009" lon="6.51203">
        <ele>1701</ele>
        <time>2010-07-28T10:18:21Z</time>
      </trkpt>
      <trkpt lat="44.81003" lon="6.51221">
        <ele>1701</ele>
        <time>2010-07-28T10:18:30Z</time>
      </trkpt>
      <trkpt lat="44.81003" lon="6.51236">
        <ele>1704</ele>
        <time>2010-07-28T10:18:37Z</time>
      </trkpt>
      <trkpt lat="44.80997" lon="6.51253">
        <ele>1713</ele>
        <time>2010-07-28T10:18:44Z</time>
      </trkpt>
      <trkpt lat="44.80995" lon="6.51264">
        <ele>1720</ele>
        <time>2010-07-28T10:18:49Z</time>
      </trkpt>
      <trkpt lat="44.80995" lon="6.51277">
        <ele>1725</ele>
        <time>2010-07-28T10:18:55Z</time>
      </trkpt>
      <trkpt lat="44.80998" lon="6.51291">
        <ele>1727</ele>
        <time>2010-07-28T10:19:02Z</time>
      </trkpt>
      <trkpt lat="44.81002" lon="6.51302">
        <ele>1704</ele>
        <time>2010-07-28T10:19:08Z</time>
      </trkpt>
      <trkpt lat="44.81009" lon="6.51316">
        <ele>1707</ele>
        <time>2010-07-28T10:19:16Z</time>
      </trkpt>
      <trkpt lat="44.81015" lon="6.51333">
        <ele>1708</ele>
        <time>2010-07-28T10:19:25Z</time>
      </trkpt>
      <trkpt lat="44.8102" lon="6.51354">
        <ele>1710</ele>
        <time>2010-07-28T10:19:35Z</time>
      </trkpt>
      <trkpt lat="44.81022" lon="6.51373">
        <ele>1710</ele>
        <time>2010-07-28T10:19:44Z</time>
      </trkpt>
      <trkpt lat="44.81029" lon="6.51394">
        <ele>1711</ele>
        <time>2010-07-28T10:19:54Z</time>
      </trkpt>
      <trkpt lat="44.81033" lon="6.51413">
        <ele>1711</ele>
        <time>2010-07-28T10:20:03Z</time>
      </trkpt>
      <trkpt lat="44.81036" lon="6.5142">
        <ele>1718</ele>
        <time>2010-07-28T10:20:06Z</time>
      </trkpt>
      <trkpt lat="44.81033" lon="6.51423">
        <ele>1719</ele>
        <time>2010-07-28T10:20:12Z</time>
      </trkpt>
      <trkpt lat="44.81032" lon="6.51421">
        <ele>1719</ele>
        <time>2010-07-28T10:20:14Z</time>
      </trkpt>
      <trkpt lat="44.8103" lon="6.51409">
        <ele>1712</ele>
        <time>2010-07-28T10:20:22Z</time>
      </trkpt>
      <trkpt lat="44.81022" lon="6.51393">
        <ele>1713</ele>
        <time>2010-07-28T10:20:31Z</time>
      </trkpt>
      <trkpt lat="44.81016" lon="6.51381">
        <ele>1712</ele>
        <time>2010-07-28T10:20:38Z</time>
      </trkpt>
      <trkpt lat="44.81012" lon="6.51378">
        <ele>1712</ele>
        <time>2010-07-28T10:20:43Z</time>
      </trkpt>
      <trkpt lat="44.81007" lon="6.51384">
        <ele>1714</ele>
        <time>2010-07-28T10:20:48Z</time>
      </trkpt>
      <trkpt lat="44.81006" lon="6.51402">
        <ele>1720</ele>
        <time>2010-07-28T10:20:56Z</time>
      </trkpt>
      <trkpt lat="44.81008" lon="6.51404">
        <ele>1720</ele>
        <time>2010-07-28T10:20:57Z</time>
      </trkpt>
      <trkpt lat="44.81012" lon="6.51425">
        <ele>1725</ele>
        <time>2010-07-28T10:21:08Z</time>
      </trkpt>
      <trkpt lat="44.81015" lon="6.51448">
        <ele>1723</ele>
        <time>2010-07-28T10:21:19Z</time>
      </trkpt>
      <trkpt lat="44.81019" lon="6.51461">
        <ele>1723</ele>
        <time>2010-07-28T10:21:26Z</time>
      </trkpt>
      <trkpt lat="44.81025" lon="6.51483">
        <ele>1724</ele>
        <time>2010-07-28T10:21:37Z</time>
      </trkpt>
      <trkpt lat="44.81025" lon="6.51501">
        <ele>1733</ele>
        <time>2010-07-28T10:21:45Z</time>
      </trkpt>
      <trkpt lat="44.81023" lon="6.51515">
        <ele>1733</ele>
        <time>2010-07-28T10:21:52Z</time>
      </trkpt>
      <trkpt lat="44.81021" lon="6.51525">
        <ele>1733</ele>
        <time>2010-07-28T10:21:59Z</time>
      </trkpt>
      <trkpt lat="44.81016" lon="6.51538">
        <ele>1734</ele>
        <time>2010-07-28T10:22:05Z</time>
      </trkpt>
      <trkpt lat="44.81012" lon="6.51551">
        <ele>1736</ele>
        <time>2010-07-28T10:22:11Z</time>
      </trkpt>
      <trkpt lat="44.8101" lon="6.51568">
        <ele>1740</ele>
        <time>2010-07-28T10:22:18Z</time>
      </trkpt>
      <trkpt lat="44.81016" lon="6.5158">
        <ele>1741</ele>
        <time>2010-07-28T10:22:25Z</time>
      </trkpt>
      <trkpt lat="44.81025" lon="6.51588">
        <ele>1747</ele>
        <time>2010-07-28T10:22:31Z</time>
      </trkpt>
      <trkpt lat="44.81035" lon="6.51598">
        <ele>1746</ele>
        <time>2010-07-28T10:22:38Z</time>
      </trkpt>
      <trkpt lat="44.8104" lon="6.51607">
        <ele>1745</ele>
        <time>2010-07-28T10:22:45Z</time>
      </trkpt>
      <trkpt lat="44.81041" lon="6.51611">
        <ele>1746</ele>
        <time>2010-07-28T10:22:47Z</time>
      </trkpt>
      <trkpt lat="44.81038" lon="6.51616">
        <ele>1747</ele>
        <time>2010-07-28T10:22:53Z</time>
      </trkpt>
      <trkpt lat="44.81034" lon="6.51611">
        <ele>1747</ele>
        <time>2010-07-28T10:23:00Z</time>
      </trkpt>
      <trkpt lat="44.81028" lon="6.51606">
        <ele>1747</ele>
        <time>2010-07-28T10:23:07Z</time>
      </trkpt>
      <trkpt lat="44.81018" lon="6.51603">
        <ele>1748</ele>
        <time>2010-07-28T10:23:15Z</time>
      </trkpt>
      <trkpt lat="44.81009" lon="6.51596">
        <ele>1749</ele>
        <time>2010-07-28T10:23:23Z</time>
      </trkpt>
      <trkpt lat="44.80998" lon="6.51587">
        <ele>1753</ele>
        <time>2010-07-28T10:23:31Z</time>
      </trkpt>
      <trkpt lat="44.80994" lon="6.51583">
        <ele>1751</ele>
        <time>2010-07-28T10:23:34Z</time>
      </trkpt>
      <trkpt lat="44.80981" lon="6.51584">
        <ele>1757</ele>
        <time>2010-07-28T10:23:42Z</time>
      </trkpt>
      <trkpt lat="44.80967" lon="6.51586">
        <ele>1759</ele>
        <time>2010-07-28T10:23:50Z</time>
      </trkpt>
      <trkpt lat="44.80951" lon="6.51587">
        <ele>1760</ele>
        <time>2010-07-28T10:23:59Z</time>
      </trkpt>
      <trkpt lat="44.80938" lon="6.51578">
        <ele>1754</ele>
        <time>2010-07-28T10:24:08Z</time>
      </trkpt>
      <trkpt lat="44.80931" lon="6.5157">
        <ele>1754</ele>
        <time>2010-07-28T10:24:14Z</time>
      </trkpt>
      <trkpt lat="44.80925" lon="6.51561">
        <ele>1754</ele>
        <time>2010-07-28T10:24:20Z</time>
      </trkpt>
      <trkpt lat="44.80922" lon="6.51556">
        <ele>1754</ele>
        <time>2010-07-28T10:24:23Z</time>
      </trkpt>
      <trkpt lat="44.8092" lon="6.51548">
        <ele>1753</ele>
        <time>2010-07-28T10:24:28Z</time>
      </trkpt>
      <trkpt lat="44.80919" lon="6.51546">
        <ele>1753</ele>
        <time>2010-07-28T10:24:33Z</time>
      </trkpt>
      <trkpt lat="44.80919" lon="6.51543">
        <ele>1753</ele>
        <time>2010-07-28T10:25:06Z</time>
      </trkpt>
      <trkpt lat="44.80918" lon="6.51544">
        <ele>1753</ele>
        <time>2010-07-28T10:25:15Z</time>
      </trkpt>
      <trkpt lat="44.80917" lon="6.51553">
        <ele>1753</ele>
        <time>2010-07-28T10:25:32Z</time>
      </trkpt>
      <trkpt lat="44.80916" lon="6.5155">
        <ele>1760</ele>
        <time>2010-07-28T10:25:40Z</time>
      </trkpt>
      <trkpt lat="44.80913" lon="6.5155">
        <ele>1760</ele>
        <time>2010-07-28T10:26:10Z</time>
      </trkpt>
      <trkpt lat="44.80914" lon="6.51549">
        <ele>1760</ele>
        <time>2010-07-28T10:26:23Z</time>
      </trkpt>
      <trkpt lat="44.80915" lon="6.51549">
        <ele>1760</ele>
        <time>2010-07-28T10:26:36Z</time>
      </trkpt>
      <trkpt lat="44.80917" lon="6.51543">
        <ele>1753</ele>
        <time>2010-07-28T10:27:31Z</time>
      </trkpt>
      <trkpt lat="44.80917" lon="6.51543">
        <ele>1753</ele>
        <time>2010-07-28T10:27:32Z</time>
      </trkpt>
      <trkpt lat="44.80916" lon="6.51542">
        <ele>1760</ele>
        <time>2010-07-28T10:27:40Z</time>
      </trkpt>
      <trkpt lat="44.80912" lon="6.51542">
        <ele>1760</ele>
        <time>2010-07-28T10:27:47Z</time>
      </trkpt>
      <trkpt lat="44.80911" lon="6.5154">
        <ele>1760</ele>
        <time>2010-07-28T10:27:52Z</time>
      </trkpt>
      <trkpt lat="44.8091" lon="6.51533">
        <ele>1760</ele>
        <time>2010-07-28T10:27:58Z</time>
      </trkpt>
      <trkpt lat="44.80909" lon="6.51514">
        <ele>1758</ele>
        <time>2010-07-28T10:28:07Z</time>
      </trkpt>
      <trkpt lat="44.80909" lon="6.51498">
        <ele>1757</ele>
        <time>2010-07-28T10:28:13Z</time>
      </trkpt>
      <trkpt lat="44.80906" lon="6.51473">
        <ele>1759</ele>
        <time>2010-07-28T10:28:21Z</time>
      </trkpt>
      <trkpt lat="44.80899" lon="6.51452">
        <ele>1759</ele>
        <time>2010-07-28T10:28:28Z</time>
      </trkpt>
      <trkpt lat="44.80893" lon="6.51432">
        <ele>1759</ele>
        <time>2010-07-28T10:28:34Z</time>
      </trkpt>
      <trkpt lat="44.80881" lon="6.51409">
        <ele>1761</ele>
        <time>2010-07-28T10:28:41Z</time>
      </trkpt>
      <trkpt lat="44.80872" lon="6.51401">
        <ele>1762</ele>
        <time>2010-07-28T10:28:47Z</time>
      </trkpt>
      <trkpt lat="44.80869" lon="6.51398">
        <ele>1763</ele>
        <time>2010-07-28T10:28:49Z</time>
      </trkpt>
      <trkpt lat="44.8087" lon="6.51396">
        <ele>1763</ele>
        <time>2010-07-28T10:28:57Z</time>
      </trkpt>
      <trkpt lat="44.80871" lon="6.51397">
        <ele>1762</ele>
        <time>2010-07-28T10:28:59Z</time>
      </trkpt>
      <trkpt lat="44.80881" lon="6.51404">
        <ele>1761</ele>
        <time>2010-07-28T10:29:05Z</time>
      </trkpt>
      <trkpt lat="44.80893" lon="6.51399">
        <ele>1760</ele>
        <time>2010-07-28T10:29:11Z</time>
      </trkpt>
      <trkpt lat="44.80903" lon="6.51384">
        <ele>1760</ele>
        <time>2010-07-28T10:29:21Z</time>
      </trkpt>
      <trkpt lat="44.80908" lon="6.51375">
        <ele>1760</ele>
        <time>2010-07-28T10:29:29Z</time>
      </trkpt>
      <trkpt lat="44.80913" lon="6.51365">
        <ele>1761</ele>
        <time>2010-07-28T10:29:39Z</time>
      </trkpt>
      <trkpt lat="44.80913" lon="6.51358">
        <ele>1761</ele>
        <time>2010-07-28T10:29:45Z</time>
      </trkpt>
      <trkpt lat="44.80913" lon="6.51348">
        <ele>1760</ele>
        <time>2010-07-28T10:29:52Z</time>
      </trkpt>
      <trkpt lat="44.80913" lon="6.51345">
        <ele>1760</ele>
        <time>2010-07-28T10:29:54Z</time>
      </trkpt>
      <trkpt lat="44.80909" lon="6.51331">
        <ele>1761</ele>
        <time>2010-07-28T10:30:03Z</time>
      </trkpt>
      <trkpt lat="44.80904" lon="6.51319">
        <ele>1763</ele>
        <time>2010-07-28T10:30:12Z</time>
      </trkpt>
      <trkpt lat="44.80899" lon="6.51308">
        <ele>1764</ele>
        <time>2010-07-28T10:30:20Z</time>
      </trkpt>
      <trkpt lat="44.80895" lon="6.51298">
        <ele>1764</ele>
        <time>2010-07-28T10:30:27Z</time>
      </trkpt>
      <trkpt lat="44.80894" lon="6.51294">
        <ele>1764</ele>
        <time>2010-07-28T10:30:30Z</time>
      </trkpt>
      <trkpt lat="44.80892" lon="6.51285">
        <ele>1764</ele>
        <time>2010-07-28T10:30:35Z</time>
      </trkpt>
      <trkpt lat="44.80888" lon="6.51268">
        <ele>1764</ele>
        <time>2010-07-28T10:30:42Z</time>
      </trkpt>
      <trkpt lat="44.80884" lon="6.51262">
        <ele>1765</ele>
        <time>2010-07-28T10:30:47Z</time>
      </trkpt>
      <trkpt lat="44.80884" lon="6.5126">
        <ele>1765</ele>
        <time>2010-07-28T10:30:51Z</time>
      </trkpt>
      <trkpt lat="44.80881" lon="6.5124">
        <ele>1769</ele>
        <time>2010-07-28T10:30:56Z</time>
      </trkpt>
      <trkpt lat="44.80877" lon="6.5123">
        <ele>1770</ele>
        <time>2010-07-28T10:30:58Z</time>
      </trkpt>
      <trkpt lat="44.80877" lon="6.51225">
        <ele>1771</ele>
        <time>2010-07-28T10:31:04Z</time>
      </trkpt>
      <trkpt lat="44.80875" lon="6.51225">
        <ele>1771</ele>
        <time>2010-07-28T10:31:10Z</time>
      </trkpt>
      <trkpt lat="44.80876" lon="6.51226">
        <ele>1771</ele>
        <time>2010-07-28T10:31:15Z</time>
      </trkpt>
      <trkpt lat="44.80874" lon="6.51213">
        <ele>1772</ele>
        <time>2010-07-28T10:31:21Z</time>
      </trkpt>
      <trkpt lat="44.80873" lon="6.5121">
        <ele>1772</ele>
        <time>2010-07-28T10:31:22Z</time>
      </trkpt>
      <trkpt lat="44.80871" lon="6.51196">
        <ele>1774</ele>
        <time>2010-07-28T10:31:27Z</time>
      </trkpt>
      <trkpt lat="44.80871" lon="6.51193">
        <ele>1774</ele>
        <time>2010-07-28T10:31:28Z</time>
      </trkpt>
      <trkpt lat="44.80871" lon="6.51188">
        <ele>1774</ele>
        <time>2010-07-28T10:31:31Z</time>
      </trkpt>
      <trkpt lat="44.80872" lon="6.51176">
        <ele>1775</ele>
        <time>2010-07-28T10:31:38Z</time>
      </trkpt>
      <trkpt lat="44.8087" lon="6.51176">
        <ele>1775</ele>
        <time>2010-07-28T10:31:41Z</time>
      </trkpt>
      <trkpt lat="44.8087" lon="6.51173">
        <ele>1775</ele>
        <time>2010-07-28T10:31:46Z</time>
      </trkpt>
      <trkpt lat="44.8087" lon="6.51167">
        <ele>1776</ele>
        <time>2010-07-28T10:31:52Z</time>
      </trkpt>
      <trkpt lat="44.80871" lon="6.51162">
        <ele>1781</ele>
        <time>2010-07-28T10:31:54Z</time>
      </trkpt>
      <trkpt lat="44.80873" lon="6.51153">
        <ele>1780</ele>
        <time>2010-07-28T10:31:57Z</time>
      </trkpt>
      <trkpt lat="44.80877" lon="6.51138">
        <ele>1780</ele>
        <time>2010-07-28T10:32:03Z</time>
      </trkpt>
      <trkpt lat="44.80878" lon="6.51131">
        <ele>1780</ele>
        <time>2010-07-28T10:32:06Z</time>
      </trkpt>
      <trkpt lat="44.80879" lon="6.51128">
        <ele>1780</ele>
        <time>2010-07-28T10:32:08Z</time>
      </trkpt>
      <trkpt lat="44.80882" lon="6.51121">
        <ele>1779</ele>
        <time>2010-07-28T10:32:11Z</time>
      </trkpt>
      <trkpt lat="44.80885" lon="6.51104">
        <ele>1779</ele>
        <time>2010-07-28T10:32:15Z</time>
      </trkpt>
      <trkpt lat="44.80892" lon="6.51087">
        <ele>1777</ele>
        <time>2010-07-28T10:32:20Z</time>
      </trkpt>
      <trkpt lat="44.80897" lon="6.51075">
        <ele>1782</ele>
        <time>2010-07-28T10:32:24Z</time>
      </trkpt>
      <trkpt lat="44.80906" lon="6.5106">
        <ele>1783</ele>
        <time>2010-07-28T10:32:30Z</time>
      </trkpt>
      <trkpt lat="44.80908" lon="6.51053">
        <ele>1784</ele>
        <time>2010-07-28T10:32:33Z</time>
      </trkpt>
      <trkpt lat="44.80909" lon="6.51048">
        <ele>1785</ele>
        <time>2010-07-28T10:32:35Z</time>
      </trkpt>
      <trkpt lat="44.80913" lon="6.51038">
        <ele>1786</ele>
        <time>2010-07-28T10:32:40Z</time>
      </trkpt>
      <trkpt lat="44.80914" lon="6.51036">
        <ele>1786</ele>
        <time>2010-07-28T10:32:41Z</time>
      </trkpt>
      <trkpt lat="44.80916" lon="6.51031">
        <ele>1786</ele>
        <time>2010-07-28T10:32:43Z</time>
      </trkpt>
      <trkpt lat="44.80917" lon="6.51028">
        <ele>1767</ele>
        <time>2010-07-28T10:32:45Z</time>
      </trkpt>
      <trkpt lat="44.80924" lon="6.51021">
        <ele>1768</ele>
        <time>2010-07-28T10:32:50Z</time>
      </trkpt>
      <trkpt lat="44.80927" lon="6.51017">
        <ele>1768</ele>
        <time>2010-07-28T10:32:52Z</time>
      </trkpt>
      <trkpt lat="44.80933" lon="6.51005">
        <ele>1770</ele>
        <time>2010-07-28T10:32:57Z</time>
      </trkpt>
      <trkpt lat="44.80935" lon="6.51003">
        <ele>1769</ele>
        <time>2010-07-28T10:33:01Z</time>
      </trkpt>
      <trkpt lat="44.80936" lon="6.51">
        <ele>1769</ele>
        <time>2010-07-28T10:33:04Z</time>
      </trkpt>
      <trkpt lat="44.80938" lon="6.50998">
        <ele>1776</ele>
        <time>2010-07-28T10:33:06Z</time>
      </trkpt>
      <trkpt lat="44.80939" lon="6.50997">
        <ele>1776</ele>
        <time>2010-07-28T10:33:13Z</time>
      </trkpt>
      <trkpt lat="44.80937" lon="6.50997">
        <ele>1776</ele>
        <time>2010-07-28T10:33:24Z</time>
      </trkpt>
      <trkpt lat="44.8094" lon="6.50995">
        <ele>1776</ele>
        <time>2010-07-28T10:33:33Z</time>
      </trkpt>
      <trkpt lat="44.80942" lon="6.50985">
        <ele>1776</ele>
        <time>2010-07-28T10:33:39Z</time>
      </trkpt>
      <trkpt lat="44.80942" lon="6.5098">
        <ele>1776</ele>
        <time>2010-07-28T10:33:43Z</time>
      </trkpt>
      <trkpt lat="44.80942" lon="6.50975">
        <ele>1777</ele>
        <time>2010-07-28T10:33:47Z</time>
      </trkpt>
      <trkpt lat="44.80943" lon="6.5097">
        <ele>1777</ele>
        <time>2010-07-28T10:33:52Z</time>
      </trkpt>
      <trkpt lat="44.80946" lon="6.50967">
        <ele>1777</ele>
        <time>2010-07-28T10:34:00Z</time>
      </trkpt>
      <trkpt lat="44.80947" lon="6.50954">
        <ele>1778</ele>
        <time>2010-07-28T10:34:05Z</time>
      </trkpt>
      <trkpt lat="44.80952" lon="6.50938">
        <ele>1778</ele>
        <time>2010-07-28T10:34:09Z</time>
      </trkpt>
      <trkpt lat="44.80956" lon="6.50921">
        <ele>1779</ele>
        <time>2010-07-28T10:34:13Z</time>
      </trkpt>
      <trkpt lat="44.8096" lon="6.50901">
        <ele>1781</ele>
        <time>2010-07-28T10:34:17Z</time>
      </trkpt>
      <trkpt lat="44.80962" lon="6.50893">
        <ele>1781</ele>
        <time>2010-07-28T10:34:19Z</time>
      </trkpt>
      <trkpt lat="44.80962" lon="6.5089">
        <ele>1781</ele>
        <time>2010-07-28T10:34:20Z</time>
      </trkpt>
      <trkpt lat="44.8096" lon="6.50887">
        <ele>1781</ele>
        <time>2010-07-28T10:34:23Z</time>
      </trkpt>
      <trkpt lat="44.80958" lon="6.50886">
        <ele>1781</ele>
        <time>2010-07-28T10:34:30Z</time>
      </trkpt>
      <trkpt lat="44.80959" lon="6.50885">
        <ele>1780</ele>
        <time>2010-07-28T10:34:36Z</time>
      </trkpt>
      <trkpt lat="44.8096" lon="6.50883">
        <ele>1780</ele>
        <time>2010-07-28T10:34:40Z</time>
      </trkpt>
      <trkpt lat="44.80967" lon="6.50876">
        <ele>1780</ele>
        <time>2010-07-28T10:34:51Z</time>
      </trkpt>
      <trkpt lat="44.80967" lon="6.50874">
        <ele>1780</ele>
        <time>2010-07-28T10:34:56Z</time>
      </trkpt>
      <trkpt lat="44.80965" lon="6.50858">
        <ele>1780</ele>
        <time>2010-07-28T10:35:02Z</time>
      </trkpt>
      <trkpt lat="44.80967" lon="6.50845">
        <ele>1780</ele>
        <time>2010-07-28T10:35:07Z</time>
      </trkpt>
      <trkpt lat="44.80969" lon="6.50823">
        <ele>1781</ele>
        <time>2010-07-28T10:35:13Z</time>
      </trkpt>
      <trkpt lat="44.8097" lon="6.5081">
        <ele>1781</ele>
        <time>2010-07-28T10:35:17Z</time>
      </trkpt>
      <trkpt lat="44.80972" lon="6.50791">
        <ele>1781</ele>
        <time>2010-07-28T10:35:22Z</time>
      </trkpt>
      <trkpt lat="44.80977" lon="6.50769">
        <ele>1781</ele>
        <time>2010-07-28T10:35:28Z</time>
      </trkpt>
      <trkpt lat="44.80981" lon="6.50753">
        <ele>1779</ele>
        <time>2010-07-28T10:35:33Z</time>
      </trkpt>
      <trkpt lat="44.80983" lon="6.50729">
        <ele>1785</ele>
        <time>2010-07-28T10:35:39Z</time>
      </trkpt>
      <trkpt lat="44.80983" lon="6.50707">
        <ele>1787</ele>
        <time>2010-07-28T10:35:43Z</time>
      </trkpt>
      <trkpt lat="44.80987" lon="6.5068">
        <ele>1784</ele>
        <time>2010-07-28T10:35:47Z</time>
      </trkpt>
      <trkpt lat="44.8099" lon="6.50667">
        <ele>1781</ele>
        <time>2010-07-28T10:35:50Z</time>
      </trkpt>
      <trkpt lat="44.80991" lon="6.50632">
        <ele>1792</ele>
        <time>2010-07-28T10:35:57Z</time>
      </trkpt>
      <trkpt lat="44.80993" lon="6.50611">
        <ele>1792</ele>
        <time>2010-07-28T10:36:02Z</time>
      </trkpt>
      <trkpt lat="44.80993" lon="6.50594">
        <ele>1787</ele>
        <time>2010-07-28T10:36:08Z</time>
      </trkpt>
      <trkpt lat="44.80995" lon="6.50586">
        <ele>1784</ele>
        <time>2010-07-28T10:36:11Z</time>
      </trkpt>
      <trkpt lat="44.80996" lon="6.50565">
        <ele>1788</ele>
        <time>2010-07-28T10:36:18Z</time>
      </trkpt>
      <trkpt lat="44.80996" lon="6.50546">
        <ele>1791</ele>
        <time>2010-07-28T10:36:24Z</time>
      </trkpt>
      <trkpt lat="44.80997" lon="6.50528">
        <ele>1789</ele>
        <time>2010-07-28T10:36:31Z</time>
      </trkpt>
      <trkpt lat="44.80997" lon="6.50513">
        <ele>1785</ele>
        <time>2010-07-28T10:36:39Z</time>
      </trkpt>
      <trkpt lat="44.80997" lon="6.50508">
        <ele>1783</ele>
        <time>2010-07-28T10:36:41Z</time>
      </trkpt>
      <trkpt lat="44.81001" lon="6.50498">
        <ele>1777</ele>
        <time>2010-07-28T10:36:47Z</time>
      </trkpt>
      <trkpt lat="44.8101" lon="6.5049">
        <ele>1778</ele>
        <time>2010-07-28T10:36:54Z</time>
      </trkpt>
      <trkpt lat="44.81012" lon="6.50485">
        <ele>1778</ele>
        <time>2010-07-28T10:37:02Z</time>
      </trkpt>
      <trkpt lat="44.81012" lon="6.50484">
        <ele>1778</ele>
        <time>2010-07-28T10:37:05Z</time>
      </trkpt>
      <trkpt lat="44.81011" lon="6.5048">
        <ele>1779</ele>
        <time>2010-07-28T10:37:08Z</time>
      </trkpt>
      <trkpt lat="44.81008" lon="6.50473">
        <ele>1779</ele>
        <time>2010-07-28T10:37:16Z</time>
      </trkpt>
      <trkpt lat="44.81006" lon="6.50474">
        <ele>1779</ele>
        <time>2010-07-28T10:37:19Z</time>
      </trkpt>
      <trkpt lat="44.81004" lon="6.50474">
        <ele>1779</ele>
        <time>2010-07-28T10:37:23Z</time>
      </trkpt>
      <trkpt lat="44.81002" lon="6.50475">
        <ele>1779</ele>
        <time>2010-07-28T10:37:31Z</time>
      </trkpt>
      <trkpt lat="44.81001" lon="6.50475">
        <ele>1779</ele>
        <time>2010-07-28T10:37:34Z</time>
      </trkpt>
      <trkpt lat="44.81001" lon="6.50475">
        <ele>1779</ele>
        <time>2010-07-28T10:37:35Z</time>
      </trkpt>
      <trkpt lat="44.81001" lon="6.50475">
        <ele>1779</ele>
        <time>2010-07-28T10:37:36Z</time>
      </trkpt>
      <trkpt lat="44.81001" lon="6.50475">
        <ele>1779</ele>
        <time>2010-07-28T10:37:38Z</time>
      </trkpt>
      <trkpt lat="44.81001" lon="6.50475">
        <ele>1779</ele>
        <time>2010-07-28T10:37:40Z</time>
      </trkpt>
      <trkpt lat="44.81" lon="6.50475">
        <ele>1779</ele>
        <time>2010-07-28T10:37:47Z</time>
      </trkpt>
      <trkpt lat="44.81001" lon="6.50475">
        <ele>1779</ele>
        <time>2010-07-28T10:37:54Z</time>
      </trkpt>
      <trkpt lat="44.81002" lon="6.50474">
        <ele>1779</ele>
        <time>2010-07-28T10:38:04Z</time>
      </trkpt>
      <trkpt lat="44.81007" lon="6.50469">
        <ele>1779</ele>
        <time>2010-07-28T10:38:18Z</time>
      </trkpt>
      <trkpt lat="44.81007" lon="6.50468">
        <ele>1779</ele>
        <time>2010-07-28T10:38:37Z</time>
      </trkpt>
      <trkpt lat="44.81006" lon="6.50469">
        <ele>1779</ele>
        <time>2010-07-28T10:38:38Z</time>
      </trkpt>
      <trkpt lat="44.81004" lon="6.50473">
        <ele>1779</ele>
        <time>2010-07-28T10:38:45Z</time>
      </trkpt>
      <trkpt lat="44.81008" lon="6.50472">
        <ele>1779</ele>
        <time>2010-07-28T10:38:55Z</time>
      </trkpt>
      <trkpt lat="44.81013" lon="6.50472">
        <ele>1779</ele>
        <time>2010-07-28T10:39:04Z</time>
      </trkpt>
      <trkpt lat="44.8102" lon="6.50468">
        <ele>1779</ele>
        <time>2010-07-28T10:39:17Z</time>
      </trkpt>
      <trkpt lat="44.8102" lon="6.50461">
        <ele>1779</ele>
        <time>2010-07-28T10:39:23Z</time>
      </trkpt>
      <trkpt lat="44.81015" lon="6.50446">
        <ele>1780</ele>
        <time>2010-07-28T10:39:29Z</time>
      </trkpt>
      <trkpt lat="44.81013" lon="6.50432">
        <ele>1780</ele>
        <time>2010-07-28T10:39:36Z</time>
      </trkpt>
      <trkpt lat="44.8101" lon="6.50421">
        <ele>1781</ele>
        <time>2010-07-28T10:39:41Z</time>
      </trkpt>
      <trkpt lat="44.81008" lon="6.50411">
        <ele>1782</ele>
        <time>2010-07-28T10:39:48Z</time>
      </trkpt>
      <trkpt lat="44.81007" lon="6.50409">
        <ele>1782</ele>
        <time>2010-07-28T10:39:55Z</time>
      </trkpt>
      <trkpt lat="44.81008" lon="6.50406">
        <ele>1781</ele>
        <time>2010-07-28T10:40:06Z</time>
      </trkpt>
      <trkpt lat="44.81013" lon="6.50399">
        <ele>1781</ele>
        <time>2010-07-28T10:40:10Z</time>
      </trkpt>
      <trkpt lat="44.81021" lon="6.50382">
        <ele>1780</ele>
        <time>2010-07-28T10:40:17Z</time>
      </trkpt>
      <trkpt lat="44.81024" lon="6.50366">
        <ele>1780</ele>
        <time>2010-07-28T10:40:24Z</time>
      </trkpt>
      <trkpt lat="44.81027" lon="6.50348">
        <ele>1780</ele>
        <time>2010-07-28T10:40:31Z</time>
      </trkpt>
      <trkpt lat="44.81029" lon="6.50333">
        <ele>1783</ele>
        <time>2010-07-28T10:40:38Z</time>
      </trkpt>
      <trkpt lat="44.8103" lon="6.50327">
        <ele>1783</ele>
        <time>2010-07-28T10:40:42Z</time>
      </trkpt>
      <trkpt lat="44.81034" lon="6.50317">
        <ele>1783</ele>
        <time>2010-07-28T10:40:49Z</time>
      </trkpt>
      <trkpt lat="44.81035" lon="6.50314">
        <ele>1783</ele>
        <time>2010-07-28T10:40:54Z</time>
      </trkpt>
      <trkpt lat="44.81036" lon="6.50311">
        <ele>1783</ele>
        <time>2010-07-28T10:41:01Z</time>
      </trkpt>
      <trkpt lat="44.81037" lon="6.50309">
        <ele>1783</ele>
        <time>2010-07-28T10:41:06Z</time>
      </trkpt>
      <trkpt lat="44.81038" lon="6.50307">
        <ele>1783</ele>
        <time>2010-07-28T10:41:14Z</time>
      </trkpt>
      <trkpt lat="44.81043" lon="6.503">
        <ele>1783</ele>
        <time>2010-07-28T10:41:25Z</time>
      </trkpt>
      <trkpt lat="44.81042" lon="6.50289">
        <ele>1784</ele>
        <time>2010-07-28T10:41:34Z</time>
      </trkpt>
      <trkpt lat="44.81038" lon="6.5028">
        <ele>1785</ele>
        <time>2010-07-28T10:41:42Z</time>
      </trkpt>
      <trkpt lat="44.81037" lon="6.50274">
        <ele>1785</ele>
        <time>2010-07-28T10:41:46Z</time>
      </trkpt>
      <trkpt lat="44.81035" lon="6.50267">
        <ele>1786</ele>
        <time>2010-07-28T10:41:51Z</time>
      </trkpt>
      <trkpt lat="44.81033" lon="6.50263">
        <ele>1786</ele>
        <time>2010-07-28T10:41:55Z</time>
      </trkpt>
      <trkpt lat="44.81032" lon="6.50259">
        <ele>1786</ele>
        <time>2010-07-28T10:42:01Z</time>
      </trkpt>
      <trkpt lat="44.81029" lon="6.50247">
        <ele>1791</ele>
        <time>2010-07-28T10:42:11Z</time>
      </trkpt>
      <trkpt lat="44.81026" lon="6.50242">
        <ele>1791</ele>
        <time>2010-07-28T10:42:16Z</time>
      </trkpt>
      <trkpt lat="44.81024" lon="6.50239">
        <ele>1791</ele>
        <time>2010-07-28T10:42:23Z</time>
      </trkpt>
      <trkpt lat="44.81023" lon="6.50237">
        <ele>1791</ele>
        <time>2010-07-28T10:42:25Z</time>
      </trkpt>
      <trkpt lat="44.81019" lon="6.5022">
        <ele>1792</ele>
        <time>2010-07-28T10:42:33Z</time>
      </trkpt>
      <trkpt lat="44.81016" lon="6.50212">
        <ele>1792</ele>
        <time>2010-07-28T10:42:37Z</time>
      </trkpt>
      <trkpt lat="44.81012" lon="6.50195">
        <ele>1793</ele>
        <time>2010-07-28T10:42:44Z</time>
      </trkpt>
      <trkpt lat="44.81008" lon="6.5019">
        <ele>1794</ele>
        <time>2010-07-28T10:42:47Z</time>
      </trkpt>
      <trkpt lat="44.80998" lon="6.50173">
        <ele>1801</ele>
        <time>2010-07-28T10:42:56Z</time>
      </trkpt>
      <trkpt lat="44.80991" lon="6.5016">
        <ele>1805</ele>
        <time>2010-07-28T10:43:04Z</time>
      </trkpt>
      <trkpt lat="44.80986" lon="6.50154">
        <ele>1807</ele>
        <time>2010-07-28T10:43:09Z</time>
      </trkpt>
      <trkpt lat="44.80981" lon="6.50144">
        <ele>1810</ele>
        <time>2010-07-28T10:43:18Z</time>
      </trkpt>
      <trkpt lat="44.80977" lon="6.50137">
        <ele>1811</ele>
        <time>2010-07-28T10:43:22Z</time>
      </trkpt>
      <trkpt lat="44.80974" lon="6.5013">
        <ele>1812</ele>
        <time>2010-07-28T10:43:26Z</time>
      </trkpt>
      <trkpt lat="44.80969" lon="6.50117">
        <ele>1813</ele>
        <time>2010-07-28T10:43:34Z</time>
      </trkpt>
      <trkpt lat="44.80965" lon="6.50107">
        <ele>1814</ele>
        <time>2010-07-28T10:43:40Z</time>
      </trkpt>
      <trkpt lat="44.80962" lon="6.50098">
        <ele>1815</ele>
        <time>2010-07-28T10:43:46Z</time>
      </trkpt>
      <trkpt lat="44.8096" lon="6.5009">
        <ele>1815</ele>
        <time>2010-07-28T10:43:51Z</time>
      </trkpt>
      <trkpt lat="44.80958" lon="6.50083">
        <ele>1816</ele>
        <time>2010-07-28T10:43:57Z</time>
      </trkpt>
      <trkpt lat="44.80953" lon="6.50074">
        <ele>1820</ele>
        <time>2010-07-28T10:44:03Z</time>
      </trkpt>
      <trkpt lat="44.80951" lon="6.50063">
        <ele>1820</ele>
        <time>2010-07-28T10:44:11Z</time>
      </trkpt>
      <trkpt lat="44.8095" lon="6.5006">
        <ele>1820</ele>
        <time>2010-07-28T10:44:13Z</time>
      </trkpt>
      <trkpt lat="44.80949" lon="6.50047">
        <ele>1821</ele>
        <time>2010-07-28T10:44:20Z</time>
      </trkpt>
      <trkpt lat="44.80949" lon="6.50045">
        <ele>1821</ele>
        <time>2010-07-28T10:44:21Z</time>
      </trkpt>
      <trkpt lat="44.80948" lon="6.50029">
        <ele>1821</ele>
        <time>2010-07-28T10:44:31Z</time>
      </trkpt>
      <trkpt lat="44.80946" lon="6.50018">
        <ele>1822</ele>
        <time>2010-07-28T10:44:37Z</time>
      </trkpt>
      <trkpt lat="44.80945" lon="6.5">
        <ele>1823</ele>
        <time>2010-07-28T10:44:44Z</time>
      </trkpt>
      <trkpt lat="44.80945" lon="6.49975">
        <ele>1825</ele>
        <time>2010-07-28T10:44:52Z</time>
      </trkpt>
      <trkpt lat="44.80946" lon="6.49947">
        <ele>1825</ele>
        <time>2010-07-28T10:45:00Z</time>
      </trkpt>
      <trkpt lat="44.80947" lon="6.49938">
        <ele>1825</ele>
        <time>2010-07-28T10:45:03Z</time>
      </trkpt>
      <trkpt lat="44.80947" lon="6.49931">
        <ele>1825</ele>
        <time>2010-07-28T10:45:08Z</time>
      </trkpt>
      <trkpt lat="44.80948" lon="6.4992">
        <ele>1826</ele>
        <time>2010-07-28T10:45:14Z</time>
      </trkpt>
      <trkpt lat="44.80949" lon="6.49918">
        <ele>1825</ele>
        <time>2010-07-28T10:45:19Z</time>
      </trkpt>
      <trkpt lat="44.80952" lon="6.49915">
        <ele>1825</ele>
        <time>2010-07-28T10:45:25Z</time>
      </trkpt>
      <trkpt lat="44.80955" lon="6.49913">
        <ele>1825</ele>
        <time>2010-07-28T10:45:27Z</time>
      </trkpt>
      <trkpt lat="44.80967" lon="6.49904">
        <ele>1823</ele>
        <time>2010-07-28T10:45:38Z</time>
      </trkpt>
      <trkpt lat="44.80972" lon="6.49901">
        <ele>1823</ele>
        <time>2010-07-28T10:45:42Z</time>
      </trkpt>
      <trkpt lat="44.80971" lon="6.49902">
        <ele>1823</ele>
        <time>2010-07-28T10:45:47Z</time>
      </trkpt>
      <trkpt lat="44.8097" lon="6.49902">
        <ele>1823</ele>
        <time>2010-07-28T10:45:54Z</time>
      </trkpt>
      <trkpt lat="44.80969" lon="6.49902">
        <ele>1823</ele>
        <time>2010-07-28T10:45:59Z</time>
      </trkpt>
      <trkpt lat="44.80965" lon="6.49905">
        <ele>1823</ele>
        <time>2010-07-28T10:46:05Z</time>
      </trkpt>
      <trkpt lat="44.8096" lon="6.49908">
        <ele>1824</ele>
        <time>2010-07-28T10:46:09Z</time>
      </trkpt>
      <trkpt lat="44.80958" lon="6.49909">
        <ele>1824</ele>
        <time>2010-07-28T10:46:13Z</time>
      </trkpt>
      <trkpt lat="44.80952" lon="6.49904">
        <ele>1825</ele>
        <time>2010-07-28T10:46:17Z</time>
      </trkpt>
      <trkpt lat="44.80947" lon="6.49887">
        <ele>1826</ele>
        <time>2010-07-28T10:46:24Z</time>
      </trkpt>
      <trkpt lat="44.80945" lon="6.49872">
        <ele>1826</ele>
        <time>2010-07-28T10:46:29Z</time>
      </trkpt>
      <trkpt lat="44.80942" lon="6.49847">
        <ele>1826</ele>
        <time>2010-07-28T10:46:38Z</time>
      </trkpt>
      <trkpt lat="44.80942" lon="6.49834">
        <ele>1827</ele>
        <time>2010-07-28T10:46:44Z</time>
      </trkpt>
      <trkpt lat="44.80942" lon="6.49822">
        <ele>1829</ele>
        <time>2010-07-28T10:46:49Z</time>
      </trkpt>
      <trkpt lat="44.80943" lon="6.49818">
        <ele>1829</ele>
        <time>2010-07-28T10:46:51Z</time>
      </trkpt>
      <trkpt lat="44.80942" lon="6.49812">
        <ele>1829</ele>
        <time>2010-07-28T10:46:55Z</time>
      </trkpt>
      <trkpt lat="44.80941" lon="6.49808">
        <ele>1829</ele>
        <time>2010-07-28T10:46:57Z</time>
      </trkpt>
      <trkpt lat="44.80941" lon="6.49804">
        <ele>1830</ele>
        <time>2010-07-28T10:47:00Z</time>
      </trkpt>
      <trkpt lat="44.80941" lon="6.49803">
        <ele>1830</ele>
        <time>2010-07-28T10:47:01Z</time>
      </trkpt>
      <trkpt lat="44.80941" lon="6.49801">
        <ele>1830</ele>
        <time>2010-07-28T10:47:02Z</time>
      </trkpt>
      <trkpt lat="44.80941" lon="6.49796">
        <ele>1830</ele>
        <time>2010-07-28T10:47:07Z</time>
      </trkpt>
      <trkpt lat="44.80943" lon="6.49794">
        <ele>1830</ele>
        <time>2010-07-28T10:47:17Z</time>
      </trkpt>
      <trkpt lat="44.80941" lon="6.49798">
        <ele>1830</ele>
        <time>2010-07-28T10:47:29Z</time>
      </trkpt>
      <trkpt lat="44.8094" lon="6.49799">
        <ele>1830</ele>
        <time>2010-07-28T10:47:34Z</time>
      </trkpt>
      <trkpt lat="44.80939" lon="6.498">
        <ele>1830</ele>
        <time>2010-07-28T10:47:40Z</time>
      </trkpt>
      <trkpt lat="44.80942" lon="6.49799">
        <ele>1830</ele>
        <time>2010-07-28T10:47:45Z</time>
      </trkpt>
      <trkpt lat="44.80944" lon="6.49799">
        <ele>1830</ele>
        <time>2010-07-28T10:47:50Z</time>
      </trkpt>
      <trkpt lat="44.80946" lon="6.49799">
        <ele>1829</ele>
        <time>2010-07-28T10:47:59Z</time>
      </trkpt>
      <trkpt lat="44.80942" lon="6.49794">
        <ele>1830</ele>
        <time>2010-07-28T10:48:12Z</time>
      </trkpt>
      <trkpt lat="44.80939" lon="6.4979">
        <ele>1831</ele>
        <time>2010-07-28T10:48:20Z</time>
      </trkpt>
      <trkpt lat="44.80937" lon="6.49791">
        <ele>1831</ele>
        <time>2010-07-28T10:48:28Z</time>
      </trkpt>
      <trkpt lat="44.80933" lon="6.49788">
        <ele>1831</ele>
        <time>2010-07-28T10:48:44Z</time>
      </trkpt>
      <trkpt lat="44.80933" lon="6.49787">
        <ele>1831</ele>
        <time>2010-07-28T10:49:01Z</time>
      </trkpt>
      <trkpt lat="44.80932" lon="6.49784">
        <ele>1832</ele>
        <time>2010-07-28T10:49:14Z</time>
      </trkpt>
      <trkpt lat="44.80931" lon="6.49787">
        <ele>1831</ele>
        <time>2010-07-28T10:49:22Z</time>
      </trkpt>
      <trkpt lat="44.8093" lon="6.49787">
        <ele>1831</ele>
        <time>2010-07-28T10:49:36Z</time>
      </trkpt>
      <trkpt lat="44.8093" lon="6.49787">
        <ele>1831</ele>
        <time>2010-07-28T10:49:43Z</time>
      </trkpt>
      <trkpt lat="44.80933" lon="6.49784">
        <ele>1832</ele>
        <time>2010-07-28T10:49:52Z</time>
      </trkpt>
      <trkpt lat="44.80933" lon="6.49778">
        <ele>1832</ele>
        <time>2010-07-28T10:49:55Z</time>
      </trkpt>
      <trkpt lat="44.80932" lon="6.49764">
        <ele>1834</ele>
        <time>2010-07-28T10:50:02Z</time>
      </trkpt>
      <trkpt lat="44.80931" lon="6.49756">
        <ele>1835</ele>
        <time>2010-07-28T10:50:07Z</time>
      </trkpt>
      <trkpt lat="44.80929" lon="6.49751">
        <ele>1836</ele>
        <time>2010-07-28T10:50:10Z</time>
      </trkpt>
      <trkpt lat="44.80928" lon="6.49746">
        <ele>1841</ele>
        <time>2010-07-28T10:50:13Z</time>
      </trkpt>
      <trkpt lat="44.80927" lon="6.49743">
        <ele>1841</ele>
        <time>2010-07-28T10:50:16Z</time>
      </trkpt>
      <trkpt lat="44.80927" lon="6.49741">
        <ele>1841</ele>
        <time>2010-07-28T10:50:17Z</time>
      </trkpt>
      <trkpt lat="44.80927" lon="6.49737">
        <ele>1841</ele>
        <time>2010-07-28T10:50:20Z</time>
      </trkpt>
      <trkpt lat="44.80926" lon="6.49735">
        <ele>1842</ele>
        <time>2010-07-28T10:50:21Z</time>
      </trkpt>
      <trkpt lat="44.80926" lon="6.49734">
        <ele>1842</ele>
        <time>2010-07-28T10:50:22Z</time>
      </trkpt>
      <trkpt lat="44.80926" lon="6.49727">
        <ele>1842</ele>
        <time>2010-07-28T10:50:26Z</time>
      </trkpt>
      <trkpt lat="44.80922" lon="6.49718">
        <ele>1843</ele>
        <time>2010-07-28T10:50:32Z</time>
      </trkpt>
      <trkpt lat="44.80919" lon="6.49713">
        <ele>1844</ele>
        <time>2010-07-28T10:50:36Z</time>
      </trkpt>
      <trkpt lat="44.80921" lon="6.49706">
        <ele>1845</ele>
        <time>2010-07-28T10:50:41Z</time>
      </trkpt>
      <trkpt lat="44.80919" lon="6.49693">
        <ele>1847</ele>
        <time>2010-07-28T10:50:48Z</time>
      </trkpt>
      <trkpt lat="44.80913" lon="6.49677">
        <ele>1858</ele>
        <time>2010-07-28T10:50:58Z</time>
      </trkpt>
      <trkpt lat="44.80906" lon="6.49664">
        <ele>1860</ele>
        <time>2010-07-28T10:51:06Z</time>
      </trkpt>
      <trkpt lat="44.809" lon="6.49654">
        <ele>1863</ele>
        <time>2010-07-28T10:51:12Z</time>
      </trkpt>
      <trkpt lat="44.80901" lon="6.49643">
        <ele>1864</ele>
        <time>2010-07-28T10:51:18Z</time>
      </trkpt>
      <trkpt lat="44.80902" lon="6.4963">
        <ele>1865</ele>
        <time>2010-07-28T10:51:25Z</time>
      </trkpt>
      <trkpt lat="44.80906" lon="6.49616">
        <ele>1865</ele>
        <time>2010-07-28T10:51:33Z</time>
      </trkpt>
      <trkpt lat="44.80903" lon="6.49603">
        <ele>1865</ele>
        <time>2010-07-28T10:51:40Z</time>
      </trkpt>
      <trkpt lat="44.80896" lon="6.49592">
        <ele>1866</ele>
        <time>2010-07-28T10:51:47Z</time>
      </trkpt>
      <trkpt lat="44.80897" lon="6.4959">
        <ele>1866</ele>
        <time>2010-07-28T10:51:54Z</time>
      </trkpt>
      <trkpt lat="44.80901" lon="6.49585">
        <ele>1865</ele>
        <time>2010-07-28T10:52:06Z</time>
      </trkpt>
      <trkpt lat="44.80907" lon="6.49581">
        <ele>1865</ele>
        <time>2010-07-28T10:52:13Z</time>
      </trkpt>
      <trkpt lat="44.80909" lon="6.49579">
        <ele>1865</ele>
        <time>2010-07-28T10:52:17Z</time>
      </trkpt>
      <trkpt lat="44.8091" lon="6.49576">
        <ele>1865</ele>
        <time>2010-07-28T10:52:23Z</time>
      </trkpt>
      <trkpt lat="44.80913" lon="6.49575">
        <ele>1865</ele>
        <time>2010-07-28T10:52:30Z</time>
      </trkpt>
      <trkpt lat="44.80914" lon="6.4957">
        <ele>1866</ele>
        <time>2010-07-28T10:52:34Z</time>
      </trkpt>
      <trkpt lat="44.80914" lon="6.49565">
        <ele>1866</ele>
        <time>2010-07-28T10:52:39Z</time>
      </trkpt>
      <trkpt lat="44.80914" lon="6.49565">
        <ele>1866</ele>
        <time>2010-07-28T10:52:48Z</time>
      </trkpt>
      <trkpt lat="44.80918" lon="6.49564">
        <ele>1864</ele>
        <time>2010-07-28T10:52:55Z</time>
      </trkpt>
      <trkpt lat="44.80919" lon="6.49564">
        <ele>1864</ele>
        <time>2010-07-28T10:53:03Z</time>
      </trkpt>
      <trkpt lat="44.80918" lon="6.49565">
        <ele>1864</ele>
        <time>2010-07-28T10:53:06Z</time>
      </trkpt>
      <trkpt lat="44.80918" lon="6.49565">
        <ele>1864</ele>
        <time>2010-07-28T10:53:13Z</time>
      </trkpt>
      <trkpt lat="44.80919" lon="6.49564">
        <ele>1864</ele>
        <time>2010-07-28T10:53:19Z</time>
      </trkpt>
      <trkpt lat="44.8092" lon="6.49563">
        <ele>1864</ele>
        <time>2010-07-28T10:53:22Z</time>
      </trkpt>
      <trkpt lat="44.80915" lon="6.49564">
        <ele>1866</ele>
        <time>2010-07-28T10:53:31Z</time>
      </trkpt>
      <trkpt lat="44.80914" lon="6.49565">
        <ele>1866</ele>
        <time>2010-07-28T10:53:33Z</time>
      </trkpt>
      <trkpt lat="44.80913" lon="6.49565">
        <ele>1866</ele>
        <time>2010-07-28T10:53:34Z</time>
      </trkpt>
      <trkpt lat="44.80911" lon="6.49564">
        <ele>1866</ele>
        <time>2010-07-28T10:53:36Z</time>
      </trkpt>
      <trkpt lat="44.80901" lon="6.49561">
        <ele>1867</ele>
        <time>2010-07-28T10:53:41Z</time>
      </trkpt>
      <trkpt lat="44.80885" lon="6.49543">
        <ele>1869</ele>
        <time>2010-07-28T10:53:51Z</time>
      </trkpt>
      <trkpt lat="44.80872" lon="6.49521">
        <ele>1870</ele>
        <time>2010-07-28T10:54:00Z</time>
      </trkpt>
      <trkpt lat="44.80868" lon="6.49512">
        <ele>1871</ele>
        <time>2010-07-28T10:54:05Z</time>
      </trkpt>
      <trkpt lat="44.80866" lon="6.49505">
        <ele>1871</ele>
        <time>2010-07-28T10:54:09Z</time>
      </trkpt>
      <trkpt lat="44.80865" lon="6.495">
        <ele>1876</ele>
        <time>2010-07-28T10:54:12Z</time>
      </trkpt>
      <trkpt lat="44.80866" lon="6.49492">
        <ele>1876</ele>
        <time>2010-07-28T10:54:17Z</time>
      </trkpt>
      <trkpt lat="44.80866" lon="6.49486">
        <ele>1876</ele>
        <time>2010-07-28T10:54:20Z</time>
      </trkpt>
      <trkpt lat="44.80865" lon="6.49481">
        <ele>1876</ele>
        <time>2010-07-28T10:54:23Z</time>
      </trkpt>
      <trkpt lat="44.80864" lon="6.49473">
        <ele>1877</ele>
        <time>2010-07-28T10:54:28Z</time>
      </trkpt>
      <trkpt lat="44.80863" lon="6.49471">
        <ele>1877</ele>
        <time>2010-07-28T10:54:34Z</time>
      </trkpt>
      <trkpt lat="44.80861" lon="6.4947">
        <ele>1877</ele>
        <time>2010-07-28T10:54:44Z</time>
      </trkpt>
      <trkpt lat="44.80859" lon="6.4947">
        <ele>1878</ele>
        <time>2010-07-28T10:54:53Z</time>
      </trkpt>
      <trkpt lat="44.80855" lon="6.4946">
        <ele>1879</ele>
        <time>2010-07-28T10:55:01Z</time>
      </trkpt>
      <trkpt lat="44.80855" lon="6.49461">
        <ele>1879</ele>
        <time>2010-07-28T10:55:08Z</time>
      </trkpt>
      <trkpt lat="44.80856" lon="6.49461">
        <ele>1878</ele>
        <time>2010-07-28T10:55:24Z</time>
      </trkpt>
      <trkpt lat="44.80854" lon="6.49452">
        <ele>1880</ele>
        <time>2010-07-28T10:55:33Z</time>
      </trkpt>
      <trkpt lat="44.80853" lon="6.49452">
        <ele>1880</ele>
        <time>2010-07-28T10:55:39Z</time>
      </trkpt>
      <trkpt lat="44.80851" lon="6.49447">
        <ele>1880</ele>
        <time>2010-07-28T10:55:46Z</time>
      </trkpt>
      <trkpt lat="44.80848" lon="6.49437">
        <ele>1882</ele>
        <time>2010-07-28T10:55:50Z</time>
      </trkpt>
      <trkpt lat="44.80848" lon="6.49433">
        <ele>1883</ele>
        <time>2010-07-28T10:55:57Z</time>
      </trkpt>
      <trkpt lat="44.80847" lon="6.49432">
        <ele>1883</ele>
        <time>2010-07-28T10:56:03Z</time>
      </trkpt>
      <trkpt lat="44.80846" lon="6.4943">
        <ele>1884</ele>
        <time>2010-07-28T10:56:12Z</time>
      </trkpt>
      <trkpt lat="44.80844" lon="6.49429">
        <ele>1884</ele>
        <time>2010-07-28T10:56:22Z</time>
      </trkpt>
      <trkpt lat="44.8085" lon="6.4943">
        <ele>1883</ele>
        <time>2010-07-28T10:56:34Z</time>
      </trkpt>
      <trkpt lat="44.80851" lon="6.4943">
        <ele>1883</ele>
        <time>2010-07-28T10:56:37Z</time>
      </trkpt>
      <trkpt lat="44.80852" lon="6.4943">
        <ele>1883</ele>
        <time>2010-07-28T10:56:38Z</time>
      </trkpt>
      <trkpt lat="44.80844" lon="6.49439">
        <ele>1882</ele>
        <time>2010-07-28T10:56:52Z</time>
      </trkpt>
      <trkpt lat="44.8084" lon="6.49437">
        <ele>1883</ele>
        <time>2010-07-28T10:56:58Z</time>
      </trkpt>
      <trkpt lat="44.80833" lon="6.49432">
        <ele>1894</ele>
        <time>2010-07-28T10:57:05Z</time>
      </trkpt>
      <trkpt lat="44.8083" lon="6.4943">
        <ele>1894</ele>
        <time>2010-07-28T10:57:08Z</time>
      </trkpt>
      <trkpt lat="44.8082" lon="6.49422">
        <ele>1895</ele>
        <time>2010-07-28T10:57:16Z</time>
      </trkpt>
      <trkpt lat="44.80813" lon="6.49413">
        <ele>1902</ele>
        <time>2010-07-28T10:57:22Z</time>
      </trkpt>
      <trkpt lat="44.80807" lon="6.49404">
        <ele>1904</ele>
        <time>2010-07-28T10:57:28Z</time>
      </trkpt>
      <trkpt lat="44.808" lon="6.49398">
        <ele>1907</ele>
        <time>2010-07-28T10:57:33Z</time>
      </trkpt>
      <trkpt lat="44.80796" lon="6.49391">
        <ele>1908</ele>
        <time>2010-07-28T10:57:38Z</time>
      </trkpt>
      <trkpt lat="44.80791" lon="6.49382">
        <ele>1909</ele>
        <time>2010-07-28T10:57:43Z</time>
      </trkpt>
      <trkpt lat="44.80789" lon="6.49373">
        <ele>1910</ele>
        <time>2010-07-28T10:57:47Z</time>
      </trkpt>
      <trkpt lat="44.80788" lon="6.49369">
        <ele>1910</ele>
        <time>2010-07-28T10:57:49Z</time>
      </trkpt>
      <trkpt lat="44.80786" lon="6.49357">
        <ele>1911</ele>
        <time>2010-07-28T10:57:55Z</time>
      </trkpt>
      <trkpt lat="44.80778" lon="6.49349">
        <ele>1912</ele>
        <time>2010-07-28T10:58:03Z</time>
      </trkpt>
      <trkpt lat="44.80775" lon="6.49343">
        <ele>1913</ele>
        <time>2010-07-28T10:58:07Z</time>
      </trkpt>
      <trkpt lat="44.80763" lon="6.49336">
        <ele>1916</ele>
        <time>2010-07-28T10:58:15Z</time>
      </trkpt>
      <trkpt lat="44.80757" lon="6.49326">
        <ele>1920</ele>
        <time>2010-07-28T10:58:22Z</time>
      </trkpt>
      <trkpt lat="44.80746" lon="6.49321">
        <ele>1928</ele>
        <time>2010-07-28T10:58:30Z</time>
      </trkpt>
      <trkpt lat="44.80737" lon="6.49318">
        <ele>1932</ele>
        <time>2010-07-28T10:58:39Z</time>
      </trkpt>
      <trkpt lat="44.80729" lon="6.49315">
        <ele>1934</ele>
        <time>2010-07-28T10:58:45Z</time>
      </trkpt>
      <trkpt lat="44.80726" lon="6.49306">
        <ele>1936</ele>
        <time>2010-07-28T10:58:52Z</time>
      </trkpt>
      <trkpt lat="44.80721" lon="6.49294">
        <ele>1937</ele>
        <time>2010-07-28T10:58:59Z</time>
      </trkpt>
      <trkpt lat="44.80712" lon="6.49286">
        <ele>1939</ele>
        <time>2010-07-28T10:59:06Z</time>
      </trkpt>
      <trkpt lat="44.80706" lon="6.4928">
        <ele>1940</ele>
        <time>2010-07-28T10:59:12Z</time>
      </trkpt>
      <trkpt lat="44.80707" lon="6.4927">
        <ele>1940</ele>
        <time>2010-07-28T10:59:20Z</time>
      </trkpt>
      <trkpt lat="44.80708" lon="6.49267">
        <ele>1940</ele>
        <time>2010-07-28T10:59:26Z</time>
      </trkpt>
      <trkpt lat="44.80711" lon="6.49265">
        <ele>1939</ele>
        <time>2010-07-28T10:59:36Z</time>
      </trkpt>
      <trkpt lat="44.80713" lon="6.49264">
        <ele>1939</ele>
        <time>2010-07-28T10:59:45Z</time>
      </trkpt>
      <trkpt lat="44.80715" lon="6.49266">
        <ele>1939</ele>
        <time>2010-07-28T10:59:52Z</time>
      </trkpt>
      <trkpt lat="44.80715" lon="6.49266">
        <ele>1938</ele>
        <time>2010-07-28T10:59:57Z</time>
      </trkpt>
      <trkpt lat="44.80716" lon="6.49266">
        <ele>1938</ele>
        <time>2010-07-28T11:00:04Z</time>
      </trkpt>
      <trkpt lat="44.80718" lon="6.49266">
        <ele>1938</ele>
        <time>2010-07-28T11:00:13Z</time>
      </trkpt>
      <trkpt lat="44.80715" lon="6.49265">
        <ele>1938</ele>
        <time>2010-07-28T11:00:21Z</time>
      </trkpt>
      <trkpt lat="44.80713" lon="6.49262">
        <ele>1939</ele>
        <time>2010-07-28T11:00:30Z</time>
      </trkpt>
      <trkpt lat="44.80714" lon="6.4926">
        <ele>1939</ele>
        <time>2010-07-28T11:00:51Z</time>
      </trkpt>
      <trkpt lat="44.80713" lon="6.4925">
        <ele>1939</ele>
        <time>2010-07-28T11:00:56Z</time>
      </trkpt>
      <trkpt lat="44.80708" lon="6.49237">
        <ele>1939</ele>
        <time>2010-07-28T11:01:02Z</time>
      </trkpt>
      <trkpt lat="44.807" lon="6.49222">
        <ele>1940</ele>
        <time>2010-07-28T11:01:08Z</time>
      </trkpt>
      <trkpt lat="44.80694" lon="6.49218">
        <ele>1941</ele>
        <time>2010-07-28T11:01:12Z</time>
      </trkpt>
      <trkpt lat="44.80688" lon="6.4921">
        <ele>1941</ele>
        <time>2010-07-28T11:01:19Z</time>
      </trkpt>
      <trkpt lat="44.80688" lon="6.49209">
        <ele>1941</ele>
        <time>2010-07-28T11:01:21Z</time>
      </trkpt>
      <trkpt lat="44.80688" lon="6.49201">
        <ele>1941</ele>
        <time>2010-07-28T11:01:25Z</time>
      </trkpt>
      <trkpt lat="44.80691" lon="6.49186">
        <ele>1940</ele>
        <time>2010-07-28T11:01:31Z</time>
      </trkpt>
      <trkpt lat="44.80696" lon="6.49173">
        <ele>1940</ele>
        <time>2010-07-28T11:01:37Z</time>
      </trkpt>
      <trkpt lat="44.80697" lon="6.49159">
        <ele>1939</ele>
        <time>2010-07-28T11:01:45Z</time>
      </trkpt>
      <trkpt lat="44.80697" lon="6.49147">
        <ele>1938</ele>
        <time>2010-07-28T11:01:53Z</time>
      </trkpt>
      <trkpt lat="44.80696" lon="6.49126">
        <ele>1938</ele>
        <time>2010-07-28T11:02:02Z</time>
      </trkpt>
      <trkpt lat="44.80694" lon="6.49104">
        <ele>1939</ele>
        <time>2010-07-28T11:02:11Z</time>
      </trkpt>
      <trkpt lat="44.80693" lon="6.49082">
        <ele>1940</ele>
        <time>2010-07-28T11:02:18Z</time>
      </trkpt>
      <trkpt lat="44.8069" lon="6.49071">
        <ele>1941</ele>
        <time>2010-07-28T11:02:24Z</time>
      </trkpt>
      <trkpt lat="44.80689" lon="6.49067">
        <ele>1941</ele>
        <time>2010-07-28T11:02:28Z</time>
      </trkpt>
      <trkpt lat="44.8069" lon="6.49067">
        <ele>1940</ele>
        <time>2010-07-28T11:02:35Z</time>
      </trkpt>
      <trkpt lat="44.8069" lon="6.49068">
        <ele>1940</ele>
        <time>2010-07-28T11:02:44Z</time>
      </trkpt>
      <trkpt lat="44.80694" lon="6.49066">
        <ele>1940</ele>
        <time>2010-07-28T11:02:52Z</time>
      </trkpt>
      <trkpt lat="44.807" lon="6.49055">
        <ele>1939</ele>
        <time>2010-07-28T11:02:57Z</time>
      </trkpt>
      <trkpt lat="44.80701" lon="6.49049">
        <ele>1939</ele>
        <time>2010-07-28T11:03:03Z</time>
      </trkpt>
      <trkpt lat="44.80699" lon="6.49051">
        <ele>1940</ele>
        <time>2010-07-28T11:03:23Z</time>
      </trkpt>
      <trkpt lat="44.80689" lon="6.49042">
        <ele>1941</ele>
        <time>2010-07-28T11:04:33Z</time>
      </trkpt>
      <trkpt lat="44.80691" lon="6.49041">
        <ele>1940</ele>
        <time>2010-07-28T11:04:50Z</time>
      </trkpt>
      <trkpt lat="44.80691" lon="6.49034">
        <ele>1941</ele>
        <time>2010-07-28T11:04:59Z</time>
      </trkpt>
      <trkpt lat="44.80696" lon="6.49024">
        <ele>1941</ele>
        <time>2010-07-28T11:05:04Z</time>
      </trkpt>
      <trkpt lat="44.80697" lon="6.49022">
        <ele>1940</ele>
        <time>2010-07-28T11:05:05Z</time>
      </trkpt>
      <trkpt lat="44.80708" lon="6.49019">
        <ele>1939</ele>
        <time>2010-07-28T11:05:10Z</time>
      </trkpt>
      <trkpt lat="44.8072" lon="6.49019">
        <ele>1938</ele>
        <time>2010-07-28T11:05:15Z</time>
      </trkpt>
      <trkpt lat="44.8073" lon="6.49014">
        <ele>1936</ele>
        <time>2010-07-28T11:05:20Z</time>
      </trkpt>
      <trkpt lat="44.80734" lon="6.49009">
        <ele>1936</ele>
        <time>2010-07-28T11:05:22Z</time>
      </trkpt>
      <trkpt lat="44.80753" lon="6.49012">
        <ele>1928</ele>
        <time>2010-07-28T11:05:27Z</time>
      </trkpt>
      <trkpt lat="44.80762" lon="6.4901">
        <ele>1927</ele>
        <time>2010-07-28T11:05:30Z</time>
      </trkpt>
      <trkpt lat="44.80764" lon="6.49001">
        <ele>1927</ele>
        <time>2010-07-28T11:05:33Z</time>
      </trkpt>
      <trkpt lat="44.80764" lon="6.48994">
        <ele>1929</ele>
        <time>2010-07-28T11:05:35Z</time>
      </trkpt>
      <trkpt lat="44.8077" lon="6.48988">
        <ele>1928</ele>
        <time>2010-07-28T11:05:39Z</time>
      </trkpt>
      <trkpt lat="44.80781" lon="6.48981">
        <ele>1926</ele>
        <time>2010-07-28T11:05:43Z</time>
      </trkpt>
      <trkpt lat="44.80788" lon="6.48983">
        <ele>1926</ele>
        <time>2010-07-28T11:05:44Z</time>
      </trkpt>
      <trkpt lat="44.80802" lon="6.48984">
        <ele>1923</ele>
        <time>2010-07-28T11:05:46Z</time>
      </trkpt>
      <trkpt lat="44.80829" lon="6.48977">
        <ele>1921</ele>
        <time>2010-07-28T11:05:50Z</time>
      </trkpt>
      <trkpt lat="44.80844" lon="6.48972">
        <ele>1911</ele>
        <time>2010-07-28T11:05:53Z</time>
      </trkpt>
      <trkpt lat="44.80863" lon="6.48966">
        <ele>1910</ele>
        <time>2010-07-28T11:05:57Z</time>
      </trkpt>
      <trkpt lat="44.80874" lon="6.4895">
        <ele>1909</ele>
        <time>2010-07-28T11:06:01Z</time>
      </trkpt>
      <trkpt lat="44.80882" lon="6.4893">
        <ele>1908</ele>
        <time>2010-07-28T11:06:04Z</time>
      </trkpt>
      <trkpt lat="44.80892" lon="6.48915">
        <ele>1909</ele>
        <time>2010-07-28T11:06:07Z</time>
      </trkpt>
      <trkpt lat="44.80893" lon="6.48913">
        <ele>1909</ele>
        <time>2010-07-28T11:06:08Z</time>
      </trkpt>
      <trkpt lat="44.80899" lon="6.48888">
        <ele>1911</ele>
        <time>2010-07-28T11:06:16Z</time>
      </trkpt>
      <trkpt lat="44.80911" lon="6.48869">
        <ele>1911</ele>
        <time>2010-07-28T11:06:22Z</time>
      </trkpt>
      <trkpt lat="44.8092" lon="6.48851">
        <ele>1899</ele>
        <time>2010-07-28T11:06:26Z</time>
      </trkpt>
      <trkpt lat="44.80932" lon="6.48841">
        <ele>1899</ele>
        <time>2010-07-28T11:06:30Z</time>
      </trkpt>
      <trkpt lat="44.80946" lon="6.48839">
        <ele>1895</ele>
        <time>2010-07-28T11:06:35Z</time>
      </trkpt>
      <trkpt lat="44.80961" lon="6.48839">
        <ele>1892</ele>
        <time>2010-07-28T11:06:39Z</time>
      </trkpt>
      <trkpt lat="44.80979" lon="6.48839">
        <ele>1888</ele>
        <time>2010-07-28T11:06:43Z</time>
      </trkpt>
      <trkpt lat="44.81003" lon="6.48839">
        <ele>1880</ele>
        <time>2010-07-28T11:06:48Z</time>
      </trkpt>
      <trkpt lat="44.81013" lon="6.48837">
        <ele>1877</ele>
        <time>2010-07-28T11:06:50Z</time>
      </trkpt>
      <trkpt lat="44.81027" lon="6.48823">
        <ele>1880</ele>
        <time>2010-07-28T11:06:55Z</time>
      </trkpt>
      <trkpt lat="44.81027" lon="6.48814">
        <ele>1880</ele>
        <time>2010-07-28T11:07:00Z</time>
      </trkpt>
      <trkpt lat="44.81029" lon="6.48805">
        <ele>1880</ele>
        <time>2010-07-28T11:07:06Z</time>
      </trkpt>
      <trkpt lat="44.81031" lon="6.4879">
        <ele>1880</ele>
        <time>2010-07-28T11:07:12Z</time>
      </trkpt>
      <trkpt lat="44.81033" lon="6.48779">
        <ele>1881</ele>
        <time>2010-07-28T11:07:17Z</time>
      </trkpt>
      <trkpt lat="44.81033" lon="6.48776">
        <ele>1881</ele>
        <time>2010-07-28T11:07:19Z</time>
      </trkpt>
      <trkpt lat="44.81035" lon="6.48775">
        <ele>1881</ele>
        <time>2010-07-28T11:07:25Z</time>
      </trkpt>
      <trkpt lat="44.81032" lon="6.48776">
        <ele>1881</ele>
        <time>2010-07-28T11:07:32Z</time>
      </trkpt>
      <trkpt lat="44.81032" lon="6.48772">
        <ele>1882</ele>
        <time>2010-07-28T11:07:35Z</time>
      </trkpt>
      <trkpt lat="44.81033" lon="6.48759">
        <ele>1882</ele>
        <time>2010-07-28T11:07:43Z</time>
      </trkpt>
      <trkpt lat="44.8103" lon="6.48749">
        <ele>1888</ele>
        <time>2010-07-28T11:07:51Z</time>
      </trkpt>
      <trkpt lat="44.81026" lon="6.48734">
        <ele>1888</ele>
        <time>2010-07-28T11:07:59Z</time>
      </trkpt>
      <trkpt lat="44.81021" lon="6.48723">
        <ele>1888</ele>
        <time>2010-07-28T11:08:07Z</time>
      </trkpt>
      <trkpt lat="44.81014" lon="6.48706">
        <ele>1889</ele>
        <time>2010-07-28T11:08:16Z</time>
      </trkpt>
      <trkpt lat="44.81011" lon="6.48687">
        <ele>1891</ele>
        <time>2010-07-28T11:08:24Z</time>
      </trkpt>
      <trkpt lat="44.81009" lon="6.4867">
        <ele>1893</ele>
        <time>2010-07-28T11:08:31Z</time>
      </trkpt>
      <trkpt lat="44.81011" lon="6.48652">
        <ele>1895</ele>
        <time>2010-07-28T11:08:39Z</time>
      </trkpt>
      <trkpt lat="44.81013" lon="6.48642">
        <ele>1895</ele>
        <time>2010-07-28T11:08:45Z</time>
      </trkpt>
      <trkpt lat="44.81017" lon="6.48631">
        <ele>1895</ele>
        <time>2010-07-28T11:08:51Z</time>
      </trkpt>
      <trkpt lat="44.81019" lon="6.48619">
        <ele>1896</ele>
        <time>2010-07-28T11:08:57Z</time>
      </trkpt>
      <trkpt lat="44.81016" lon="6.4861">
        <ele>1897</ele>
        <time>2010-07-28T11:09:01Z</time>
      </trkpt>
      <trkpt lat="44.81018" lon="6.48597">
        <ele>1898</ele>
        <time>2010-07-28T11:09:08Z</time>
      </trkpt>
      <trkpt lat="44.81018" lon="6.48595">
        <ele>1898</ele>
        <time>2010-07-28T11:09:09Z</time>
      </trkpt>
      <trkpt lat="44.81013" lon="6.48579">
        <ele>1904</ele>
        <time>2010-07-28T11:09:17Z</time>
      </trkpt>
      <trkpt lat="44.81006" lon="6.48569">
        <ele>1904</ele>
        <time>2010-07-28T11:09:25Z</time>
      </trkpt>
      <trkpt lat="44.81" lon="6.48561">
        <ele>1915</ele>
        <time>2010-07-28T11:09:33Z</time>
      </trkpt>
      <trkpt lat="44.80995" lon="6.48553">
        <ele>1917</ele>
        <time>2010-07-28T11:09:41Z</time>
      </trkpt>
      <trkpt lat="44.80993" lon="6.48544">
        <ele>1919</ele>
        <time>2010-07-28T11:09:48Z</time>
      </trkpt>
      <trkpt lat="44.80994" lon="6.48542">
        <ele>1919</ele>
        <time>2010-07-28T11:09:49Z</time>
      </trkpt>
      <trkpt lat="44.80995" lon="6.48536">
        <ele>1920</ele>
        <time>2010-07-28T11:09:53Z</time>
      </trkpt>
      <trkpt lat="44.80995" lon="6.48522">
        <ele>1921</ele>
        <time>2010-07-28T11:10:02Z</time>
      </trkpt>
      <trkpt lat="44.80998" lon="6.48511">
        <ele>1921</ele>
        <time>2010-07-28T11:10:09Z</time>
      </trkpt>
      <trkpt lat="44.81001" lon="6.48504">
        <ele>1917</ele>
        <time>2010-07-28T11:10:16Z</time>
      </trkpt>
      <trkpt lat="44.81002" lon="6.48499">
        <ele>1919</ele>
        <time>2010-07-28T11:10:19Z</time>
      </trkpt>
      <trkpt lat="44.81008" lon="6.48485">
        <ele>1917</ele>
        <time>2010-07-28T11:10:26Z</time>
      </trkpt>
      <trkpt lat="44.81014" lon="6.48476">
        <ele>1916</ele>
        <time>2010-07-28T11:10:32Z</time>
      </trkpt>
      <trkpt lat="44.81016" lon="6.48468">
        <ele>1915</ele>
        <time>2010-07-28T11:10:37Z</time>
      </trkpt>
      <trkpt lat="44.8102" lon="6.48453">
        <ele>1916</ele>
        <time>2010-07-28T11:10:43Z</time>
      </trkpt>
      <trkpt lat="44.81023" lon="6.48439">
        <ele>1917</ele>
        <time>2010-07-28T11:10:49Z</time>
      </trkpt>
      <trkpt lat="44.81027" lon="6.48426">
        <ele>1917</ele>
        <time>2010-07-28T11:10:55Z</time>
      </trkpt>
      <trkpt lat="44.81031" lon="6.48418">
        <ele>1917</ele>
        <time>2010-07-28T11:11:00Z</time>
      </trkpt>
      <trkpt lat="44.81033" lon="6.48412">
        <ele>1919</ele>
        <time>2010-07-28T11:11:04Z</time>
      </trkpt>
      <trkpt lat="44.81033" lon="6.48402">
        <ele>1919</ele>
        <time>2010-07-28T11:11:09Z</time>
      </trkpt>
      <trkpt lat="44.81031" lon="6.48395">
        <ele>1919</ele>
        <time>2010-07-28T11:11:18Z</time>
      </trkpt>
      <trkpt lat="44.8103" lon="6.48385">
        <ele>1919</ele>
        <time>2010-07-28T11:11:25Z</time>
      </trkpt>
      <trkpt lat="44.8103" lon="6.48373">
        <ele>1919</ele>
        <time>2010-07-28T11:11:31Z</time>
      </trkpt>
      <trkpt lat="44.81028" lon="6.48354">
        <ele>1920</ele>
        <time>2010-07-28T11:11:38Z</time>
      </trkpt>
      <trkpt lat="44.81027" lon="6.48351">
        <ele>1921</ele>
        <time>2010-07-28T11:11:40Z</time>
      </trkpt>
      <trkpt lat="44.81029" lon="6.48334">
        <ele>1921</ele>
        <time>2010-07-28T11:11:47Z</time>
      </trkpt>
      <trkpt lat="44.81029" lon="6.48321">
        <ele>1921</ele>
        <time>2010-07-28T11:11:52Z</time>
      </trkpt>
      <trkpt lat="44.81029" lon="6.48306">
        <ele>1920</ele>
        <time>2010-07-28T11:11:59Z</time>
      </trkpt>
      <trkpt lat="44.81034" lon="6.48293">
        <ele>1919</ele>
        <time>2010-07-28T11:12:05Z</time>
      </trkpt>
      <trkpt lat="44.81031" lon="6.48279">
        <ele>1920</ele>
        <time>2010-07-28T11:12:11Z</time>
      </trkpt>
      <trkpt lat="44.81029" lon="6.48275">
        <ele>1920</ele>
        <time>2010-07-28T11:12:13Z</time>
      </trkpt>
      <trkpt lat="44.81021" lon="6.48258">
        <ele>1923</ele>
        <time>2010-07-28T11:12:20Z</time>
      </trkpt>
      <trkpt lat="44.8102" lon="6.48256">
        <ele>1923</ele>
        <time>2010-07-28T11:12:21Z</time>
      </trkpt>
      <trkpt lat="44.81021" lon="6.48249">
        <ele>1924</ele>
        <time>2010-07-28T11:12:25Z</time>
      </trkpt>
      <trkpt lat="44.8102" lon="6.48244">
        <ele>1924</ele>
        <time>2010-07-28T11:12:32Z</time>
      </trkpt>
      <trkpt lat="44.81019" lon="6.48243">
        <ele>1925</ele>
        <time>2010-07-28T11:12:37Z</time>
      </trkpt>
      <trkpt lat="44.81018" lon="6.48242">
        <ele>1925</ele>
        <time>2010-07-28T11:12:38Z</time>
      </trkpt>
      <trkpt lat="44.81012" lon="6.48232">
        <ele>1925</ele>
        <time>2010-07-28T11:12:44Z</time>
      </trkpt>
      <trkpt lat="44.8101" lon="6.48229">
        <ele>1925</ele>
        <time>2010-07-28T11:12:46Z</time>
      </trkpt>
      <trkpt lat="44.81007" lon="6.48221">
        <ele>1925</ele>
        <time>2010-07-28T11:12:52Z</time>
      </trkpt>
      <trkpt lat="44.81007" lon="6.4822">
        <ele>1925</ele>
        <time>2010-07-28T11:12:53Z</time>
      </trkpt>
      <trkpt lat="44.81007" lon="6.48218">
        <ele>1925</ele>
        <time>2010-07-28T11:12:59Z</time>
      </trkpt>
      <trkpt lat="44.81008" lon="6.48209">
        <ele>1925</ele>
        <time>2010-07-28T11:13:05Z</time>
      </trkpt>
      <trkpt lat="44.8101" lon="6.48202">
        <ele>1925</ele>
        <time>2010-07-28T11:13:10Z</time>
      </trkpt>
      <trkpt lat="44.81017" lon="6.48186">
        <ele>1927</ele>
        <time>2010-07-28T11:13:17Z</time>
      </trkpt>
      <trkpt lat="44.81023" lon="6.48176">
        <ele>1926</ele>
        <time>2010-07-28T11:13:22Z</time>
      </trkpt>
      <trkpt lat="44.81025" lon="6.48165">
        <ele>1932</ele>
        <time>2010-07-28T11:13:28Z</time>
      </trkpt>
      <trkpt lat="44.81032" lon="6.48154">
        <ele>1930</ele>
        <time>2010-07-28T11:13:32Z</time>
      </trkpt>
      <trkpt lat="44.81034" lon="6.48153">
        <ele>1930</ele>
        <time>2010-07-28T11:13:33Z</time>
      </trkpt>
      <trkpt lat="44.81044" lon="6.48143">
        <ele>1928</ele>
        <time>2010-07-28T11:13:40Z</time>
      </trkpt>
      <trkpt lat="44.81051" lon="6.48131">
        <ele>1928</ele>
        <time>2010-07-28T11:13:47Z</time>
      </trkpt>
      <trkpt lat="44.81059" lon="6.48117">
        <ele>1928</ele>
        <time>2010-07-28T11:13:55Z</time>
      </trkpt>
      <trkpt lat="44.81069" lon="6.48103">
        <ele>1928</ele>
        <time>2010-07-28T11:14:03Z</time>
      </trkpt>
      <trkpt lat="44.8107" lon="6.48099">
        <ele>1928</ele>
        <time>2010-07-28T11:14:05Z</time>
      </trkpt>
      <trkpt lat="44.81072" lon="6.48093">
        <ele>1927</ele>
        <time>2010-07-28T11:14:09Z</time>
      </trkpt>
      <trkpt lat="44.81074" lon="6.48089">
        <ele>1927</ele>
        <time>2010-07-28T11:14:12Z</time>
      </trkpt>
      <trkpt lat="44.81075" lon="6.48083">
        <ele>1930</ele>
        <time>2010-07-28T11:14:20Z</time>
      </trkpt>
      <trkpt lat="44.81076" lon="6.4808">
        <ele>1930</ele>
        <time>2010-07-28T11:14:25Z</time>
      </trkpt>
      <trkpt lat="44.81076" lon="6.48077">
        <ele>1931</ele>
        <time>2010-07-28T11:14:27Z</time>
      </trkpt>
      <trkpt lat="44.81077" lon="6.48072">
        <ele>1932</ele>
        <time>2010-07-28T11:14:30Z</time>
      </trkpt>
      <trkpt lat="44.81079" lon="6.48067">
        <ele>1934</ele>
        <time>2010-07-28T11:14:34Z</time>
      </trkpt>
      <trkpt lat="44.81082" lon="6.48059">
        <ele>1936</ele>
        <time>2010-07-28T11:14:40Z</time>
      </trkpt>
      <trkpt lat="44.81082" lon="6.48057">
        <ele>1937</ele>
        <time>2010-07-28T11:14:41Z</time>
      </trkpt>
      <trkpt lat="44.81088" lon="6.48049">
        <ele>1921</ele>
        <time>2010-07-28T11:14:46Z</time>
      </trkpt>
      <trkpt lat="44.8109" lon="6.48044">
        <ele>1921</ele>
        <time>2010-07-28T11:14:49Z</time>
      </trkpt>
      <trkpt lat="44.81092" lon="6.48032">
        <ele>1923</ele>
        <time>2010-07-28T11:14:55Z</time>
      </trkpt>
      <trkpt lat="44.81092" lon="6.48028">
        <ele>1923</ele>
        <time>2010-07-28T11:14:57Z</time>
      </trkpt>
      <trkpt lat="44.81092" lon="6.48019">
        <ele>1926</ele>
        <time>2010-07-28T11:15:01Z</time>
      </trkpt>
      <trkpt lat="44.81095" lon="6.48006">
        <ele>1929</ele>
        <time>2010-07-28T11:15:06Z</time>
      </trkpt>
      <trkpt lat="44.81097" lon="6.48004">
        <ele>1928</ele>
        <time>2010-07-28T11:15:07Z</time>
      </trkpt>
      <trkpt lat="44.81104" lon="6.47989">
        <ele>1932</ele>
        <time>2010-07-28T11:15:14Z</time>
      </trkpt>
      <trkpt lat="44.81105" lon="6.47987">
        <ele>1932</ele>
        <time>2010-07-28T11:15:15Z</time>
      </trkpt>
      <trkpt lat="44.8111" lon="6.47976">
        <ele>1931</ele>
        <time>2010-07-28T11:15:21Z</time>
      </trkpt>
      <trkpt lat="44.81113" lon="6.47972">
        <ele>1931</ele>
        <time>2010-07-28T11:15:25Z</time>
      </trkpt>
      <trkpt lat="44.81116" lon="6.47958">
        <ele>1931</ele>
        <time>2010-07-28T11:15:32Z</time>
      </trkpt>
      <trkpt lat="44.81114" lon="6.4795">
        <ele>1932</ele>
        <time>2010-07-28T11:15:36Z</time>
      </trkpt>
      <trkpt lat="44.81112" lon="6.47936">
        <ele>1934</ele>
        <time>2010-07-28T11:15:43Z</time>
      </trkpt>
      <trkpt lat="44.81111" lon="6.47923">
        <ele>1936</ele>
        <time>2010-07-28T11:15:49Z</time>
      </trkpt>
      <trkpt lat="44.81111" lon="6.4791">
        <ele>1942</ele>
        <time>2010-07-28T11:15:55Z</time>
      </trkpt>
      <trkpt lat="44.81111" lon="6.47904">
        <ele>1942</ele>
        <time>2010-07-28T11:16:01Z</time>
      </trkpt>
      <trkpt lat="44.81112" lon="6.47904">
        <ele>1942</ele>
        <time>2010-07-28T11:16:09Z</time>
      </trkpt>
      <trkpt lat="44.81112" lon="6.47895">
        <ele>1942</ele>
        <time>2010-07-28T11:16:13Z</time>
      </trkpt>
      <trkpt lat="44.81114" lon="6.47887">
        <ele>1942</ele>
        <time>2010-07-28T11:16:16Z</time>
      </trkpt>
      <trkpt lat="44.81114" lon="6.47878">
        <ele>1942</ele>
        <time>2010-07-28T11:16:20Z</time>
      </trkpt>
      <trkpt lat="44.81116" lon="6.47869">
        <ele>1943</ele>
        <time>2010-07-28T11:16:23Z</time>
      </trkpt>
      <trkpt lat="44.81118" lon="6.47853">
        <ele>1944</ele>
        <time>2010-07-28T11:16:29Z</time>
      </trkpt>
      <trkpt lat="44.8112" lon="6.47842">
        <ele>1944</ele>
        <time>2010-07-28T11:16:33Z</time>
      </trkpt>
      <trkpt lat="44.81119" lon="6.47822">
        <ele>1949</ele>
        <time>2010-07-28T11:16:40Z</time>
      </trkpt>
      <trkpt lat="44.8112" lon="6.4781">
        <ele>1949</ele>
        <time>2010-07-28T11:16:45Z</time>
      </trkpt>
      <trkpt lat="44.8112" lon="6.47803">
        <ele>1949</ele>
        <time>2010-07-28T11:16:48Z</time>
      </trkpt>
      <trkpt lat="44.81121" lon="6.47788">
        <ele>1950</ele>
        <time>2010-07-28T11:16:55Z</time>
      </trkpt>
      <trkpt lat="44.81123" lon="6.47777">
        <ele>1950</ele>
        <time>2010-07-28T11:16:59Z</time>
      </trkpt>
      <trkpt lat="44.81131" lon="6.4776">
        <ele>1948</ele>
        <time>2010-07-28T11:17:05Z</time>
      </trkpt>
      <trkpt lat="44.81141" lon="6.47742">
        <ele>1952</ele>
        <time>2010-07-28T11:17:12Z</time>
      </trkpt>
      <trkpt lat="44.81148" lon="6.47726">
        <ele>1952</ele>
        <time>2010-07-28T11:17:19Z</time>
      </trkpt>
      <trkpt lat="44.81147" lon="6.47703">
        <ele>1955</ele>
        <time>2010-07-28T11:17:26Z</time>
      </trkpt>
      <trkpt lat="44.81143" lon="6.47684">
        <ele>1956</ele>
        <time>2010-07-28T11:17:33Z</time>
      </trkpt>
      <trkpt lat="44.81142" lon="6.47682">
        <ele>1956</ele>
        <time>2010-07-28T11:17:34Z</time>
      </trkpt>
      <trkpt lat="44.81144" lon="6.47674">
        <ele>1955</ele>
        <time>2010-07-28T11:17:38Z</time>
      </trkpt>
      <trkpt lat="44.81151" lon="6.47656">
        <ele>1962</ele>
        <time>2010-07-28T11:17:45Z</time>
      </trkpt>
      <trkpt lat="44.81157" lon="6.47654">
        <ele>1960</ele>
        <time>2010-07-28T11:17:51Z</time>
      </trkpt>
      <trkpt lat="44.81161" lon="6.47649">
        <ele>1961</ele>
        <time>2010-07-28T11:18:03Z</time>
      </trkpt>
      <trkpt lat="44.81163" lon="6.47647">
        <ele>1962</ele>
        <time>2010-07-28T11:18:12Z</time>
      </trkpt>
      <trkpt lat="44.81171" lon="6.47647">
        <ele>1950</ele>
        <time>2010-07-28T11:18:20Z</time>
      </trkpt>
      <trkpt lat="44.81177" lon="6.47646">
        <ele>1950</ele>
        <time>2010-07-28T11:18:24Z</time>
      </trkpt>
      <trkpt lat="44.8118" lon="6.47646">
        <ele>1950</ele>
        <time>2010-07-28T11:18:26Z</time>
      </trkpt>
      <trkpt lat="44.8119" lon="6.47644">
        <ele>1950</ele>
        <time>2010-07-28T11:18:31Z</time>
      </trkpt>
      <trkpt lat="44.81195" lon="6.47641">
        <ele>1950</ele>
        <time>2010-07-28T11:18:35Z</time>
      </trkpt>
      <trkpt lat="44.81207" lon="6.47629">
        <ele>1950</ele>
        <time>2010-07-28T11:18:44Z</time>
      </trkpt>
      <trkpt lat="44.81216" lon="6.4762">
        <ele>1951</ele>
        <time>2010-07-28T11:18:51Z</time>
      </trkpt>
      <trkpt lat="44.81226" lon="6.47611">
        <ele>1951</ele>
        <time>2010-07-28T11:18:57Z</time>
      </trkpt>
      <trkpt lat="44.8123" lon="6.47608">
        <ele>1951</ele>
        <time>2010-07-28T11:18:59Z</time>
      </trkpt>
      <trkpt lat="44.81239" lon="6.476">
        <ele>1952</ele>
        <time>2010-07-28T11:19:05Z</time>
      </trkpt>
      <trkpt lat="44.81242" lon="6.47589">
        <ele>1953</ele>
        <time>2010-07-28T11:19:11Z</time>
      </trkpt>
      <trkpt lat="44.81251" lon="6.47577">
        <ele>1953</ele>
        <time>2010-07-28T11:19:16Z</time>
      </trkpt>
      <trkpt lat="44.81262" lon="6.4756">
        <ele>1953</ele>
        <time>2010-07-28T11:19:23Z</time>
      </trkpt>
      <trkpt lat="44.81271" lon="6.47542">
        <ele>1953</ele>
        <time>2010-07-28T11:19:28Z</time>
      </trkpt>
      <trkpt lat="44.81279" lon="6.47528">
        <ele>1954</ele>
        <time>2010-07-28T11:19:34Z</time>
      </trkpt>
      <trkpt lat="44.81289" lon="6.47511">
        <ele>1954</ele>
        <time>2010-07-28T11:19:40Z</time>
      </trkpt>
      <trkpt lat="44.81298" lon="6.47496">
        <ele>1963</ele>
        <time>2010-07-28T11:19:47Z</time>
      </trkpt>
      <trkpt lat="44.81304" lon="6.47481">
        <ele>1963</ele>
        <time>2010-07-28T11:19:53Z</time>
      </trkpt>
      <trkpt lat="44.81309" lon="6.47464">
        <ele>1964</ele>
        <time>2010-07-28T11:19:59Z</time>
      </trkpt>
      <trkpt lat="44.81314" lon="6.47453">
        <ele>1964</ele>
        <time>2010-07-28T11:20:04Z</time>
      </trkpt>
      <trkpt lat="44.81328" lon="6.47443">
        <ele>1963</ele>
        <time>2010-07-28T11:20:10Z</time>
      </trkpt>
      <trkpt lat="44.81335" lon="6.47433">
        <ele>1950</ele>
        <time>2010-07-28T11:20:15Z</time>
      </trkpt>
      <trkpt lat="44.81341" lon="6.47423">
        <ele>1953</ele>
        <time>2010-07-28T11:20:19Z</time>
      </trkpt>
      <trkpt lat="44.81349" lon="6.47407">
        <ele>1956</ele>
        <time>2010-07-28T11:20:25Z</time>
      </trkpt>
      <trkpt lat="44.81357" lon="6.47392">
        <ele>1955</ele>
        <time>2010-07-28T11:20:30Z</time>
      </trkpt>
      <trkpt lat="44.81363" lon="6.47374">
        <ele>1955</ele>
        <time>2010-07-28T11:20:36Z</time>
      </trkpt>
      <trkpt lat="44.81367" lon="6.47353">
        <ele>1957</ele>
        <time>2010-07-28T11:20:42Z</time>
      </trkpt>
      <trkpt lat="44.81372" lon="6.4734">
        <ele>1957</ele>
        <time>2010-07-28T11:20:46Z</time>
      </trkpt>
      <trkpt lat="44.81376" lon="6.47335">
        <ele>1956</ele>
        <time>2010-07-28T11:20:48Z</time>
      </trkpt>
      <trkpt lat="44.8138" lon="6.47322">
        <ele>1965</ele>
        <time>2010-07-28T11:20:54Z</time>
      </trkpt>
      <trkpt lat="44.81384" lon="6.47315">
        <ele>1965</ele>
        <time>2010-07-28T11:20:58Z</time>
      </trkpt>
      <trkpt lat="44.81386" lon="6.473">
        <ele>1967</ele>
        <time>2010-07-28T11:21:04Z</time>
      </trkpt>
      <trkpt lat="44.81387" lon="6.47294">
        <ele>1968</ele>
        <time>2010-07-28T11:21:06Z</time>
      </trkpt>
      <trkpt lat="44.81391" lon="6.47282">
        <ele>1968</ele>
        <time>2010-07-28T11:21:13Z</time>
      </trkpt>
      <trkpt lat="44.81397" lon="6.47279">
        <ele>1968</ele>
        <time>2010-07-28T11:21:17Z</time>
      </trkpt>
      <trkpt lat="44.814" lon="6.4728">
        <ele>1967</ele>
        <time>2010-07-28T11:21:20Z</time>
      </trkpt>
      <trkpt lat="44.81403" lon="6.4728">
        <ele>1967</ele>
        <time>2010-07-28T11:21:23Z</time>
      </trkpt>
      <trkpt lat="44.8141" lon="6.4728">
        <ele>1966</ele>
        <time>2010-07-28T11:21:31Z</time>
      </trkpt>
      <trkpt lat="44.81418" lon="6.47277">
        <ele>1952</ele>
        <time>2010-07-28T11:21:41Z</time>
      </trkpt>
      <trkpt lat="44.81414" lon="6.4728">
        <ele>1966</ele>
        <time>2010-07-28T11:21:52Z</time>
      </trkpt>
      <trkpt lat="44.81411" lon="6.47277">
        <ele>1967</ele>
        <time>2010-07-28T11:22:06Z</time>
      </trkpt>
      <trkpt lat="44.81412" lon="6.47279">
        <ele>1966</ele>
        <time>2010-07-28T11:22:13Z</time>
      </trkpt>
      <trkpt lat="44.81411" lon="6.47269">
        <ele>1967</ele>
        <time>2010-07-28T11:22:20Z</time>
      </trkpt>
      <trkpt lat="44.81415" lon="6.47258">
        <ele>1966</ele>
        <time>2010-07-28T11:22:26Z</time>
      </trkpt>
      <trkpt lat="44.81416" lon="6.47254">
        <ele>1966</ele>
        <time>2010-07-28T11:22:28Z</time>
      </trkpt>
      <trkpt lat="44.81426" lon="6.47242">
        <ele>1967</ele>
        <time>2010-07-28T11:22:34Z</time>
      </trkpt>
      <trkpt lat="44.81432" lon="6.47234">
        <ele>1968</ele>
        <time>2010-07-28T11:22:39Z</time>
      </trkpt>
      <trkpt lat="44.81439" lon="6.47225">
        <ele>1970</ele>
        <time>2010-07-28T11:22:44Z</time>
      </trkpt>
      <trkpt lat="44.81451" lon="6.47209">
        <ele>1971</ele>
        <time>2010-07-28T11:22:52Z</time>
      </trkpt>
      <trkpt lat="44.81461" lon="6.47199">
        <ele>1972</ele>
        <time>2010-07-28T11:22:57Z</time>
      </trkpt>
      <trkpt lat="44.81467" lon="6.47196">
        <ele>1972</ele>
        <time>2010-07-28T11:23:02Z</time>
      </trkpt>
      <trkpt lat="44.81472" lon="6.47189">
        <ele>1973</ele>
        <time>2010-07-28T11:23:07Z</time>
      </trkpt>
      <trkpt lat="44.81484" lon="6.47179">
        <ele>1974</ele>
        <time>2010-07-28T11:23:13Z</time>
      </trkpt>
      <trkpt lat="44.81493" lon="6.47174">
        <ele>1976</ele>
        <time>2010-07-28T11:23:18Z</time>
      </trkpt>
      <trkpt lat="44.81505" lon="6.47168">
        <ele>1974</ele>
        <time>2010-07-28T11:23:24Z</time>
      </trkpt>
      <trkpt lat="44.81514" lon="6.47168">
        <ele>1968</ele>
        <time>2010-07-28T11:23:30Z</time>
      </trkpt>
      <trkpt lat="44.81519" lon="6.47168">
        <ele>1966</ele>
        <time>2010-07-28T11:23:32Z</time>
      </trkpt>
      <trkpt lat="44.81524" lon="6.47168">
        <ele>1964</ele>
        <time>2010-07-28T11:23:36Z</time>
      </trkpt>
      <trkpt lat="44.81525" lon="6.47169">
        <ele>1964</ele>
        <time>2010-07-28T11:23:42Z</time>
      </trkpt>
      <trkpt lat="44.81527" lon="6.4717">
        <ele>1964</ele>
        <time>2010-07-28T11:23:44Z</time>
      </trkpt>
      <trkpt lat="44.81535" lon="6.47171">
        <ele>1962</ele>
        <time>2010-07-28T11:23:48Z</time>
      </trkpt>
      <trkpt lat="44.81544" lon="6.4717">
        <ele>1961</ele>
        <time>2010-07-28T11:23:55Z</time>
      </trkpt>
      <trkpt lat="44.81557" lon="6.47166">
        <ele>1979</ele>
        <time>2010-07-28T11:24:02Z</time>
      </trkpt>
      <trkpt lat="44.8157" lon="6.47161">
        <ele>1974</ele>
        <time>2010-07-28T11:24:08Z</time>
      </trkpt>
      <trkpt lat="44.8158" lon="6.47157">
        <ele>1972</ele>
        <time>2010-07-28T11:24:13Z</time>
      </trkpt>
      <trkpt lat="44.81585" lon="6.47157">
        <ele>1966</ele>
        <time>2010-07-28T11:24:18Z</time>
      </trkpt>
      <trkpt lat="44.81587" lon="6.47156">
        <ele>1967</ele>
        <time>2010-07-28T11:24:23Z</time>
      </trkpt>
      <trkpt lat="44.81593" lon="6.47151">
        <ele>1968</ele>
        <time>2010-07-28T11:24:28Z</time>
      </trkpt>
      <trkpt lat="44.81604" lon="6.47139">
        <ele>1970</ele>
        <time>2010-07-28T11:24:35Z</time>
      </trkpt>
      <trkpt lat="44.81611" lon="6.47133">
        <ele>1970</ele>
        <time>2010-07-28T11:24:40Z</time>
      </trkpt>
      <trkpt lat="44.81617" lon="6.47128">
        <ele>1971</ele>
        <time>2010-07-28T11:24:44Z</time>
      </trkpt>
      <trkpt lat="44.81622" lon="6.47118">
        <ele>1972</ele>
        <time>2010-07-28T11:24:49Z</time>
      </trkpt>
      <trkpt lat="44.81625" lon="6.4711">
        <ele>1973</ele>
        <time>2010-07-28T11:24:53Z</time>
      </trkpt>
      <trkpt lat="44.81631" lon="6.47103">
        <ele>1973</ele>
        <time>2010-07-28T11:24:56Z</time>
      </trkpt>
      <trkpt lat="44.81641" lon="6.4709">
        <ele>1974</ele>
        <time>2010-07-28T11:25:02Z</time>
      </trkpt>
      <trkpt lat="44.81642" lon="6.47088">
        <ele>1974</ele>
        <time>2010-07-28T11:25:03Z</time>
      </trkpt>
      <trkpt lat="44.81656" lon="6.47075">
        <ele>1986</ele>
        <time>2010-07-28T11:25:10Z</time>
      </trkpt>
      <trkpt lat="44.81668" lon="6.4707">
        <ele>1984</ele>
        <time>2010-07-28T11:25:16Z</time>
      </trkpt>
      <trkpt lat="44.81681" lon="6.47064">
        <ele>1988</ele>
        <time>2010-07-28T11:25:21Z</time>
      </trkpt>
      <trkpt lat="44.81692" lon="6.47061">
        <ele>1990</ele>
        <time>2010-07-28T11:25:27Z</time>
      </trkpt>
      <trkpt lat="44.817" lon="6.47064">
        <ele>1991</ele>
        <time>2010-07-28T11:25:31Z</time>
      </trkpt>
      <trkpt lat="44.81702" lon="6.47065">
        <ele>1991</ele>
        <time>2010-07-28T11:25:32Z</time>
      </trkpt>
      <trkpt lat="44.81705" lon="6.47063">
        <ele>1992</ele>
        <time>2010-07-28T11:25:39Z</time>
      </trkpt>
      <trkpt lat="44.81713" lon="6.47066">
        <ele>1992</ele>
        <time>2010-07-28T11:25:47Z</time>
      </trkpt>
      <trkpt lat="44.81717" lon="6.47067">
        <ele>1992</ele>
        <time>2010-07-28T11:25:57Z</time>
      </trkpt>
      <trkpt lat="44.81721" lon="6.47067">
        <ele>1993</ele>
        <time>2010-07-28T11:26:03Z</time>
      </trkpt>
      <trkpt lat="44.8173" lon="6.47074">
        <ele>1993</ele>
        <time>2010-07-28T11:26:10Z</time>
      </trkpt>
      <trkpt lat="44.81737" lon="6.47082">
        <ele>1992</ele>
        <time>2010-07-28T11:26:15Z</time>
      </trkpt>
      <trkpt lat="44.81739" lon="6.47083">
        <ele>1992</ele>
        <time>2010-07-28T11:26:16Z</time>
      </trkpt>
      <trkpt lat="44.81746" lon="6.47094">
        <ele>1982</ele>
        <time>2010-07-28T11:26:24Z</time>
      </trkpt>
      <trkpt lat="44.81754" lon="6.47103">
        <ele>1987</ele>
        <time>2010-07-28T11:26:32Z</time>
      </trkpt>
      <trkpt lat="44.8176" lon="6.4711">
        <ele>1986</ele>
        <time>2010-07-28T11:26:38Z</time>
      </trkpt>
      <trkpt lat="44.81769" lon="6.4712">
        <ele>1985</ele>
        <time>2010-07-28T11:26:46Z</time>
      </trkpt>
      <trkpt lat="44.81777" lon="6.47125">
        <ele>1984</ele>
        <time>2010-07-28T11:26:53Z</time>
      </trkpt>
      <trkpt lat="44.81785" lon="6.47132">
        <ele>1984</ele>
        <time>2010-07-28T11:26:59Z</time>
      </trkpt>
      <trkpt lat="44.81795" lon="6.47143">
        <ele>1985</ele>
        <time>2010-07-28T11:27:06Z</time>
      </trkpt>
      <trkpt lat="44.818" lon="6.47153">
        <ele>1985</ele>
        <time>2010-07-28T11:27:14Z</time>
      </trkpt>
      <trkpt lat="44.81805" lon="6.4716">
        <ele>1986</ele>
        <time>2010-07-28T11:27:20Z</time>
      </trkpt>
      <trkpt lat="44.81818" lon="6.47158">
        <ele>1988</ele>
        <time>2010-07-28T11:27:28Z</time>
      </trkpt>
      <trkpt lat="44.81825" lon="6.47157">
        <ele>1989</ele>
        <time>2010-07-28T11:27:35Z</time>
      </trkpt>
      <trkpt lat="44.81827" lon="6.47157">
        <ele>1990</ele>
        <time>2010-07-28T11:27:42Z</time>
      </trkpt>
      <trkpt lat="44.81828" lon="6.47159">
        <ele>1990</ele>
        <time>2010-07-28T11:27:47Z</time>
      </trkpt>
      <trkpt lat="44.81829" lon="6.47162">
        <ele>1991</ele>
        <time>2010-07-28T11:27:54Z</time>
      </trkpt>
      <trkpt lat="44.81828" lon="6.47166">
        <ele>1991</ele>
        <time>2010-07-28T11:28:01Z</time>
      </trkpt>
      <trkpt lat="44.81828" lon="6.47168">
        <ele>1987</ele>
        <time>2010-07-28T11:28:06Z</time>
      </trkpt>
      <trkpt lat="44.81827" lon="6.47169">
        <ele>1985</ele>
        <time>2010-07-28T11:28:09Z</time>
      </trkpt>
      <trkpt lat="44.81827" lon="6.47169">
        <ele>1985</ele>
        <time>2010-07-28T11:28:10Z</time>
      </trkpt>
      <trkpt lat="44.81825" lon="6.47171">
        <ele>1983</ele>
        <time>2010-07-28T11:28:27Z</time>
      </trkpt>
      <trkpt lat="44.8183" lon="6.47168">
        <ele>1988</ele>
        <time>2010-07-28T11:28:33Z</time>
      </trkpt>
      <trkpt lat="44.81839" lon="6.47164">
        <ele>1992</ele>
        <time>2010-07-28T11:28:38Z</time>
      </trkpt>
      <trkpt lat="44.81846" lon="6.47162">
        <ele>1991</ele>
        <time>2010-07-28T11:28:41Z</time>
      </trkpt>
      <trkpt lat="44.81855" lon="6.47161">
        <ele>1990</ele>
        <time>2010-07-28T11:28:47Z</time>
      </trkpt>
      <trkpt lat="44.81868" lon="6.47159">
        <ele>1990</ele>
        <time>2010-07-28T11:28:52Z</time>
      </trkpt>
      <trkpt lat="44.81876" lon="6.47146">
        <ele>1989</ele>
        <time>2010-07-28T11:28:57Z</time>
      </trkpt>
      <trkpt lat="44.81881" lon="6.47134">
        <ele>1989</ele>
        <time>2010-07-28T11:29:01Z</time>
      </trkpt>
      <trkpt lat="44.81886" lon="6.47131">
        <ele>1988</ele>
        <time>2010-07-28T11:29:06Z</time>
      </trkpt>
      <trkpt lat="44.81889" lon="6.47131">
        <ele>1988</ele>
        <time>2010-07-28T11:29:09Z</time>
      </trkpt>
      <trkpt lat="44.81894" lon="6.47131">
        <ele>1988</ele>
        <time>2010-07-28T11:29:17Z</time>
      </trkpt>
      <trkpt lat="44.81896" lon="6.4713">
        <ele>1988</ele>
        <time>2010-07-28T11:29:22Z</time>
      </trkpt>
      <trkpt lat="44.81914" lon="6.47126">
        <ele>1986</ele>
        <time>2010-07-28T11:29:29Z</time>
      </trkpt>
      <trkpt lat="44.8193" lon="6.47116">
        <ele>1978</ele>
        <time>2010-07-28T11:29:34Z</time>
      </trkpt>
      <trkpt lat="44.81948" lon="6.47108">
        <ele>1977</ele>
        <time>2010-07-28T11:29:38Z</time>
      </trkpt>
      <trkpt lat="44.81961" lon="6.47101">
        <ele>1976</ele>
        <time>2010-07-28T11:29:42Z</time>
      </trkpt>
      <trkpt lat="44.8197" lon="6.47089">
        <ele>1974</ele>
        <time>2010-07-28T11:29:48Z</time>
      </trkpt>
      <trkpt lat="44.81971" lon="6.47086">
        <ele>1974</ele>
        <time>2010-07-28T11:29:53Z</time>
      </trkpt>
      <trkpt lat="44.81972" lon="6.47082">
        <ele>1965</ele>
        <time>2010-07-28T11:29:59Z</time>
      </trkpt>
      <trkpt lat="44.81969" lon="6.47068">
        <ele>1965</ele>
        <time>2010-07-28T11:30:03Z</time>
      </trkpt>
      <trkpt lat="44.81963" lon="6.47044">
        <ele>1963</ele>
        <time>2010-07-28T11:30:08Z</time>
      </trkpt>
      <trkpt lat="44.81955" lon="6.47026">
        <ele>1962</ele>
        <time>2010-07-28T11:30:11Z</time>
      </trkpt>
      <trkpt lat="44.81949" lon="6.47015">
        <ele>1962</ele>
        <time>2010-07-28T11:30:13Z</time>
      </trkpt>
      <trkpt lat="44.81939" lon="6.46993">
        <ele>1956</ele>
        <time>2010-07-28T11:30:17Z</time>
      </trkpt>
      <trkpt lat="44.81938" lon="6.46973">
        <ele>1953</ele>
        <time>2010-07-28T11:30:22Z</time>
      </trkpt>
      <trkpt lat="44.81946" lon="6.46949">
        <ele>1948</ele>
        <time>2010-07-28T11:30:27Z</time>
      </trkpt>
      <trkpt lat="44.81946" lon="6.46937">
        <ele>1948</ele>
        <time>2010-07-28T11:30:31Z</time>
      </trkpt>
      <trkpt lat="44.81946" lon="6.46929">
        <ele>1948</ele>
        <time>2010-07-28T11:30:34Z</time>
      </trkpt>
      <trkpt lat="44.81949" lon="6.46907">
        <ele>1939</ele>
        <time>2010-07-28T11:30:39Z</time>
      </trkpt>
      <trkpt lat="44.81946" lon="6.46884">
        <ele>1937</ele>
        <time>2010-07-28T11:30:45Z</time>
      </trkpt>
      <trkpt lat="44.8194" lon="6.46864">
        <ele>1937</ele>
        <time>2010-07-28T11:30:49Z</time>
      </trkpt>
      <trkpt lat="44.81939" lon="6.46845">
        <ele>1938</ele>
        <time>2010-07-28T11:30:53Z</time>
      </trkpt>
      <trkpt lat="44.81938" lon="6.46821">
        <ele>1927</ele>
        <time>2010-07-28T11:30:59Z</time>
      </trkpt>
      <trkpt lat="44.81936" lon="6.46804">
        <ele>1923</ele>
        <time>2010-07-28T11:31:05Z</time>
      </trkpt>
      <trkpt lat="44.81936" lon="6.46787">
        <ele>1919</ele>
        <time>2010-07-28T11:31:09Z</time>
      </trkpt>
      <trkpt lat="44.81935" lon="6.46773">
        <ele>1919</ele>
        <time>2010-07-28T11:31:15Z</time>
      </trkpt>
      <trkpt lat="44.81939" lon="6.46769">
        <ele>1918</ele>
        <time>2010-07-28T11:31:25Z</time>
      </trkpt>
      <trkpt lat="44.81939" lon="6.46766">
        <ele>1918</ele>
        <time>2010-07-28T11:31:26Z</time>
      </trkpt>
      <trkpt lat="44.81933" lon="6.46744">
        <ele>1910</ele>
        <time>2010-07-28T11:31:32Z</time>
      </trkpt>
      <trkpt lat="44.81927" lon="6.46716">
        <ele>1903</ele>
        <time>2010-07-28T11:31:38Z</time>
      </trkpt>
      <trkpt lat="44.81924" lon="6.46693">
        <ele>1901</ele>
        <time>2010-07-28T11:31:42Z</time>
      </trkpt>
      <trkpt lat="44.81923" lon="6.46675">
        <ele>1905</ele>
        <time>2010-07-28T11:31:46Z</time>
      </trkpt>
      <trkpt lat="44.81922" lon="6.46664">
        <ele>1903</ele>
        <time>2010-07-28T11:31:49Z</time>
      </trkpt>
      <trkpt lat="44.81922" lon="6.46641">
        <ele>1889</ele>
        <time>2010-07-28T11:31:54Z</time>
      </trkpt>
      <trkpt lat="44.81924" lon="6.4663">
        <ele>1885</ele>
        <time>2010-07-28T11:31:58Z</time>
      </trkpt>
      <trkpt lat="44.81929" lon="6.46628">
        <ele>1884</ele>
        <time>2010-07-28T11:32:04Z</time>
      </trkpt>
      <trkpt lat="44.8193" lon="6.46614">
        <ele>1882</ele>
        <time>2010-07-28T11:32:08Z</time>
      </trkpt>
      <trkpt lat="44.81925" lon="6.46587">
        <ele>1887</ele>
        <time>2010-07-28T11:32:12Z</time>
      </trkpt>
      <trkpt lat="44.81922" lon="6.46579">
        <ele>1884</ele>
        <time>2010-07-28T11:32:13Z</time>
      </trkpt>
      <trkpt lat="44.81918" lon="6.46566">
        <ele>1876</ele>
        <time>2010-07-28T11:32:15Z</time>
      </trkpt>
      <trkpt lat="44.81909" lon="6.46551">
        <ele>1902</ele>
        <time>2010-07-28T11:32:18Z</time>
      </trkpt>
      <trkpt lat="44.81907" lon="6.46551">
        <ele>1902</ele>
        <time>2010-07-28T11:32:23Z</time>
      </trkpt>
      <trkpt lat="44.81908" lon="6.46552">
        <ele>1902</ele>
        <time>2010-07-28T11:32:24Z</time>
      </trkpt>
      <trkpt lat="44.81917" lon="6.46568">
        <ele>1877</ele>
        <time>2010-07-28T11:32:31Z</time>
      </trkpt>
      <trkpt lat="44.8192" lon="6.46573">
        <ele>1880</ele>
        <time>2010-07-28T11:32:33Z</time>
      </trkpt>
      <trkpt lat="44.81932" lon="6.4659">
        <ele>1883</ele>
        <time>2010-07-28T11:32:38Z</time>
      </trkpt>
      <trkpt lat="44.81942" lon="6.46601">
        <ele>1879</ele>
        <time>2010-07-28T11:32:42Z</time>
      </trkpt>
      <trkpt lat="44.81955" lon="6.46618">
        <ele>1876</ele>
        <time>2010-07-28T11:32:47Z</time>
      </trkpt>
      <trkpt lat="44.81962" lon="6.4664">
        <ele>1876</ele>
        <time>2010-07-28T11:32:51Z</time>
      </trkpt>
      <trkpt lat="44.81964" lon="6.46654">
        <ele>1876</ele>
        <time>2010-07-28T11:32:53Z</time>
      </trkpt>
      <trkpt lat="44.81975" lon="6.46687">
        <ele>1884</ele>
        <time>2010-07-28T11:32:58Z</time>
      </trkpt>
      <trkpt lat="44.81979" lon="6.46692">
        <ele>1884</ele>
        <time>2010-07-28T11:32:59Z</time>
      </trkpt>
      <trkpt lat="44.81986" lon="6.46702">
        <ele>1884</ele>
        <time>2010-07-28T11:33:01Z</time>
      </trkpt>
      <trkpt lat="44.81994" lon="6.46712">
        <ele>1884</ele>
        <time>2010-07-28T11:33:05Z</time>
      </trkpt>
      <trkpt lat="44.8201" lon="6.46717">
        <ele>1856</ele>
        <time>2010-07-28T11:33:12Z</time>
      </trkpt>
      <trkpt lat="44.82012" lon="6.46717">
        <ele>1856</ele>
        <time>2010-07-28T11:33:13Z</time>
      </trkpt>
      <trkpt lat="44.8202" lon="6.46709">
        <ele>1853</ele>
        <time>2010-07-28T11:33:19Z</time>
      </trkpt>
      <trkpt lat="44.82022" lon="6.46708">
        <ele>1852</ele>
        <time>2010-07-28T11:33:20Z</time>
      </trkpt>
      <trkpt lat="44.82029" lon="6.46698">
        <ele>1850</ele>
        <time>2010-07-28T11:33:25Z</time>
      </trkpt>
      <trkpt lat="44.8203" lon="6.46697">
        <ele>1850</ele>
        <time>2010-07-28T11:33:33Z</time>
      </trkpt>
      <trkpt lat="44.82031" lon="6.46699">
        <ele>1850</ele>
        <time>2010-07-28T11:33:42Z</time>
      </trkpt>
      <trkpt lat="44.82034" lon="6.467">
        <ele>1849</ele>
        <time>2010-07-28T11:33:51Z</time>
      </trkpt>
      <trkpt lat="44.82033" lon="6.46694">
        <ele>1849</ele>
        <time>2010-07-28T11:33:55Z</time>
      </trkpt>
      <trkpt lat="44.82039" lon="6.46669">
        <ele>1847</ele>
        <time>2010-07-28T11:34:01Z</time>
      </trkpt>
      <trkpt lat="44.82044" lon="6.46653">
        <ele>1834</ele>
        <time>2010-07-28T11:34:05Z</time>
      </trkpt>
      <trkpt lat="44.82041" lon="6.4663">
        <ele>1833</ele>
        <time>2010-07-28T11:34:10Z</time>
      </trkpt>
      <trkpt lat="44.82043" lon="6.46604">
        <ele>1829</ele>
        <time>2010-07-28T11:34:15Z</time>
      </trkpt>
      <trkpt lat="44.82043" lon="6.46582">
        <ele>1816</ele>
        <time>2010-07-28T11:34:20Z</time>
      </trkpt>
      <trkpt lat="44.82042" lon="6.46562">
        <ele>1815</ele>
        <time>2010-07-28T11:34:23Z</time>
      </trkpt>
      <trkpt lat="44.82041" lon="6.46548">
        <ele>1814</ele>
        <time>2010-07-28T11:34:27Z</time>
      </trkpt>
      <trkpt lat="44.8204" lon="6.46555">
        <ele>1815</ele>
        <time>2010-07-28T11:34:36Z</time>
      </trkpt>
      <trkpt lat="44.82032" lon="6.46559">
        <ele>1817</ele>
        <time>2010-07-28T11:34:45Z</time>
      </trkpt>
      <trkpt lat="44.82028" lon="6.4656">
        <ele>1819</ele>
        <time>2010-07-28T11:34:56Z</time>
      </trkpt>
      <trkpt lat="44.82026" lon="6.46559">
        <ele>1819</ele>
        <time>2010-07-28T11:35:06Z</time>
      </trkpt>
      <trkpt lat="44.82025" lon="6.46558">
        <ele>1819</ele>
        <time>2010-07-28T11:35:15Z</time>
      </trkpt>
      <trkpt lat="44.82026" lon="6.46556">
        <ele>1819</ele>
        <time>2010-07-28T11:35:28Z</time>
      </trkpt>
      <trkpt lat="44.82025" lon="6.46556">
        <ele>1819</ele>
        <time>2010-07-28T11:35:30Z</time>
      </trkpt>
      <trkpt lat="44.82022" lon="6.46558">
        <ele>1820</ele>
        <time>2010-07-28T11:35:39Z</time>
      </trkpt>
      <trkpt lat="44.82022" lon="6.46554">
        <ele>1819</ele>
        <time>2010-07-28T11:35:50Z</time>
      </trkpt>
      <trkpt lat="44.82031" lon="6.46553">
        <ele>1817</ele>
        <time>2010-07-28T11:36:06Z</time>
      </trkpt>
      <trkpt lat="44.82031" lon="6.46552">
        <ele>1817</ele>
        <time>2010-07-28T11:36:07Z</time>
      </trkpt>
      <trkpt lat="44.82027" lon="6.46546">
        <ele>1817</ele>
        <time>2010-07-28T11:36:11Z</time>
      </trkpt>
      <trkpt lat="44.82021" lon="6.46535">
        <ele>1817</ele>
        <time>2010-07-28T11:36:15Z</time>
      </trkpt>
      <trkpt lat="44.82015" lon="6.4652">
        <ele>1817</ele>
        <time>2010-07-28T11:36:20Z</time>
      </trkpt>
      <trkpt lat="44.82012" lon="6.46504">
        <ele>1819</ele>
        <time>2010-07-28T11:36:24Z</time>
      </trkpt>
      <trkpt lat="44.82006" lon="6.46485">
        <ele>1811</ele>
        <time>2010-07-28T11:36:28Z</time>
      </trkpt>
      <trkpt lat="44.82008" lon="6.46463">
        <ele>1805</ele>
        <time>2010-07-28T11:36:32Z</time>
      </trkpt>
      <trkpt lat="44.82012" lon="6.46442">
        <ele>1803</ele>
        <time>2010-07-28T11:36:37Z</time>
      </trkpt>
      <trkpt lat="44.82015" lon="6.46417">
        <ele>1803</ele>
        <time>2010-07-28T11:36:42Z</time>
      </trkpt>
      <trkpt lat="44.82019" lon="6.46411">
        <ele>1797</ele>
        <time>2010-07-28T11:36:43Z</time>
      </trkpt>
      <trkpt lat="44.82021" lon="6.46397">
        <ele>1795</ele>
        <time>2010-07-28T11:36:46Z</time>
      </trkpt>
      <trkpt lat="44.82035" lon="6.46384">
        <ele>1791</ele>
        <time>2010-07-28T11:36:48Z</time>
      </trkpt>
      <trkpt lat="44.82034" lon="6.46364">
        <ele>1790</ele>
        <time>2010-07-28T11:36:52Z</time>
      </trkpt>
      <trkpt lat="44.82035" lon="6.46353">
        <ele>1790</ele>
        <time>2010-07-28T11:36:55Z</time>
      </trkpt>
      <trkpt lat="44.82025" lon="6.46347">
        <ele>1791</ele>
        <time>2010-07-28T11:36:58Z</time>
      </trkpt>
      <trkpt lat="44.82033" lon="6.46342">
        <ele>1790</ele>
        <time>2010-07-28T11:37:03Z</time>
      </trkpt>
      <trkpt lat="44.82036" lon="6.46346">
        <ele>1789</ele>
        <time>2010-07-28T11:37:07Z</time>
      </trkpt>
      <trkpt lat="44.82034" lon="6.46344">
        <ele>1790</ele>
        <time>2010-07-28T11:37:12Z</time>
      </trkpt>
      <trkpt lat="44.82034" lon="6.46335">
        <ele>1790</ele>
        <time>2010-07-28T11:37:16Z</time>
      </trkpt>
      <trkpt lat="44.82042" lon="6.46335">
        <ele>1788</ele>
        <time>2010-07-28T11:37:21Z</time>
      </trkpt>
      <trkpt lat="44.82049" lon="6.46331">
        <ele>1785</ele>
        <time>2010-07-28T11:37:28Z</time>
      </trkpt>
      <trkpt lat="44.8205" lon="6.46331">
        <ele>1784</ele>
        <time>2010-07-28T11:37:29Z</time>
      </trkpt>
      <trkpt lat="44.82061" lon="6.46331">
        <ele>1783</ele>
        <time>2010-07-28T11:37:34Z</time>
      </trkpt>
      <trkpt lat="44.82063" lon="6.4633">
        <ele>1782</ele>
        <time>2010-07-28T11:37:35Z</time>
      </trkpt>
      <trkpt lat="44.82079" lon="6.46323">
        <ele>1780</ele>
        <time>2010-07-28T11:37:44Z</time>
      </trkpt>
      <trkpt lat="44.8208" lon="6.46322">
        <ele>1780</ele>
        <time>2010-07-28T11:37:45Z</time>
      </trkpt>
      <trkpt lat="44.82084" lon="6.46319">
        <ele>1778</ele>
        <time>2010-07-28T11:38:03Z</time>
      </trkpt>
      <trkpt lat="44.82085" lon="6.46323">
        <ele>1778</ele>
        <time>2010-07-28T11:38:08Z</time>
      </trkpt>
      <trkpt lat="44.82091" lon="6.46333">
        <ele>1778</ele>
        <time>2010-07-28T11:38:12Z</time>
      </trkpt>
      <trkpt lat="44.82101" lon="6.46354">
        <ele>1775</ele>
        <time>2010-07-28T11:38:17Z</time>
      </trkpt>
      <trkpt lat="44.82108" lon="6.46378">
        <ele>1774</ele>
        <time>2010-07-28T11:38:22Z</time>
      </trkpt>
      <trkpt lat="44.82105" lon="6.46388">
        <ele>1774</ele>
        <time>2010-07-28T11:38:25Z</time>
      </trkpt>
      <trkpt lat="44.82102" lon="6.46408">
        <ele>1775</ele>
        <time>2010-07-28T11:38:31Z</time>
      </trkpt>
      <trkpt lat="44.82104" lon="6.46412">
        <ele>1775</ele>
        <time>2010-07-28T11:38:34Z</time>
      </trkpt>
      <trkpt lat="44.82106" lon="6.46423">
        <ele>1774</ele>
        <time>2010-07-28T11:38:39Z</time>
      </trkpt>
      <trkpt lat="44.82108" lon="6.46439">
        <ele>1774</ele>
        <time>2010-07-28T11:38:44Z</time>
      </trkpt>
      <trkpt lat="44.82116" lon="6.46455">
        <ele>1773</ele>
        <time>2010-07-28T11:38:51Z</time>
      </trkpt>
      <trkpt lat="44.82122" lon="6.46473">
        <ele>1773</ele>
        <time>2010-07-28T11:38:55Z</time>
      </trkpt>
      <trkpt lat="44.82119" lon="6.46502">
        <ele>1780</ele>
        <time>2010-07-28T11:38:59Z</time>
      </trkpt>
      <trkpt lat="44.82123" lon="6.46518">
        <ele>1780</ele>
        <time>2010-07-28T11:39:03Z</time>
      </trkpt>
      <trkpt lat="44.82166" lon="6.46549">
        <ele>1778</ele>
        <time>2010-07-28T11:39:11Z</time>
      </trkpt>
      <trkpt lat="44.82164" lon="6.4658">
        <ele>1777</ele>
        <time>2010-07-28T11:39:15Z</time>
      </trkpt>
      <trkpt lat="44.82164" lon="6.46594">
        <ele>1784</ele>
        <time>2010-07-28T11:39:19Z</time>
      </trkpt>
      <trkpt lat="44.82165" lon="6.46593">
        <ele>1783</ele>
        <time>2010-07-28T11:39:20Z</time>
      </trkpt>
      <trkpt lat="44.82185" lon="6.46586">
        <ele>1774</ele>
        <time>2010-07-28T11:39:26Z</time>
      </trkpt>
      <trkpt lat="44.82188" lon="6.46582">
        <ele>1770</ele>
        <time>2010-07-28T11:39:34Z</time>
      </trkpt>
      <trkpt lat="44.82186" lon="6.46575">
        <ele>1770</ele>
        <time>2010-07-28T11:39:39Z</time>
      </trkpt>
      <trkpt lat="44.82188" lon="6.46571">
        <ele>1769</ele>
        <time>2010-07-28T11:39:41Z</time>
      </trkpt>
      <trkpt lat="44.82191" lon="6.46569">
        <ele>1769</ele>
        <time>2010-07-28T11:39:43Z</time>
      </trkpt>
      <trkpt lat="44.82191" lon="6.46569">
        <ele>1769</ele>
        <time>2010-07-28T11:39:44Z</time>
      </trkpt>
      <trkpt lat="44.82194" lon="6.46569">
        <ele>1769</ele>
        <time>2010-07-28T11:39:49Z</time>
      </trkpt>
      <trkpt lat="44.82197" lon="6.46571">
        <ele>1768</ele>
        <time>2010-07-28T11:39:56Z</time>
      </trkpt>
      <trkpt lat="44.82193" lon="6.46573">
        <ele>1769</ele>
        <time>2010-07-28T11:40:00Z</time>
      </trkpt>
      <trkpt lat="44.82186" lon="6.46576">
        <ele>1770</ele>
        <time>2010-07-28T11:40:06Z</time>
      </trkpt>
      <trkpt lat="44.82179" lon="6.46579">
        <ele>1772</ele>
        <time>2010-07-28T11:40:15Z</time>
      </trkpt>
      <trkpt lat="44.82188" lon="6.46577">
        <ele>1770</ele>
        <time>2010-07-28T11:40:26Z</time>
      </trkpt>
      <trkpt lat="44.82201" lon="6.46572">
        <ele>1768</ele>
        <time>2010-07-28T11:40:34Z</time>
      </trkpt>
      <trkpt lat="44.82202" lon="6.46572">
        <ele>1768</ele>
        <time>2010-07-28T11:40:47Z</time>
      </trkpt>
      <trkpt lat="44.82227" lon="6.46565">
        <ele>1766</ele>
        <time>2010-07-28T11:40:55Z</time>
      </trkpt>
      <trkpt lat="44.82224" lon="6.46565">
        <ele>1766</ele>
        <time>2010-07-28T11:41:02Z</time>
      </trkpt>
      <trkpt lat="44.82208" lon="6.46565">
        <ele>1767</ele>
        <time>2010-07-28T11:41:12Z</time>
      </trkpt>
      <trkpt lat="44.82203" lon="6.46563">
        <ele>1767</ele>
        <time>2010-07-28T11:41:14Z</time>
      </trkpt>
      <trkpt lat="44.82198" lon="6.46557">
        <ele>1768</ele>
        <time>2010-07-28T11:41:18Z</time>
      </trkpt>
      <trkpt lat="44.82199" lon="6.4655">
        <ele>1767</ele>
        <time>2010-07-28T11:41:23Z</time>
      </trkpt>
      <trkpt lat="44.82199" lon="6.46548">
        <ele>1767</ele>
        <time>2010-07-28T11:41:25Z</time>
      </trkpt>
      <trkpt lat="44.82201" lon="6.46545">
        <ele>1767</ele>
        <time>2010-07-28T11:41:27Z</time>
      </trkpt>
      <trkpt lat="44.82211" lon="6.46539">
        <ele>1766</ele>
        <time>2010-07-28T11:41:32Z</time>
      </trkpt>
      <trkpt lat="44.82212" lon="6.46537">
        <ele>1766</ele>
        <time>2010-07-28T11:41:34Z</time>
      </trkpt>
      <trkpt lat="44.82222" lon="6.46531">
        <ele>1766</ele>
        <time>2010-07-28T11:41:40Z</time>
      </trkpt>
      <trkpt lat="44.82225" lon="6.46529">
        <ele>1766</ele>
        <time>2010-07-28T11:41:41Z</time>
      </trkpt>
      <trkpt lat="44.82224" lon="6.46528">
        <ele>1766</ele>
        <time>2010-07-28T11:41:47Z</time>
      </trkpt>
      <trkpt lat="44.82218" lon="6.46534">
        <ele>1766</ele>
        <time>2010-07-28T11:41:52Z</time>
      </trkpt>
      <trkpt lat="44.8221" lon="6.46548">
        <ele>1767</ele>
        <time>2010-07-28T11:41:57Z</time>
      </trkpt>
      <trkpt lat="44.82213" lon="6.46557">
        <ele>1767</ele>
        <time>2010-07-28T11:42:01Z</time>
      </trkpt>
      <trkpt lat="44.82212" lon="6.46556">
        <ele>1767</ele>
        <time>2010-07-28T11:42:03Z</time>
      </trkpt>
      <trkpt lat="44.82203" lon="6.46564">
        <ele>1767</ele>
        <time>2010-07-28T11:42:09Z</time>
      </trkpt>
      <trkpt lat="44.82197" lon="6.46569">
        <ele>1768</ele>
        <time>2010-07-28T11:42:11Z</time>
      </trkpt>
      <trkpt lat="44.82196" lon="6.46572">
        <ele>1769</ele>
        <time>2010-07-28T11:42:13Z</time>
      </trkpt>
      <trkpt lat="44.8221" lon="6.46577">
        <ele>1767</ele>
        <time>2010-07-28T11:42:19Z</time>
      </trkpt>
      <trkpt lat="44.82225" lon="6.46583">
        <ele>1765</ele>
        <time>2010-07-28T11:42:25Z</time>
      </trkpt>
      <trkpt lat="44.82229" lon="6.4659">
        <ele>1768</ele>
        <time>2010-07-28T11:42:33Z</time>
      </trkpt>
      <trkpt lat="44.82228" lon="6.46592">
        <ele>1768</ele>
        <time>2010-07-28T11:42:35Z</time>
      </trkpt>
      <trkpt lat="44.8223" lon="6.46599">
        <ele>1768</ele>
        <time>2010-07-28T11:42:43Z</time>
      </trkpt>
      <trkpt lat="44.82232" lon="6.46603">
        <ele>1769</ele>
        <time>2010-07-28T11:42:49Z</time>
      </trkpt>
      <trkpt lat="44.82236" lon="6.46607">
        <ele>1769</ele>
        <time>2010-07-28T11:42:56Z</time>
      </trkpt>
      <trkpt lat="44.8224" lon="6.46607">
        <ele>1768</ele>
        <time>2010-07-28T11:42:59Z</time>
      </trkpt>
      <trkpt lat="44.82262" lon="6.46602">
        <ele>1761</ele>
        <time>2010-07-28T11:43:06Z</time>
      </trkpt>
      <trkpt lat="44.8227" lon="6.46598">
        <ele>1761</ele>
        <time>2010-07-28T11:43:10Z</time>
      </trkpt>
      <trkpt lat="44.82281" lon="6.46588">
        <ele>1761</ele>
        <time>2010-07-28T11:43:14Z</time>
      </trkpt>
      <trkpt lat="44.82294" lon="6.46565">
        <ele>1765</ele>
        <time>2010-07-28T11:43:22Z</time>
      </trkpt>
      <trkpt lat="44.82295" lon="6.46563">
        <ele>1765</ele>
        <time>2010-07-28T11:43:23Z</time>
      </trkpt>
      <trkpt lat="44.82307" lon="6.46558">
        <ele>1766</ele>
        <time>2010-07-28T11:43:29Z</time>
      </trkpt>
      <trkpt lat="44.82321" lon="6.46571">
        <ele>1765</ele>
        <time>2010-07-28T11:43:35Z</time>
      </trkpt>
      <trkpt lat="44.82332" lon="6.46581">
        <ele>1763</ele>
        <time>2010-07-28T11:43:39Z</time>
      </trkpt>
      <trkpt lat="44.82346" lon="6.46594">
        <ele>1764</ele>
        <time>2010-07-28T11:43:42Z</time>
      </trkpt>
      <trkpt lat="44.82365" lon="6.46611">
        <ele>1765</ele>
        <time>2010-07-28T11:43:45Z</time>
      </trkpt>
      <trkpt lat="44.82393" lon="6.46627">
        <ele>1766</ele>
        <time>2010-07-28T11:43:49Z</time>
      </trkpt>
      <trkpt lat="44.82409" lon="6.46639">
        <ele>1765</ele>
        <time>2010-07-28T11:43:52Z</time>
      </trkpt>
      <trkpt lat="44.82416" lon="6.46661">
        <ele>1761</ele>
        <time>2010-07-28T11:43:55Z</time>
      </trkpt>
      <trkpt lat="44.8243" lon="6.46692">
        <ele>1757</ele>
        <time>2010-07-28T11:43:59Z</time>
      </trkpt>
      <trkpt lat="44.82436" lon="6.46699">
        <ele>1756</ele>
        <time>2010-07-28T11:44:00Z</time>
      </trkpt>
      <trkpt lat="44.82465" lon="6.46734">
        <ele>1753</ele>
        <time>2010-07-28T11:44:05Z</time>
      </trkpt>
      <trkpt lat="44.82485" lon="6.46768">
        <ele>1744</ele>
        <time>2010-07-28T11:44:10Z</time>
      </trkpt>
      <trkpt lat="44.82489" lon="6.46776">
        <ele>1744</ele>
        <time>2010-07-28T11:44:12Z</time>
      </trkpt>
      <trkpt lat="44.82496" lon="6.46791">
        <ele>1742</ele>
        <time>2010-07-28T11:44:20Z</time>
      </trkpt>
      <trkpt lat="44.82504" lon="6.46797">
        <ele>1741</ele>
        <time>2010-07-28T11:44:23Z</time>
      </trkpt>
      <trkpt lat="44.8251" lon="6.46802">
        <ele>1740</ele>
        <time>2010-07-28T11:44:25Z</time>
      </trkpt>
      <trkpt lat="44.82534" lon="6.46811">
        <ele>1740</ele>
        <time>2010-07-28T11:44:30Z</time>
      </trkpt>
      <trkpt lat="44.82543" lon="6.46818">
        <ele>1739</ele>
        <time>2010-07-28T11:44:32Z</time>
      </trkpt>
      <trkpt lat="44.82562" lon="6.4682">
        <ele>1738</ele>
        <time>2010-07-28T11:44:36Z</time>
      </trkpt>
      <trkpt lat="44.82566" lon="6.46815">
        <ele>1738</ele>
        <time>2010-07-28T11:44:37Z</time>
      </trkpt>
      <trkpt lat="44.82576" lon="6.46804">
        <ele>1739</ele>
        <time>2010-07-28T11:44:39Z</time>
      </trkpt>
      <trkpt lat="44.82602" lon="6.46797">
        <ele>1737</ele>
        <time>2010-07-28T11:44:44Z</time>
      </trkpt>
      <trkpt lat="44.82615" lon="6.46807">
        <ele>1735</ele>
        <time>2010-07-28T11:44:47Z</time>
      </trkpt>
      <trkpt lat="44.82624" lon="6.46815">
        <ele>1734</ele>
        <time>2010-07-28T11:44:50Z</time>
      </trkpt>
      <trkpt lat="44.82639" lon="6.46821">
        <ele>1733</ele>
        <time>2010-07-28T11:44:54Z</time>
      </trkpt>
      <trkpt lat="44.82651" lon="6.46821">
        <ele>1731</ele>
        <time>2010-07-28T11:44:58Z</time>
      </trkpt>
      <trkpt lat="44.82653" lon="6.46819">
        <ele>1732</ele>
        <time>2010-07-28T11:45:06Z</time>
      </trkpt>
      <trkpt lat="44.82653" lon="6.46819">
        <ele>1731</ele>
        <time>2010-07-28T11:45:08Z</time>
      </trkpt>
      <trkpt lat="44.82653" lon="6.46819">
        <ele>1731</ele>
        <time>2010-07-28T11:45:09Z</time>
      </trkpt>
      <trkpt lat="44.82658" lon="6.46818">
        <ele>1731</ele>
        <time>2010-07-28T11:45:26Z</time>
      </trkpt>
      <trkpt lat="44.82672" lon="6.46807">
        <ele>1731</ele>
        <time>2010-07-28T11:45:32Z</time>
      </trkpt>
      <trkpt lat="44.82683" lon="6.46799">
        <ele>1732</ele>
        <time>2010-07-28T11:45:37Z</time>
      </trkpt>
      <trkpt lat="44.82686" lon="6.46797">
        <ele>1732</ele>
        <time>2010-07-28T11:45:39Z</time>
      </trkpt>
      <trkpt lat="44.82697" lon="6.4679">
        <ele>1733</ele>
        <time>2010-07-28T11:45:45Z</time>
      </trkpt>
      <trkpt lat="44.82704" lon="6.46785">
        <ele>1733</ele>
        <time>2010-07-28T11:45:49Z</time>
      </trkpt>
      <trkpt lat="44.8271" lon="6.46782">
        <ele>1734</ele>
        <time>2010-07-28T11:45:52Z</time>
      </trkpt>
      <trkpt lat="44.82725" lon="6.46776">
        <ele>1735</ele>
        <time>2010-07-28T11:45:59Z</time>
      </trkpt>
      <trkpt lat="44.82742" lon="6.46769">
        <ele>1737</ele>
        <time>2010-07-28T11:46:07Z</time>
      </trkpt>
      <trkpt lat="44.8276" lon="6.46753">
        <ele>1739</ele>
        <time>2010-07-28T11:46:17Z</time>
      </trkpt>
      <trkpt lat="44.8277" lon="6.46742">
        <ele>1749</ele>
        <time>2010-07-28T11:46:25Z</time>
      </trkpt>
      <trkpt lat="44.82776" lon="6.46734">
        <ele>1750</ele>
        <time>2010-07-28T11:46:32Z</time>
      </trkpt>
      <trkpt lat="44.82784" lon="6.46726">
        <ele>1751</ele>
        <time>2010-07-28T11:46:39Z</time>
      </trkpt>
      <trkpt lat="44.82793" lon="6.46715">
        <ele>1752</ele>
        <time>2010-07-28T11:46:47Z</time>
      </trkpt>
      <trkpt lat="44.82799" lon="6.46708">
        <ele>1753</ele>
        <time>2010-07-28T11:46:53Z</time>
      </trkpt>
      <trkpt lat="44.82805" lon="6.46697">
        <ele>1754</ele>
        <time>2010-07-28T11:47:02Z</time>
      </trkpt>
      <trkpt lat="44.82812" lon="6.46687">
        <ele>1755</ele>
        <time>2010-07-28T11:47:11Z</time>
      </trkpt>
      <trkpt lat="44.82819" lon="6.46673">
        <ele>1755</ele>
        <time>2010-07-28T11:47:20Z</time>
      </trkpt>
      <trkpt lat="44.82822" lon="6.46662">
        <ele>1764</ele>
        <time>2010-07-28T11:47:27Z</time>
      </trkpt>
      <trkpt lat="44.82825" lon="6.46647">
        <ele>1767</ele>
        <time>2010-07-28T11:47:35Z</time>
      </trkpt>
      <trkpt lat="44.82826" lon="6.46641">
        <ele>1769</ele>
        <time>2010-07-28T11:47:38Z</time>
      </trkpt>
      <trkpt lat="44.82826" lon="6.46636">
        <ele>1770</ele>
        <time>2010-07-28T11:47:41Z</time>
      </trkpt>
      <trkpt lat="44.8283" lon="6.46621">
        <ele>1773</ele>
        <time>2010-07-28T11:47:50Z</time>
      </trkpt>
      <trkpt lat="44.82833" lon="6.46618">
        <ele>1773</ele>
        <time>2010-07-28T11:47:56Z</time>
      </trkpt>
      <trkpt lat="44.82838" lon="6.46619">
        <ele>1760</ele>
        <time>2010-07-28T11:48:06Z</time>
      </trkpt>
      <trkpt lat="44.82842" lon="6.46618">
        <ele>1759</ele>
        <time>2010-07-28T11:48:16Z</time>
      </trkpt>
      <trkpt lat="44.82834" lon="6.46612">
        <ele>1761</ele>
        <time>2010-07-28T11:48:24Z</time>
      </trkpt>
      <trkpt lat="44.82832" lon="6.46611">
        <ele>1775</ele>
        <time>2010-07-28T11:48:26Z</time>
      </trkpt>
      <trkpt lat="44.82829" lon="6.46611">
        <ele>1775</ele>
        <time>2010-07-28T11:48:30Z</time>
      </trkpt>
      <trkpt lat="44.82829" lon="6.46612">
        <ele>1775</ele>
        <time>2010-07-28T11:48:31Z</time>
      </trkpt>
      <trkpt lat="44.82828" lon="6.46611">
        <ele>1775</ele>
        <time>2010-07-28T11:48:40Z</time>
      </trkpt>
      <trkpt lat="44.8283" lon="6.46611">
        <ele>1775</ele>
        <time>2010-07-28T11:48:51Z</time>
      </trkpt>
      <trkpt lat="44.82829" lon="6.46609">
        <ele>1775</ele>
        <time>2010-07-28T11:49:02Z</time>
      </trkpt>
      <trkpt lat="44.82829" lon="6.46607">
        <ele>1775</ele>
        <time>2010-07-28T11:49:09Z</time>
      </trkpt>
      <trkpt lat="44.82834" lon="6.46591">
        <ele>1770</ele>
        <time>2010-07-28T11:49:14Z</time>
      </trkpt>
      <trkpt lat="44.82844" lon="6.46578">
        <ele>1773</ele>
        <time>2010-07-28T11:49:18Z</time>
      </trkpt>
      <trkpt lat="44.82866" lon="6.46563">
        <ele>1769</ele>
        <time>2010-07-28T11:49:26Z</time>
      </trkpt>
      <trkpt lat="44.82872" lon="6.46559">
        <ele>1768</ele>
        <time>2010-07-28T11:49:30Z</time>
      </trkpt>
      <trkpt lat="44.82875" lon="6.46555">
        <ele>1768</ele>
        <time>2010-07-28T11:49:34Z</time>
      </trkpt>
      <trkpt lat="44.82876" lon="6.46554">
        <ele>1768</ele>
        <time>2010-07-28T11:49:35Z</time>
      </trkpt>
      <trkpt lat="44.82877" lon="6.46553">
        <ele>1768</ele>
        <time>2010-07-28T11:49:36Z</time>
      </trkpt>
      <trkpt lat="44.82882" lon="6.46539">
        <ele>1768</ele>
        <time>2010-07-28T11:49:43Z</time>
      </trkpt>
      <trkpt lat="44.82887" lon="6.46522">
        <ele>1768</ele>
        <time>2010-07-28T11:49:46Z</time>
      </trkpt>
      <trkpt lat="44.82891" lon="6.46505">
        <ele>1767</ele>
        <time>2010-07-28T11:49:49Z</time>
      </trkpt>
      <trkpt lat="44.82891" lon="6.46498">
        <ele>1774</ele>
        <time>2010-07-28T11:49:57Z</time>
      </trkpt>
      <trkpt lat="44.82894" lon="6.46496">
        <ele>1773</ele>
        <time>2010-07-28T11:50:04Z</time>
      </trkpt>
      <trkpt lat="44.82894" lon="6.46494">
        <ele>1773</ele>
        <time>2010-07-28T11:50:07Z</time>
      </trkpt>
      <trkpt lat="44.82894" lon="6.46493">
        <ele>1773</ele>
        <time>2010-07-28T11:50:08Z</time>
      </trkpt>
      <trkpt lat="44.82898" lon="6.46475">
        <ele>1775</ele>
        <time>2010-07-28T11:50:14Z</time>
      </trkpt>
      <trkpt lat="44.8291" lon="6.46455">
        <ele>1775</ele>
        <time>2010-07-28T11:50:18Z</time>
      </trkpt>
      <trkpt lat="44.8292" lon="6.46444">
        <ele>1757</ele>
        <time>2010-07-28T11:50:21Z</time>
      </trkpt>
      <trkpt lat="44.82929" lon="6.46441">
        <ele>1756</ele>
        <time>2010-07-28T11:50:23Z</time>
      </trkpt>
      <trkpt lat="44.8294" lon="6.46433">
        <ele>1754</ele>
        <time>2010-07-28T11:50:26Z</time>
      </trkpt>
      <trkpt lat="44.82959" lon="6.46418">
        <ele>1750</ele>
        <time>2010-07-28T11:50:31Z</time>
      </trkpt>
      <trkpt lat="44.82962" lon="6.46415">
        <ele>1760</ele>
        <time>2010-07-28T11:50:32Z</time>
      </trkpt>
      <trkpt lat="44.82969" lon="6.46409">
        <ele>1758</ele>
        <time>2010-07-28T11:50:34Z</time>
      </trkpt>
      <trkpt lat="44.82979" lon="6.46392">
        <ele>1758</ele>
        <time>2010-07-28T11:50:40Z</time>
      </trkpt>
      <trkpt lat="44.82984" lon="6.46383">
        <ele>1759</ele>
        <time>2010-07-28T11:50:43Z</time>
      </trkpt>
      <trkpt lat="44.82988" lon="6.46376">
        <ele>1760</ele>
        <time>2010-07-28T11:50:45Z</time>
      </trkpt>
      <trkpt lat="44.82987" lon="6.46371">
        <ele>1761</ele>
        <time>2010-07-28T11:50:47Z</time>
      </trkpt>
      <trkpt lat="44.8299" lon="6.46371">
        <ele>1761</ele>
        <time>2010-07-28T11:50:52Z</time>
      </trkpt>
      <trkpt lat="44.8299" lon="6.46376">
        <ele>1760</ele>
        <time>2010-07-28T11:50:56Z</time>
      </trkpt>
      <trkpt lat="44.82992" lon="6.46384">
        <ele>1758</ele>
        <time>2010-07-28T11:51:00Z</time>
      </trkpt>
      <trkpt lat="44.82997" lon="6.46397">
        <ele>1753</ele>
        <time>2010-07-28T11:51:04Z</time>
      </trkpt>
      <trkpt lat="44.82999" lon="6.46413">
        <ele>1742</ele>
        <time>2010-07-28T11:51:08Z</time>
      </trkpt>
      <trkpt lat="44.83001" lon="6.46437">
        <ele>1725</ele>
        <time>2010-07-28T11:51:12Z</time>
      </trkpt>
      <trkpt lat="44.83" lon="6.46442">
        <ele>1723</ele>
        <time>2010-07-28T11:51:14Z</time>
      </trkpt>
      <trkpt lat="44.83008" lon="6.46438">
        <ele>1723</ele>
        <time>2010-07-28T11:51:19Z</time>
      </trkpt>
      <trkpt lat="44.83009" lon="6.46436">
        <ele>1724</ele>
        <time>2010-07-28T11:51:20Z</time>
      </trkpt>
      <trkpt lat="44.83017" lon="6.46444">
        <ele>1719</ele>
        <time>2010-07-28T11:51:25Z</time>
      </trkpt>
      <trkpt lat="44.83021" lon="6.46452">
        <ele>1717</ele>
        <time>2010-07-28T11:51:28Z</time>
      </trkpt>
      <trkpt lat="44.83032" lon="6.46447">
        <ele>1716</ele>
        <time>2010-07-28T11:51:33Z</time>
      </trkpt>
      <trkpt lat="44.83038" lon="6.46432">
        <ele>1716</ele>
        <time>2010-07-28T11:51:37Z</time>
      </trkpt>
      <trkpt lat="44.83039" lon="6.46426">
        <ele>1716</ele>
        <time>2010-07-28T11:51:40Z</time>
      </trkpt>
      <trkpt lat="44.8304" lon="6.46421">
        <ele>1716</ele>
        <time>2010-07-28T11:51:43Z</time>
      </trkpt>
      <trkpt lat="44.83048" lon="6.46399">
        <ele>1724</ele>
        <time>2010-07-28T11:51:49Z</time>
      </trkpt>
      <trkpt lat="44.83056" lon="6.46383">
        <ele>1724</ele>
        <time>2010-07-28T11:51:53Z</time>
      </trkpt>
      <trkpt lat="44.83061" lon="6.46383">
        <ele>1723</ele>
        <time>2010-07-28T11:51:57Z</time>
      </trkpt>
      <trkpt lat="44.83061" lon="6.46385">
        <ele>1723</ele>
        <time>2010-07-28T11:51:58Z</time>
      </trkpt>
      <trkpt lat="44.83065" lon="6.46395">
        <ele>1719</ele>
        <time>2010-07-28T11:52:02Z</time>
      </trkpt>
      <trkpt lat="44.83071" lon="6.46406">
        <ele>1715</ele>
        <time>2010-07-28T11:52:08Z</time>
      </trkpt>
      <trkpt lat="44.83075" lon="6.46401">
        <ele>1715</ele>
        <time>2010-07-28T11:52:10Z</time>
      </trkpt>
      <trkpt lat="44.83078" lon="6.46392">
        <ele>1718</ele>
        <time>2010-07-28T11:52:12Z</time>
      </trkpt>
      <trkpt lat="44.83092" lon="6.46376">
        <ele>1694</ele>
        <time>2010-07-28T11:52:18Z</time>
      </trkpt>
      <trkpt lat="44.83097" lon="6.46361">
        <ele>1695</ele>
        <time>2010-07-28T11:52:23Z</time>
      </trkpt>
      <trkpt lat="44.83102" lon="6.4636">
        <ele>1694</ele>
        <time>2010-07-28T11:52:31Z</time>
      </trkpt>
      <trkpt lat="44.8311" lon="6.46341">
        <ele>1695</ele>
        <time>2010-07-28T11:52:36Z</time>
      </trkpt>
      <trkpt lat="44.83118" lon="6.46326">
        <ele>1696</ele>
        <time>2010-07-28T11:52:40Z</time>
      </trkpt>
      <trkpt lat="44.83126" lon="6.46332">
        <ele>1693</ele>
        <time>2010-07-28T11:52:45Z</time>
      </trkpt>
      <trkpt lat="44.83127" lon="6.46341">
        <ele>1688</ele>
        <time>2010-07-28T11:52:47Z</time>
      </trkpt>
      <trkpt lat="44.83126" lon="6.46367">
        <ele>1687</ele>
        <time>2010-07-28T11:52:51Z</time>
      </trkpt>
      <trkpt lat="44.83126" lon="6.46399">
        <ele>1685</ele>
        <time>2010-07-28T11:52:55Z</time>
      </trkpt>
      <trkpt lat="44.83128" lon="6.46421">
        <ele>1677</ele>
        <time>2010-07-28T11:52:58Z</time>
      </trkpt>
      <trkpt lat="44.83128" lon="6.46428">
        <ele>1677</ele>
        <time>2010-07-28T11:52:59Z</time>
      </trkpt>
      <trkpt lat="44.83127" lon="6.46439">
        <ele>1677</ele>
        <time>2010-07-28T11:53:01Z</time>
      </trkpt>
      <trkpt lat="44.83129" lon="6.46455">
        <ele>1675</ele>
        <time>2010-07-28T11:53:04Z</time>
      </trkpt>
      <trkpt lat="44.83129" lon="6.46464">
        <ele>1675</ele>
        <time>2010-07-28T11:53:06Z</time>
      </trkpt>
      <trkpt lat="44.83129" lon="6.46492">
        <ele>1673</ele>
        <time>2010-07-28T11:53:10Z</time>
      </trkpt>
      <trkpt lat="44.83131" lon="6.46517">
        <ele>1662</ele>
        <time>2010-07-28T11:53:15Z</time>
      </trkpt>
      <trkpt lat="44.83132" lon="6.46519">
        <ele>1662</ele>
        <time>2010-07-28T11:53:16Z</time>
      </trkpt>
      <trkpt lat="44.83134" lon="6.46521">
        <ele>1661</ele>
        <time>2010-07-28T11:53:18Z</time>
      </trkpt>
      <trkpt lat="44.83145" lon="6.46512">
        <ele>1659</ele>
        <time>2010-07-28T11:53:23Z</time>
      </trkpt>
      <trkpt lat="44.83147" lon="6.4651">
        <ele>1658</ele>
        <time>2010-07-28T11:53:24Z</time>
      </trkpt>
      <trkpt lat="44.8315" lon="6.46516">
        <ele>1658</ele>
        <time>2010-07-28T11:53:29Z</time>
      </trkpt>
      <trkpt lat="44.8315" lon="6.46525">
        <ele>1658</ele>
        <time>2010-07-28T11:53:33Z</time>
      </trkpt>
      <trkpt lat="44.83151" lon="6.46525">
        <ele>1658</ele>
        <time>2010-07-28T11:53:35Z</time>
      </trkpt>
      <trkpt lat="44.83158" lon="6.46518">
        <ele>1657</ele>
        <time>2010-07-28T11:53:40Z</time>
      </trkpt>
      <trkpt lat="44.83166" lon="6.46514">
        <ele>1655</ele>
        <time>2010-07-28T11:53:43Z</time>
      </trkpt>
      <trkpt lat="44.83176" lon="6.46497">
        <ele>1647</ele>
        <time>2010-07-28T11:53:48Z</time>
      </trkpt>
      <trkpt lat="44.83181" lon="6.4649">
        <ele>1644</ele>
        <time>2010-07-28T11:53:50Z</time>
      </trkpt>
      <trkpt lat="44.83185" lon="6.46475">
        <ele>1641</ele>
        <time>2010-07-28T11:53:55Z</time>
      </trkpt>
      <trkpt lat="44.83186" lon="6.46471">
        <ele>1641</ele>
        <time>2010-07-28T11:53:56Z</time>
      </trkpt>
      <trkpt lat="44.83188" lon="6.46467">
        <ele>1640</ele>
        <time>2010-07-28T11:54:00Z</time>
      </trkpt>
      <trkpt lat="44.83188" lon="6.46463">
        <ele>1641</ele>
        <time>2010-07-28T11:54:05Z</time>
      </trkpt>
      <trkpt lat="44.8318" lon="6.46461">
        <ele>1642</ele>
        <time>2010-07-28T11:54:18Z</time>
      </trkpt>
      <trkpt lat="44.83197" lon="6.46458">
        <ele>1639</ele>
        <time>2010-07-28T11:54:44Z</time>
      </trkpt>
      <trkpt lat="44.83201" lon="6.46457">
        <ele>1638</ele>
        <time>2010-07-28T11:54:53Z</time>
      </trkpt>
      <trkpt lat="44.83201" lon="6.46457">
        <ele>1638</ele>
        <time>2010-07-28T11:54:54Z</time>
      </trkpt>
      <trkpt lat="44.83202" lon="6.46457">
        <ele>1638</ele>
        <time>2010-07-28T11:55:07Z</time>
      </trkpt>
      <trkpt lat="44.83197" lon="6.46461">
        <ele>1639</ele>
        <time>2010-07-28T11:55:17Z</time>
      </trkpt>
      <trkpt lat="44.83197" lon="6.46461">
        <ele>1639</ele>
        <time>2010-07-28T11:55:21Z</time>
      </trkpt>
      <trkpt lat="44.83199" lon="6.46462">
        <ele>1638</ele>
        <time>2010-07-28T11:55:32Z</time>
      </trkpt>
      <trkpt lat="44.83204" lon="6.46462">
        <ele>1637</ele>
        <time>2010-07-28T11:55:48Z</time>
      </trkpt>
      <trkpt lat="44.83198" lon="6.46463">
        <ele>1638</ele>
        <time>2010-07-28T11:55:58Z</time>
      </trkpt>
      <trkpt lat="44.83198" lon="6.46461">
        <ele>1638</ele>
        <time>2010-07-28T11:56:00Z</time>
      </trkpt>
      <trkpt lat="44.83203" lon="6.46445">
        <ele>1638</ele>
        <time>2010-07-28T11:56:05Z</time>
      </trkpt>
      <trkpt lat="44.83203" lon="6.4645">
        <ele>1638</ele>
        <time>2010-07-28T11:56:08Z</time>
      </trkpt>
      <trkpt lat="44.83208" lon="6.46457">
        <ele>1636</ele>
        <time>2010-07-28T11:56:13Z</time>
      </trkpt>
      <trkpt lat="44.83213" lon="6.46462">
        <ele>1635</ele>
        <time>2010-07-28T11:56:16Z</time>
      </trkpt>
      <trkpt lat="44.83212" lon="6.46479">
        <ele>1634</ele>
        <time>2010-07-28T11:56:20Z</time>
      </trkpt>
      <trkpt lat="44.83211" lon="6.46485">
        <ele>1634</ele>
        <time>2010-07-28T11:56:21Z</time>
      </trkpt>
      <trkpt lat="44.83211" lon="6.46516">
        <ele>1628</ele>
        <time>2010-07-28T11:56:25Z</time>
      </trkpt>
      <trkpt lat="44.83212" lon="6.4653">
        <ele>1627</ele>
        <time>2010-07-28T11:56:27Z</time>
      </trkpt>
      <trkpt lat="44.83214" lon="6.46552">
        <ele>1625</ele>
        <time>2010-07-28T11:56:30Z</time>
      </trkpt>
      <trkpt lat="44.83213" lon="6.46573">
        <ele>1624</ele>
        <time>2010-07-28T11:56:33Z</time>
      </trkpt>
      <trkpt lat="44.83217" lon="6.46587">
        <ele>1613</ele>
        <time>2010-07-28T11:56:37Z</time>
      </trkpt>
      <trkpt lat="44.8323" lon="6.46577">
        <ele>1618</ele>
        <time>2010-07-28T11:56:42Z</time>
      </trkpt>
      <trkpt lat="44.83245" lon="6.4656">
        <ele>1618</ele>
        <time>2010-07-28T11:56:46Z</time>
      </trkpt>
      <trkpt lat="44.83252" lon="6.46544">
        <ele>1597</ele>
        <time>2010-07-28T11:56:49Z</time>
      </trkpt>
      <trkpt lat="44.83264" lon="6.4652">
        <ele>1599</ele>
        <time>2010-07-28T11:56:53Z</time>
      </trkpt>
      <trkpt lat="44.83269" lon="6.46497">
        <ele>1602</ele>
        <time>2010-07-28T11:56:58Z</time>
      </trkpt>
      <trkpt lat="44.8327" lon="6.46493">
        <ele>1601</ele>
        <time>2010-07-28T11:56:59Z</time>
      </trkpt>
      <trkpt lat="44.83273" lon="6.46483">
        <ele>1599</ele>
        <time>2010-07-28T11:57:01Z</time>
      </trkpt>
      <trkpt lat="44.83281" lon="6.46465">
        <ele>1596</ele>
        <time>2010-07-28T11:57:04Z</time>
      </trkpt>
      <trkpt lat="44.83283" lon="6.46448">
        <ele>1596</ele>
        <time>2010-07-28T11:57:07Z</time>
      </trkpt>
      <trkpt lat="44.83293" lon="6.46445">
        <ele>1593</ele>
        <time>2010-07-28T11:57:11Z</time>
      </trkpt>
      <trkpt lat="44.83296" lon="6.46448">
        <ele>1593</ele>
        <time>2010-07-28T11:57:14Z</time>
      </trkpt>
      <trkpt lat="44.83298" lon="6.46448">
        <ele>1592</ele>
        <time>2010-07-28T11:57:16Z</time>
      </trkpt>
      <trkpt lat="44.83306" lon="6.46461">
        <ele>1590</ele>
        <time>2010-07-28T11:57:22Z</time>
      </trkpt>
      <trkpt lat="44.83302" lon="6.46476">
        <ele>1591</ele>
        <time>2010-07-28T11:57:27Z</time>
      </trkpt>
      <trkpt lat="44.833" lon="6.46502">
        <ele>1588</ele>
        <time>2010-07-28T11:57:31Z</time>
      </trkpt>
      <trkpt lat="44.83304" lon="6.46526">
        <ele>1587</ele>
        <time>2010-07-28T11:57:35Z</time>
      </trkpt>
      <trkpt lat="44.83305" lon="6.46542">
        <ele>1586</ele>
        <time>2010-07-28T11:57:38Z</time>
      </trkpt>
      <trkpt lat="44.83306" lon="6.46557">
        <ele>1585</ele>
        <time>2010-07-28T11:57:40Z</time>
      </trkpt>
      <trkpt lat="44.83305" lon="6.46586">
        <ele>1576</ele>
        <time>2010-07-28T11:57:44Z</time>
      </trkpt>
      <trkpt lat="44.83312" lon="6.4661">
        <ele>1575</ele>
        <time>2010-07-28T11:57:48Z</time>
      </trkpt>
      <trkpt lat="44.83327" lon="6.46644">
        <ele>1568</ele>
        <time>2010-07-28T11:57:53Z</time>
      </trkpt>
      <trkpt lat="44.83334" lon="6.46654">
        <ele>1548</ele>
        <time>2010-07-28T11:57:55Z</time>
      </trkpt>
      <trkpt lat="44.83337" lon="6.46663">
        <ele>1551</ele>
        <time>2010-07-28T11:58:00Z</time>
      </trkpt>
      <trkpt lat="44.83336" lon="6.46662">
        <ele>1551</ele>
        <time>2010-07-28T11:58:02Z</time>
      </trkpt>
      <trkpt lat="44.83336" lon="6.4666">
        <ele>1550</ele>
        <time>2010-07-28T11:58:05Z</time>
      </trkpt>
      <trkpt lat="44.83344" lon="6.46652">
        <ele>1545</ele>
        <time>2010-07-28T11:58:10Z</time>
      </trkpt>
      <trkpt lat="44.83347" lon="6.4665">
        <ele>1544</ele>
        <time>2010-07-28T11:58:12Z</time>
      </trkpt>
      <trkpt lat="44.83346" lon="6.46658">
        <ele>1546</ele>
        <time>2010-07-28T11:58:17Z</time>
      </trkpt>
      <trkpt lat="44.83348" lon="6.46665">
        <ele>1546</ele>
        <time>2010-07-28T11:58:20Z</time>
      </trkpt>
      <trkpt lat="44.83348" lon="6.46668">
        <ele>1541</ele>
        <time>2010-07-28T11:58:22Z</time>
      </trkpt>
      <trkpt lat="44.83351" lon="6.4667">
        <ele>1539</ele>
        <time>2010-07-28T11:58:27Z</time>
      </trkpt>
      <trkpt lat="44.83353" lon="6.46667">
        <ele>1538</ele>
        <time>2010-07-28T11:58:30Z</time>
      </trkpt>
      <trkpt lat="44.83357" lon="6.46672">
        <ele>1536</ele>
        <time>2010-07-28T11:58:34Z</time>
      </trkpt>
      <trkpt lat="44.83357" lon="6.46678">
        <ele>1535</ele>
        <time>2010-07-28T11:58:38Z</time>
      </trkpt>
      <trkpt lat="44.8336" lon="6.46678">
        <ele>1533</ele>
        <time>2010-07-28T11:58:41Z</time>
      </trkpt>
      <trkpt lat="44.83363" lon="6.46676">
        <ele>1532</ele>
        <time>2010-07-28T11:58:52Z</time>
      </trkpt>
      <trkpt lat="44.83362" lon="6.46672">
        <ele>1533</ele>
        <time>2010-07-28T11:59:00Z</time>
      </trkpt>
      <trkpt lat="44.83354" lon="6.46672">
        <ele>1537</ele>
        <time>2010-07-28T11:59:11Z</time>
      </trkpt>
      <trkpt lat="44.83357" lon="6.46672">
        <ele>1536</ele>
        <time>2010-07-28T11:59:25Z</time>
      </trkpt>
      <trkpt lat="44.8336" lon="6.46674">
        <ele>1534</ele>
        <time>2010-07-28T11:59:35Z</time>
      </trkpt>
      <trkpt lat="44.83366" lon="6.46674">
        <ele>1531</ele>
        <time>2010-07-28T11:59:41Z</time>
      </trkpt>
      <trkpt lat="44.83372" lon="6.46653">
        <ele>1536</ele>
        <time>2010-07-28T11:59:46Z</time>
      </trkpt>
      <trkpt lat="44.83378" lon="6.46629">
        <ele>1535</ele>
        <time>2010-07-28T11:59:50Z</time>
      </trkpt>
      <trkpt lat="44.8338" lon="6.46625">
        <ele>1534</ele>
        <time>2010-07-28T11:59:51Z</time>
      </trkpt>
      <trkpt lat="44.83383" lon="6.466">
        <ele>1534</ele>
        <time>2010-07-28T11:59:57Z</time>
      </trkpt>
      <trkpt lat="44.83392" lon="6.46581">
        <ele>1533</ele>
        <time>2010-07-28T12:00:02Z</time>
      </trkpt>
      <trkpt lat="44.83404" lon="6.46565">
        <ele>1530</ele>
        <time>2010-07-28T12:00:06Z</time>
      </trkpt>
      <trkpt lat="44.83411" lon="6.46553">
        <ele>1532</ele>
        <time>2010-07-28T12:00:08Z</time>
      </trkpt>
      <trkpt lat="44.83425" lon="6.46535">
        <ele>1496</ele>
        <time>2010-07-28T12:00:11Z</time>
      </trkpt>
      <trkpt lat="44.83438" lon="6.46515">
        <ele>1496</ele>
        <time>2010-07-28T12:00:15Z</time>
      </trkpt>
      <trkpt lat="44.83439" lon="6.46505">
        <ele>1497</ele>
        <time>2010-07-28T12:00:18Z</time>
      </trkpt>
      <trkpt lat="44.83438" lon="6.46503">
        <ele>1498</ele>
        <time>2010-07-28T12:00:23Z</time>
      </trkpt>
      <trkpt lat="44.83438" lon="6.46504">
        <ele>1498</ele>
        <time>2010-07-28T12:00:24Z</time>
      </trkpt>
      <trkpt lat="44.83438" lon="6.46513">
        <ele>1496</ele>
        <time>2010-07-28T12:00:28Z</time>
      </trkpt>
      <trkpt lat="44.8344" lon="6.4653">
        <ele>1492</ele>
        <time>2010-07-28T12:00:34Z</time>
      </trkpt>
      <trkpt lat="44.8344" lon="6.46546">
        <ele>1491</ele>
        <time>2010-07-28T12:00:38Z</time>
      </trkpt>
      <trkpt lat="44.83439" lon="6.46565">
        <ele>1493</ele>
        <time>2010-07-28T12:00:43Z</time>
      </trkpt>
      <trkpt lat="44.83438" lon="6.4658">
        <ele>1496</ele>
        <time>2010-07-28T12:00:48Z</time>
      </trkpt>
      <trkpt lat="44.83436" lon="6.466">
        <ele>1493</ele>
        <time>2010-07-28T12:00:52Z</time>
      </trkpt>
      <trkpt lat="44.83436" lon="6.46621">
        <ele>1489</ele>
        <time>2010-07-28T12:00:56Z</time>
      </trkpt>
      <trkpt lat="44.83439" lon="6.4664">
        <ele>1488</ele>
        <time>2010-07-28T12:01:00Z</time>
      </trkpt>
      <trkpt lat="44.83445" lon="6.46665">
        <ele>1488</ele>
        <time>2010-07-28T12:01:05Z</time>
      </trkpt>
      <trkpt lat="44.83448" lon="6.46678">
        <ele>1483</ele>
        <time>2010-07-28T12:01:07Z</time>
      </trkpt>
      <trkpt lat="44.83456" lon="6.467">
        <ele>1479</ele>
        <time>2010-07-28T12:01:11Z</time>
      </trkpt>
      <trkpt lat="44.83464" lon="6.46723">
        <ele>1475</ele>
        <time>2010-07-28T12:01:16Z</time>
      </trkpt>
      <trkpt lat="44.83471" lon="6.46741">
        <ele>1472</ele>
        <time>2010-07-28T12:01:19Z</time>
      </trkpt>
      <trkpt lat="44.83474" lon="6.46756">
        <ele>1465</ele>
        <time>2010-07-28T12:01:21Z</time>
      </trkpt>
      <trkpt lat="44.8348" lon="6.4679">
        <ele>1464</ele>
        <time>2010-07-28T12:01:26Z</time>
      </trkpt>
      <trkpt lat="44.83478" lon="6.46808">
        <ele>1462</ele>
        <time>2010-07-28T12:01:30Z</time>
      </trkpt>
      <trkpt lat="44.8347" lon="6.46818">
        <ele>1464</ele>
        <time>2010-07-28T12:01:32Z</time>
      </trkpt>
      <trkpt lat="44.83461" lon="6.46837">
        <ele>1459</ele>
        <time>2010-07-28T12:01:36Z</time>
      </trkpt>
      <trkpt lat="44.83461" lon="6.46859">
        <ele>1459</ele>
        <time>2010-07-28T12:01:41Z</time>
      </trkpt>
      <trkpt lat="44.83464" lon="6.46879">
        <ele>1456</ele>
        <time>2010-07-28T12:01:45Z</time>
      </trkpt>
      <trkpt lat="44.83469" lon="6.46904">
        <ele>1452</ele>
        <time>2010-07-28T12:01:49Z</time>
      </trkpt>
      <trkpt lat="44.83475" lon="6.46919">
        <ele>1444</ele>
        <time>2010-07-28T12:01:53Z</time>
      </trkpt>
      <trkpt lat="44.83478" lon="6.46937">
        <ele>1445</ele>
        <time>2010-07-28T12:01:58Z</time>
      </trkpt>
      <trkpt lat="44.83488" lon="6.46953">
        <ele>1444</ele>
        <time>2010-07-28T12:02:03Z</time>
      </trkpt>
      <trkpt lat="44.83489" lon="6.46956">
        <ele>1444</ele>
        <time>2010-07-28T12:02:04Z</time>
      </trkpt>
      <trkpt lat="44.83493" lon="6.46974">
        <ele>1442</ele>
        <time>2010-07-28T12:02:10Z</time>
      </trkpt>
      <trkpt lat="44.83503" lon="6.47">
        <ele>1425</ele>
        <time>2010-07-28T12:02:15Z</time>
      </trkpt>
      <trkpt lat="44.83512" lon="6.47023">
        <ele>1417</ele>
        <time>2010-07-28T12:02:18Z</time>
      </trkpt>
      <trkpt lat="44.83517" lon="6.47047">
        <ele>1416</ele>
        <time>2010-07-28T12:02:22Z</time>
      </trkpt>
      <trkpt lat="44.83519" lon="6.47062">
        <ele>1417</ele>
        <time>2010-07-28T12:02:27Z</time>
      </trkpt>
      <trkpt lat="44.83538" lon="6.47067">
        <ele>1412</ele>
        <time>2010-07-28T12:03:08Z</time>
      </trkpt>
      <trkpt lat="44.83547" lon="6.47065">
        <ele>1409</ele>
        <time>2010-07-28T12:03:18Z</time>
      </trkpt>
      <trkpt lat="44.83539" lon="6.47074">
        <ele>1412</ele>
        <time>2010-07-28T12:03:59Z</time>
      </trkpt>
      <trkpt lat="44.83545" lon="6.47091">
        <ele>1409</ele>
        <time>2010-07-28T12:04:03Z</time>
      </trkpt>
      <trkpt lat="44.83555" lon="6.47116">
        <ele>1407</ele>
        <time>2010-07-28T12:04:07Z</time>
      </trkpt>
      <trkpt lat="44.83557" lon="6.47122">
        <ele>1406</ele>
        <time>2010-07-28T12:04:08Z</time>
      </trkpt>
      <trkpt lat="44.83575" lon="6.47155">
        <ele>1396</ele>
        <time>2010-07-28T12:04:13Z</time>
      </trkpt>
      <trkpt lat="44.8358" lon="6.47183">
        <ele>1395</ele>
        <time>2010-07-28T12:04:18Z</time>
      </trkpt>
      <trkpt lat="44.8358" lon="6.47195">
        <ele>1397</ele>
        <time>2010-07-28T12:04:21Z</time>
      </trkpt>
      <trkpt lat="44.83585" lon="6.47223">
        <ele>1375</ele>
        <time>2010-07-28T12:04:27Z</time>
      </trkpt>
      <trkpt lat="44.836" lon="6.4725">
        <ele>1374</ele>
        <time>2010-07-28T12:04:32Z</time>
      </trkpt>
      <trkpt lat="44.83606" lon="6.47267">
        <ele>1369</ele>
        <time>2010-07-28T12:04:36Z</time>
      </trkpt>
      <trkpt lat="44.83607" lon="6.47268">
        <ele>1369</ele>
        <time>2010-07-28T12:04:38Z</time>
      </trkpt>
      <trkpt lat="44.83611" lon="6.47275">
        <ele>1367</ele>
        <time>2010-07-28T12:04:43Z</time>
      </trkpt>
      <trkpt lat="44.83617" lon="6.47281">
        <ele>1365</ele>
        <time>2010-07-28T12:04:48Z</time>
      </trkpt>
      <trkpt lat="44.83622" lon="6.47286">
        <ele>1364</ele>
        <time>2010-07-28T12:04:51Z</time>
      </trkpt>
      <trkpt lat="44.83623" lon="6.47291">
        <ele>1363</ele>
        <time>2010-07-28T12:04:53Z</time>
      </trkpt>
      <trkpt lat="44.83632" lon="6.47299">
        <ele>1361</ele>
        <time>2010-07-28T12:04:58Z</time>
      </trkpt>
      <trkpt lat="44.83635" lon="6.47298">
        <ele>1360</ele>
        <time>2010-07-28T12:05:00Z</time>
      </trkpt>
      <trkpt lat="44.83635" lon="6.47303">
        <ele>1360</ele>
        <time>2010-07-28T12:05:04Z</time>
      </trkpt>
      <trkpt lat="44.83636" lon="6.47305">
        <ele>1359</ele>
        <time>2010-07-28T12:05:11Z</time>
      </trkpt>
      <trkpt lat="44.83638" lon="6.47306">
        <ele>1358</ele>
        <time>2010-07-28T12:05:21Z</time>
      </trkpt>
      <trkpt lat="44.83639" lon="6.47306">
        <ele>1358</ele>
        <time>2010-07-28T12:05:25Z</time>
      </trkpt>
      <trkpt lat="44.83642" lon="6.47306">
        <ele>1358</ele>
        <time>2010-07-28T12:05:44Z</time>
      </trkpt>
      <trkpt lat="44.83638" lon="6.47308">
        <ele>1358</ele>
        <time>2010-07-28T12:06:36Z</time>
      </trkpt>
      <trkpt lat="44.83639" lon="6.47307">
        <ele>1358</ele>
        <time>2010-07-28T12:06:41Z</time>
      </trkpt>
      <trkpt lat="44.83639" lon="6.47307">
        <ele>1358</ele>
        <time>2010-07-28T12:06:42Z</time>
      </trkpt>
      <trkpt lat="44.83638" lon="6.4731">
        <ele>1358</ele>
        <time>2010-07-28T12:06:44Z</time>
      </trkpt>
      <trkpt lat="44.83637" lon="6.47327">
        <ele>1357</ele>
        <time>2010-07-28T12:06:49Z</time>
      </trkpt>
      <trkpt lat="44.83645" lon="6.47331">
        <ele>1353</ele>
        <time>2010-07-28T12:06:53Z</time>
      </trkpt>
      <trkpt lat="44.83649" lon="6.47333">
        <ele>1351</ele>
        <time>2010-07-28T12:06:56Z</time>
      </trkpt>
      <trkpt lat="44.83649" lon="6.47336">
        <ele>1347</ele>
        <time>2010-07-28T12:06:58Z</time>
      </trkpt>
      <trkpt lat="44.8365" lon="6.47339">
        <ele>1346</ele>
        <time>2010-07-28T12:06:59Z</time>
      </trkpt>
      <trkpt lat="44.83652" lon="6.47347">
        <ele>1346</ele>
        <time>2010-07-28T12:07:01Z</time>
      </trkpt>
      <trkpt lat="44.83652" lon="6.47351">
        <ele>1347</ele>
        <time>2010-07-28T12:07:02Z</time>
      </trkpt>
      <trkpt lat="44.83652" lon="6.47354">
        <ele>1347</ele>
        <time>2010-07-28T12:07:03Z</time>
      </trkpt>
      <trkpt lat="44.83654" lon="6.47374">
        <ele>1347</ele>
        <time>2010-07-28T12:07:08Z</time>
      </trkpt>
      <trkpt lat="44.83656" lon="6.47393">
        <ele>1343</ele>
        <time>2010-07-28T12:07:12Z</time>
      </trkpt>
      <trkpt lat="44.83657" lon="6.47403">
        <ele>1339</ele>
        <time>2010-07-28T12:07:14Z</time>
      </trkpt>
      <trkpt lat="44.83647" lon="6.4741">
        <ele>1342</ele>
        <time>2010-07-28T12:07:19Z</time>
      </trkpt>
      <trkpt lat="44.83642" lon="6.47415">
        <ele>1344</ele>
        <time>2010-07-28T12:07:21Z</time>
      </trkpt>
      <trkpt lat="44.8363" lon="6.47429">
        <ele>1342</ele>
        <time>2010-07-28T12:07:25Z</time>
      </trkpt>
      <trkpt lat="44.83627" lon="6.47456">
        <ele>1342</ele>
        <time>2010-07-28T12:07:31Z</time>
      </trkpt>
      <trkpt lat="44.83638" lon="6.47452">
        <ele>1340</ele>
        <time>2010-07-28T12:07:36Z</time>
      </trkpt>
      <trkpt lat="44.83659" lon="6.47453">
        <ele>1336</ele>
        <time>2010-07-28T12:07:42Z</time>
      </trkpt>
      <trkpt lat="44.8367" lon="6.47452">
        <ele>1308</ele>
        <time>2010-07-28T12:07:45Z</time>
      </trkpt>
      <trkpt lat="44.83662" lon="6.47462">
        <ele>1334</ele>
        <time>2010-07-28T12:07:50Z</time>
      </trkpt>
      <trkpt lat="44.83656" lon="6.4747">
        <ele>1334</ele>
        <time>2010-07-28T12:07:53Z</time>
      </trkpt>
      <trkpt lat="44.83661" lon="6.47476">
        <ele>1331</ele>
        <time>2010-07-28T12:07:58Z</time>
      </trkpt>
      <trkpt lat="44.83663" lon="6.47477">
        <ele>1331</ele>
        <time>2010-07-28T12:07:59Z</time>
      </trkpt>
      <trkpt lat="44.83665" lon="6.47477">
        <ele>1330</ele>
        <time>2010-07-28T12:08:01Z</time>
      </trkpt>
      <trkpt lat="44.83666" lon="6.47482">
        <ele>1328</ele>
        <time>2010-07-28T12:08:05Z</time>
      </trkpt>
      <trkpt lat="44.83663" lon="6.47488">
        <ele>1325</ele>
        <time>2010-07-28T12:08:07Z</time>
      </trkpt>
      <trkpt lat="44.83662" lon="6.47499">
        <ele>1320</ele>
        <time>2010-07-28T12:08:08Z</time>
      </trkpt>
      <trkpt lat="44.83673" lon="6.47533">
        <ele>1300</ele>
        <time>2010-07-28T12:08:13Z</time>
      </trkpt>
      <trkpt lat="44.83686" lon="6.47546">
        <ele>1297</ele>
        <time>2010-07-28T12:08:16Z</time>
      </trkpt>
      <trkpt lat="44.83697" lon="6.47572">
        <ele>1295</ele>
        <time>2010-07-28T12:08:20Z</time>
      </trkpt>
      <trkpt lat="44.83708" lon="6.47611">
        <ele>1289</ele>
        <time>2010-07-28T12:08:27Z</time>
      </trkpt>
      <trkpt lat="44.83711" lon="6.47616">
        <ele>1288</ele>
        <time>2010-07-28T12:08:28Z</time>
      </trkpt>
      <trkpt lat="44.8372" lon="6.47615">
        <ele>1286</ele>
        <time>2010-07-28T12:08:32Z</time>
      </trkpt>
      <trkpt lat="44.83726" lon="6.47607">
        <ele>1284</ele>
        <time>2010-07-28T12:08:35Z</time>
      </trkpt>
      <trkpt lat="44.83733" lon="6.47589">
        <ele>1280</ele>
        <time>2010-07-28T12:08:39Z</time>
      </trkpt>
      <trkpt lat="44.83728" lon="6.47557">
        <ele>1286</ele>
        <time>2010-07-28T12:08:43Z</time>
      </trkpt>
      <trkpt lat="44.83715" lon="6.4753">
        <ele>1289</ele>
        <time>2010-07-28T12:08:46Z</time>
      </trkpt>
      <trkpt lat="44.83723" lon="6.47514">
        <ele>1286</ele>
        <time>2010-07-28T12:08:49Z</time>
      </trkpt>
      <trkpt lat="44.83728" lon="6.47508">
        <ele>1284</ele>
        <time>2010-07-28T12:08:51Z</time>
      </trkpt>
      <trkpt lat="44.83734" lon="6.47505">
        <ele>1281</ele>
        <time>2010-07-28T12:08:56Z</time>
      </trkpt>
      <trkpt lat="44.83737" lon="6.47532">
        <ele>1284</ele>
        <time>2010-07-28T12:09:00Z</time>
      </trkpt>
      <trkpt lat="44.83739" lon="6.47541">
        <ele>1284</ele>
        <time>2010-07-28T12:09:01Z</time>
      </trkpt>
      <trkpt lat="44.83743" lon="6.47555">
        <ele>1283</ele>
        <time>2010-07-28T12:09:03Z</time>
      </trkpt>
      <trkpt lat="44.83762" lon="6.47566">
        <ele>1255</ele>
        <time>2010-07-28T12:09:07Z</time>
      </trkpt>
      <trkpt lat="44.83763" lon="6.47559">
        <ele>1252</ele>
        <time>2010-07-28T12:09:10Z</time>
      </trkpt>
      <trkpt lat="44.83761" lon="6.47552">
        <ele>1252</ele>
        <time>2010-07-28T12:09:11Z</time>
      </trkpt>
      <trkpt lat="44.83764" lon="6.47541">
        <ele>1250</ele>
        <time>2010-07-28T12:09:15Z</time>
      </trkpt>
      <trkpt lat="44.83763" lon="6.47534">
        <ele>1251</ele>
        <time>2010-07-28T12:09:20Z</time>
      </trkpt>
      <trkpt lat="44.83759" lon="6.47529">
        <ele>1253</ele>
        <time>2010-07-28T12:09:29Z</time>
      </trkpt>
      <trkpt lat="44.83763" lon="6.47528">
        <ele>1252</ele>
        <time>2010-07-28T12:09:31Z</time>
      </trkpt>
      <trkpt lat="44.8377" lon="6.4753">
        <ele>1250</ele>
        <time>2010-07-28T12:09:38Z</time>
      </trkpt>
      <trkpt lat="44.8376" lon="6.47541">
        <ele>1251</ele>
        <time>2010-07-28T12:09:56Z</time>
      </trkpt>
      <trkpt lat="44.83758" lon="6.47544">
        <ele>1252</ele>
        <time>2010-07-28T12:10:02Z</time>
      </trkpt>
      <trkpt lat="44.83756" lon="6.47537">
        <ele>1252</ele>
        <time>2010-07-28T12:10:17Z</time>
      </trkpt>
      <trkpt lat="44.83757" lon="6.47532">
        <ele>1252</ele>
        <time>2010-07-28T12:10:26Z</time>
      </trkpt>
      <trkpt lat="44.83768" lon="6.47531">
        <ele>1250</ele>
        <time>2010-07-28T12:10:38Z</time>
      </trkpt>
      <trkpt lat="44.83773" lon="6.47529">
        <ele>1249</ele>
        <time>2010-07-28T12:10:47Z</time>
      </trkpt>
      <trkpt lat="44.83772" lon="6.47524">
        <ele>1250</ele>
        <time>2010-07-28T12:10:55Z</time>
      </trkpt>
      <trkpt lat="44.83785" lon="6.47524">
        <ele>1245</ele>
        <time>2010-07-28T12:11:25Z</time>
      </trkpt>
      <trkpt lat="44.83788" lon="6.47535">
        <ele>1244</ele>
        <time>2010-07-28T12:11:30Z</time>
      </trkpt>
      <trkpt lat="44.83796" lon="6.47558">
        <ele>1241</ele>
        <time>2010-07-28T12:11:34Z</time>
      </trkpt>
      <trkpt lat="44.83809" lon="6.47589">
        <ele>1233</ele>
        <time>2010-07-28T12:11:39Z</time>
      </trkpt>
      <trkpt lat="44.83822" lon="6.47619">
        <ele>1233</ele>
        <time>2010-07-28T12:11:43Z</time>
      </trkpt>
      <trkpt lat="44.83829" lon="6.47637">
        <ele>1231</ele>
        <time>2010-07-28T12:11:45Z</time>
      </trkpt>
      <trkpt lat="44.83836" lon="6.47654">
        <ele>1210</ele>
        <time>2010-07-28T12:11:47Z</time>
      </trkpt>
      <trkpt lat="44.83833" lon="6.47678">
        <ele>1225</ele>
        <time>2010-07-28T12:11:51Z</time>
      </trkpt>
      <trkpt lat="44.83832" lon="6.47686">
        <ele>1228</ele>
        <time>2010-07-28T12:11:52Z</time>
      </trkpt>
      <trkpt lat="44.8383" lon="6.47704">
        <ele>1232</ele>
        <time>2010-07-28T12:11:56Z</time>
      </trkpt>
      <trkpt lat="44.83825" lon="6.47719">
        <ele>1232</ele>
        <time>2010-07-28T12:12:02Z</time>
      </trkpt>
      <trkpt lat="44.83822" lon="6.47726">
        <ele>1232</ele>
        <time>2010-07-28T12:12:14Z</time>
      </trkpt>
      <trkpt lat="44.83817" lon="6.4773">
        <ele>1232</ele>
        <time>2010-07-28T12:12:33Z</time>
      </trkpt>
      <trkpt lat="44.83817" lon="6.47729">
        <ele>1232</ele>
        <time>2010-07-28T12:12:34Z</time>
      </trkpt>
      <trkpt lat="44.83823" lon="6.4773">
        <ele>1231</ele>
        <time>2010-07-28T12:12:41Z</time>
      </trkpt>
      <trkpt lat="44.83818" lon="6.47729">
        <ele>1232</ele>
        <time>2010-07-28T12:12:48Z</time>
      </trkpt>
      <trkpt lat="44.83808" lon="6.47733">
        <ele>1235</ele>
        <time>2010-07-28T12:13:01Z</time>
      </trkpt>
      <trkpt lat="44.838" lon="6.47729">
        <ele>1237</ele>
        <time>2010-07-28T12:13:06Z</time>
      </trkpt>
      <trkpt lat="44.83802" lon="6.4773">
        <ele>1237</ele>
        <time>2010-07-28T12:13:18Z</time>
      </trkpt>
      <trkpt lat="44.83808" lon="6.47736">
        <ele>1234</ele>
        <time>2010-07-28T12:13:22Z</time>
      </trkpt>
      <trkpt lat="44.83816" lon="6.47738">
        <ele>1231</ele>
        <time>2010-07-28T12:13:27Z</time>
      </trkpt>
      <trkpt lat="44.83822" lon="6.47741">
        <ele>1228</ele>
        <time>2010-07-28T12:13:34Z</time>
      </trkpt>
      <trkpt lat="44.83844" lon="6.47734">
        <ele>1211</ele>
        <time>2010-07-28T12:13:53Z</time>
      </trkpt>
      <trkpt lat="44.83849" lon="6.47737">
        <ele>1210</ele>
        <time>2010-07-28T12:13:57Z</time>
      </trkpt>
      <trkpt lat="44.83852" lon="6.4774">
        <ele>1209</ele>
        <time>2010-07-28T12:13:59Z</time>
      </trkpt>
      <trkpt lat="44.83866" lon="6.47746">
        <ele>1206</ele>
        <time>2010-07-28T12:14:05Z</time>
      </trkpt>
      <trkpt lat="44.83874" lon="6.47746">
        <ele>1204</ele>
        <time>2010-07-28T12:14:08Z</time>
      </trkpt>
      <trkpt lat="44.83878" lon="6.47747">
        <ele>1203</ele>
        <time>2010-07-28T12:14:10Z</time>
      </trkpt>
      <trkpt lat="44.83887" lon="6.47751">
        <ele>1204</ele>
        <time>2010-07-28T12:14:13Z</time>
      </trkpt>
      <trkpt lat="44.83899" lon="6.47746">
        <ele>1198</ele>
        <time>2010-07-28T12:14:17Z</time>
      </trkpt>
      <trkpt lat="44.83915" lon="6.47738">
        <ele>1195</ele>
        <time>2010-07-28T12:14:21Z</time>
      </trkpt>
      <trkpt lat="44.83916" lon="6.47744">
        <ele>1194</ele>
        <time>2010-07-28T12:14:25Z</time>
      </trkpt>
      <trkpt lat="44.8392" lon="6.47753">
        <ele>1191</ele>
        <time>2010-07-28T12:14:32Z</time>
      </trkpt>
      <trkpt lat="44.83922" lon="6.47758">
        <ele>1191</ele>
        <time>2010-07-28T12:14:36Z</time>
      </trkpt>
      <trkpt lat="44.83923" lon="6.47765">
        <ele>1191</ele>
        <time>2010-07-28T12:14:41Z</time>
      </trkpt>
      <trkpt lat="44.83935" lon="6.47773">
        <ele>1191</ele>
        <time>2010-07-28T12:14:46Z</time>
      </trkpt>
      <trkpt lat="44.83948" lon="6.4779">
        <ele>1190</ele>
        <time>2010-07-28T12:14:52Z</time>
      </trkpt>
      <trkpt lat="44.83962" lon="6.4781">
        <ele>1189</ele>
        <time>2010-07-28T12:14:56Z</time>
      </trkpt>
      <trkpt lat="44.8397" lon="6.47831">
        <ele>1188</ele>
        <time>2010-07-28T12:15:01Z</time>
      </trkpt>
      <trkpt lat="44.83973" lon="6.47854">
        <ele>1188</ele>
        <time>2010-07-28T12:15:06Z</time>
      </trkpt>
      <trkpt lat="44.83972" lon="6.47877">
        <ele>1189</ele>
        <time>2010-07-28T12:15:11Z</time>
      </trkpt>
      <trkpt lat="44.83972" lon="6.47883">
        <ele>1189</ele>
        <time>2010-07-28T12:15:12Z</time>
      </trkpt>
      <trkpt lat="44.83972" lon="6.47888">
        <ele>1189</ele>
        <time>2010-07-28T12:15:13Z</time>
      </trkpt>
      <trkpt lat="44.83976" lon="6.47919">
        <ele>1189</ele>
        <time>2010-07-28T12:15:19Z</time>
      </trkpt>
      <trkpt lat="44.83971" lon="6.4795">
        <ele>1192</ele>
        <time>2010-07-28T12:15:24Z</time>
      </trkpt>
      <trkpt lat="44.83969" lon="6.47974">
        <ele>1192</ele>
        <time>2010-07-28T12:15:28Z</time>
      </trkpt>
      <trkpt lat="44.83967" lon="6.47986">
        <ele>1192</ele>
        <time>2010-07-28T12:15:30Z</time>
      </trkpt>
      <trkpt lat="44.83966" lon="6.48009">
        <ele>1195</ele>
        <time>2010-07-28T12:15:35Z</time>
      </trkpt>
      <trkpt lat="44.83972" lon="6.48019">
        <ele>1194</ele>
        <time>2010-07-28T12:15:38Z</time>
      </trkpt>
      <trkpt lat="44.83981" lon="6.48024">
        <ele>1192</ele>
        <time>2010-07-28T12:15:42Z</time>
      </trkpt>
      <trkpt lat="44.83982" lon="6.48023">
        <ele>1192</ele>
        <time>2010-07-28T12:15:43Z</time>
      </trkpt>
      <trkpt lat="44.83993" lon="6.48015">
        <ele>1187</ele>
        <time>2010-07-28T12:15:49Z</time>
      </trkpt>
      <trkpt lat="44.84002" lon="6.48016">
        <ele>1181</ele>
        <time>2010-07-28T12:15:53Z</time>
      </trkpt>
      <trkpt lat="44.8401" lon="6.48034">
        <ele>1182</ele>
        <time>2010-07-28T12:15:58Z</time>
      </trkpt>
      <trkpt lat="44.84018" lon="6.48056">
        <ele>1182</ele>
        <time>2010-07-28T12:16:03Z</time>
      </trkpt>
      <trkpt lat="44.84022" lon="6.48079">
        <ele>1182</ele>
        <time>2010-07-28T12:16:07Z</time>
      </trkpt>
      <trkpt lat="44.8402" lon="6.48104">
        <ele>1180</ele>
        <time>2010-07-28T12:16:11Z</time>
      </trkpt>
      <trkpt lat="44.84017" lon="6.48132">
        <ele>1180</ele>
        <time>2010-07-28T12:16:15Z</time>
      </trkpt>
      <trkpt lat="44.84012" lon="6.48173">
        <ele>1179</ele>
        <time>2010-07-28T12:16:20Z</time>
      </trkpt>
      <trkpt lat="44.84007" lon="6.48203">
        <ele>1177</ele>
        <time>2010-07-28T12:16:24Z</time>
      </trkpt>
      <trkpt lat="44.84003" lon="6.48232">
        <ele>1176</ele>
        <time>2010-07-28T12:16:28Z</time>
      </trkpt>
      <trkpt lat="44.84001" lon="6.4827">
        <ele>1173</ele>
        <time>2010-07-28T12:16:33Z</time>
      </trkpt>
      <trkpt lat="44.83997" lon="6.48323">
        <ele>1178</ele>
        <time>2010-07-28T12:16:39Z</time>
      </trkpt>
      <trkpt lat="44.83991" lon="6.4838">
        <ele>1180</ele>
        <time>2010-07-28T12:16:46Z</time>
      </trkpt>
      <trkpt lat="44.83987" lon="6.48418">
        <ele>1171</ele>
        <time>2010-07-28T12:16:51Z</time>
      </trkpt>
      <trkpt lat="44.83982" lon="6.48471">
        <ele>1175</ele>
        <time>2010-07-28T12:16:58Z</time>
      </trkpt>
      <trkpt lat="44.83981" lon="6.48479">
        <ele>1174</ele>
        <time>2010-07-28T12:16:59Z</time>
      </trkpt>
      <trkpt lat="44.83979" lon="6.48516">
        <ele>1168</ele>
        <time>2010-07-28T12:17:04Z</time>
      </trkpt>
      <trkpt lat="44.83982" lon="6.48539">
        <ele>1168</ele>
        <time>2010-07-28T12:17:08Z</time>
      </trkpt>
      <trkpt lat="44.83985" lon="6.48547">
        <ele>1167</ele>
        <time>2010-07-28T12:17:10Z</time>
      </trkpt>
      <trkpt lat="44.83989" lon="6.48556">
        <ele>1166</ele>
        <time>2010-07-28T12:17:16Z</time>
      </trkpt>
      <trkpt lat="44.83989" lon="6.48563">
        <ele>1166</ele>
        <time>2010-07-28T12:17:21Z</time>
      </trkpt>
      <trkpt lat="44.83986" lon="6.48564">
        <ele>1166</ele>
        <time>2010-07-28T12:17:25Z</time>
      </trkpt>
      <trkpt lat="44.83976" lon="6.48554">
        <ele>1168</ele>
        <time>2010-07-28T12:17:29Z</time>
      </trkpt>
      <trkpt lat="44.83966" lon="6.48552">
        <ele>1169</ele>
        <time>2010-07-28T12:17:33Z</time>
      </trkpt>
      <trkpt lat="44.83951" lon="6.48553">
        <ele>1170</ele>
        <time>2010-07-28T12:17:39Z</time>
      </trkpt>
      <trkpt lat="44.83944" lon="6.48566">
        <ele>1170</ele>
        <time>2010-07-28T12:17:44Z</time>
      </trkpt>
      <trkpt lat="44.83952" lon="6.48596">
        <ele>1163</ele>
        <time>2010-07-28T12:17:51Z</time>
      </trkpt>
      <trkpt lat="44.83959" lon="6.48634">
        <ele>1162</ele>
        <time>2010-07-28T12:17:56Z</time>
      </trkpt>
      <trkpt lat="44.83964" lon="6.48656">
        <ele>1161</ele>
        <time>2010-07-28T12:17:59Z</time>
      </trkpt>
      <trkpt lat="44.83972" lon="6.48717">
        <ele>1158</ele>
        <time>2010-07-28T12:18:08Z</time>
      </trkpt>
      <trkpt lat="44.83972" lon="6.48721">
        <ele>1158</ele>
        <time>2010-07-28T12:18:12Z</time>
      </trkpt>
      <trkpt lat="44.83971" lon="6.48723">
        <ele>1158</ele>
        <time>2010-07-28T12:18:14Z</time>
      </trkpt>
      <trkpt lat="44.83962" lon="6.48733">
        <ele>1158</ele>
        <time>2010-07-28T12:18:19Z</time>
      </trkpt>
      <trkpt lat="44.8395" lon="6.48749">
        <ele>1158</ele>
        <time>2010-07-28T12:18:24Z</time>
      </trkpt>
      <trkpt lat="44.83943" lon="6.48773">
        <ele>1157</ele>
        <time>2010-07-28T12:18:29Z</time>
      </trkpt>
      <trkpt lat="44.83932" lon="6.48796">
        <ele>1157</ele>
        <time>2010-07-28T12:18:34Z</time>
      </trkpt>
      <trkpt lat="44.83914" lon="6.48814">
        <ele>1156</ele>
        <time>2010-07-28T12:18:39Z</time>
      </trkpt>
      <trkpt lat="44.83898" lon="6.48827">
        <ele>1156</ele>
        <time>2010-07-28T12:18:43Z</time>
      </trkpt>
      <trkpt lat="44.83894" lon="6.48831">
        <ele>1156</ele>
        <time>2010-07-28T12:18:44Z</time>
      </trkpt>
      <trkpt lat="44.8388" lon="6.48854">
        <ele>1156</ele>
        <time>2010-07-28T12:18:49Z</time>
      </trkpt>
      <trkpt lat="44.83863" lon="6.48888">
        <ele>1156</ele>
        <time>2010-07-28T12:18:55Z</time>
      </trkpt>
      <trkpt lat="44.83853" lon="6.48905">
        <ele>1156</ele>
        <time>2010-07-28T12:18:58Z</time>
      </trkpt>
      <trkpt lat="44.83847" lon="6.48916">
        <ele>1156</ele>
        <time>2010-07-28T12:19:01Z</time>
      </trkpt>
      <trkpt lat="44.83846" lon="6.48919">
        <ele>1155</ele>
        <time>2010-07-28T12:19:04Z</time>
      </trkpt>
      <trkpt lat="44.83842" lon="6.48928">
        <ele>1155</ele>
        <time>2010-07-28T12:19:11Z</time>
      </trkpt>
      <trkpt lat="44.8383" lon="6.48942">
        <ele>1158</ele>
        <time>2010-07-28T12:19:16Z</time>
      </trkpt>
      <trkpt lat="44.8381" lon="6.4897">
        <ele>1159</ele>
        <time>2010-07-28T12:19:21Z</time>
      </trkpt>
      <trkpt lat="44.83802" lon="6.48983">
        <ele>1159</ele>
        <time>2010-07-28T12:19:25Z</time>
      </trkpt>
      <trkpt lat="44.83799" lon="6.48988">
        <ele>1159</ele>
        <time>2010-07-28T12:19:30Z</time>
      </trkpt>
      <trkpt lat="44.8379" lon="6.49005">
        <ele>1160</ele>
        <time>2010-07-28T12:19:35Z</time>
      </trkpt>
      <trkpt lat="44.83789" lon="6.49008">
        <ele>1160</ele>
        <time>2010-07-28T12:19:36Z</time>
      </trkpt>
      <trkpt lat="44.83786" lon="6.49027">
        <ele>1160</ele>
        <time>2010-07-28T12:19:41Z</time>
      </trkpt>
      <trkpt lat="44.83785" lon="6.49035">
        <ele>1159</ele>
        <time>2010-07-28T12:19:43Z</time>
      </trkpt>
      <trkpt lat="44.83784" lon="6.49072">
        <ele>1159</ele>
        <time>2010-07-28T12:19:51Z</time>
      </trkpt>
      <trkpt lat="44.83782" lon="6.49096">
        <ele>1158</ele>
        <time>2010-07-28T12:19:56Z</time>
      </trkpt>
      <trkpt lat="44.83777" lon="6.49132">
        <ele>1157</ele>
        <time>2010-07-28T12:20:02Z</time>
      </trkpt>
      <trkpt lat="44.83776" lon="6.49143">
        <ele>1158</ele>
        <time>2010-07-28T12:20:04Z</time>
      </trkpt>
      <trkpt lat="44.83773" lon="6.49174">
        <ele>1158</ele>
        <time>2010-07-28T12:20:10Z</time>
      </trkpt>
      <trkpt lat="44.83772" lon="6.49181">
        <ele>1157</ele>
        <time>2010-07-28T12:20:11Z</time>
      </trkpt>
      <trkpt lat="44.83783" lon="6.49215">
        <ele>1156</ele>
        <time>2010-07-28T12:20:15Z</time>
      </trkpt>
      <trkpt lat="44.83785" lon="6.49224">
        <ele>1156</ele>
        <time>2010-07-28T12:20:16Z</time>
      </trkpt>
      <trkpt lat="44.83788" lon="6.49241">
        <ele>1156</ele>
        <time>2010-07-28T12:20:18Z</time>
      </trkpt>
      <trkpt lat="44.83789" lon="6.49278">
        <ele>1156</ele>
        <time>2010-07-28T12:20:23Z</time>
      </trkpt>
      <trkpt lat="44.83785" lon="6.49304">
        <ele>1156</ele>
        <time>2010-07-28T12:20:27Z</time>
      </trkpt>
      <trkpt lat="44.83781" lon="6.49313">
        <ele>1157</ele>
        <time>2010-07-28T12:20:30Z</time>
      </trkpt>
      <trkpt lat="44.83776" lon="6.49335">
        <ele>1157</ele>
        <time>2010-07-28T12:20:36Z</time>
      </trkpt>
      <trkpt lat="44.83773" lon="6.49358">
        <ele>1157</ele>
        <time>2010-07-28T12:20:41Z</time>
      </trkpt>
      <trkpt lat="44.83776" lon="6.49379">
        <ele>1156</ele>
        <time>2010-07-28T12:20:46Z</time>
      </trkpt>
      <trkpt lat="44.83784" lon="6.49403">
        <ele>1156</ele>
        <time>2010-07-28T12:20:50Z</time>
      </trkpt>
      <trkpt lat="44.83792" lon="6.49415">
        <ele>1155</ele>
        <time>2010-07-28T12:20:52Z</time>
      </trkpt>
      <trkpt lat="44.83801" lon="6.4944">
        <ele>1153</ele>
        <time>2010-07-28T12:20:56Z</time>
      </trkpt>
      <trkpt lat="44.838" lon="6.49454">
        <ele>1153</ele>
        <time>2010-07-28T12:20:58Z</time>
      </trkpt>
      <trkpt lat="44.83799" lon="6.49485">
        <ele>1153</ele>
        <time>2010-07-28T12:21:02Z</time>
      </trkpt>
      <trkpt lat="44.83796" lon="6.49499">
        <ele>1154</ele>
        <time>2010-07-28T12:21:04Z</time>
      </trkpt>
      <trkpt lat="44.83791" lon="6.49511">
        <ele>1153</ele>
        <time>2010-07-28T12:21:06Z</time>
      </trkpt>
      <trkpt lat="44.83785" lon="6.49545">
        <ele>1153</ele>
        <time>2010-07-28T12:21:11Z</time>
      </trkpt>
      <trkpt lat="44.83783" lon="6.49557">
        <ele>1153</ele>
        <time>2010-07-28T12:21:13Z</time>
      </trkpt>
      <trkpt lat="44.83779" lon="6.49574">
        <ele>1153</ele>
        <time>2010-07-28T12:21:16Z</time>
      </trkpt>
      <trkpt lat="44.83774" lon="6.49591">
        <ele>1151</ele>
        <time>2010-07-28T12:21:19Z</time>
      </trkpt>
      <trkpt lat="44.83764" lon="6.49626">
        <ele>1150</ele>
        <time>2010-07-28T12:21:25Z</time>
      </trkpt>
      <trkpt lat="44.83753" lon="6.49641">
        <ele>1150</ele>
        <time>2010-07-28T12:21:28Z</time>
      </trkpt>
      <trkpt lat="44.83739" lon="6.49654">
        <ele>1155</ele>
        <time>2010-07-28T12:21:31Z</time>
      </trkpt>
      <trkpt lat="44.83724" lon="6.49687">
        <ele>1154</ele>
        <time>2010-07-28T12:21:36Z</time>
      </trkpt>
      <trkpt lat="44.83721" lon="6.49693">
        <ele>1154</ele>
        <time>2010-07-28T12:21:37Z</time>
      </trkpt>
      <trkpt lat="44.83717" lon="6.49712">
        <ele>1154</ele>
        <time>2010-07-28T12:21:40Z</time>
      </trkpt>
      <trkpt lat="44.83706" lon="6.49762">
        <ele>1151</ele>
        <time>2010-07-28T12:21:47Z</time>
      </trkpt>
      <trkpt lat="44.837" lon="6.49794">
        <ele>1151</ele>
        <time>2010-07-28T12:21:52Z</time>
      </trkpt>
      <trkpt lat="44.83691" lon="6.49852">
        <ele>1149</ele>
        <time>2010-07-28T12:22:01Z</time>
      </trkpt>
      <trkpt lat="44.83687" lon="6.4987">
        <ele>1148</ele>
        <time>2010-07-28T12:22:04Z</time>
      </trkpt>
      <trkpt lat="44.83681" lon="6.49886">
        <ele>1148</ele>
        <time>2010-07-28T12:22:07Z</time>
      </trkpt>
      <trkpt lat="44.83675" lon="6.49896">
        <ele>1147</ele>
        <time>2010-07-28T12:22:09Z</time>
      </trkpt>
      <trkpt lat="44.83669" lon="6.49904">
        <ele>1146</ele>
        <time>2010-07-28T12:22:11Z</time>
      </trkpt>
      <trkpt lat="44.83654" lon="6.4991">
        <ele>1150</ele>
        <time>2010-07-28T12:22:15Z</time>
      </trkpt>
      <trkpt lat="44.83642" lon="6.49905">
        <ele>1153</ele>
        <time>2010-07-28T12:22:18Z</time>
      </trkpt>
      <trkpt lat="44.83639" lon="6.49904">
        <ele>1153</ele>
        <time>2010-07-28T12:22:19Z</time>
      </trkpt>
      <trkpt lat="44.83632" lon="6.49901">
        <ele>1154</ele>
        <time>2010-07-28T12:22:22Z</time>
      </trkpt>
      <trkpt lat="44.83628" lon="6.49901">
        <ele>1155</ele>
        <time>2010-07-28T12:22:24Z</time>
      </trkpt>
      <trkpt lat="44.83613" lon="6.49897">
        <ele>1156</ele>
        <time>2010-07-28T12:22:29Z</time>
      </trkpt>
      <trkpt lat="44.83601" lon="6.49895">
        <ele>1157</ele>
        <time>2010-07-28T12:22:35Z</time>
      </trkpt>
      <trkpt lat="44.83597" lon="6.49891">
        <ele>1157</ele>
        <time>2010-07-28T12:22:37Z</time>
      </trkpt>
      <trkpt lat="44.83597" lon="6.49879">
        <ele>1158</ele>
        <time>2010-07-28T12:22:43Z</time>
      </trkpt>
      <trkpt lat="44.83602" lon="6.49865">
        <ele>1160</ele>
        <time>2010-07-28T12:22:49Z</time>
      </trkpt>
      <trkpt lat="44.83604" lon="6.4986">
        <ele>1160</ele>
        <time>2010-07-28T12:22:51Z</time>
      </trkpt>
      <trkpt lat="44.836" lon="6.49847">
        <ele>1163</ele>
        <time>2010-07-28T12:22:56Z</time>
      </trkpt>
      <trkpt lat="44.83595" lon="6.49849">
        <ele>1163</ele>
        <time>2010-07-28T12:23:00Z</time>
      </trkpt>
      <trkpt lat="44.83588" lon="6.49863">
        <ele>1161</ele>
        <time>2010-07-28T12:23:09Z</time>
      </trkpt>
      <trkpt lat="44.83585" lon="6.49877">
        <ele>1159</ele>
        <time>2010-07-28T12:23:16Z</time>
      </trkpt>
      <trkpt lat="44.83579" lon="6.49888">
        <ele>1166</ele>
        <time>2010-07-28T12:23:22Z</time>
      </trkpt>
      <trkpt lat="44.83569" lon="6.49898">
        <ele>1165</ele>
        <time>2010-07-28T12:23:30Z</time>
      </trkpt>
      <trkpt lat="44.83556" lon="6.49901">
        <ele>1167</ele>
        <time>2010-07-28T12:23:37Z</time>
      </trkpt>
      <trkpt lat="44.83535" lon="6.49907">
        <ele>1169</ele>
        <time>2010-07-28T12:23:46Z</time>
      </trkpt>
      <trkpt lat="44.83518" lon="6.49917">
        <ele>1162</ele>
        <time>2010-07-28T12:23:52Z</time>
      </trkpt>
      <trkpt lat="44.83499" lon="6.49928">
        <ele>1171</ele>
        <time>2010-07-28T12:23:59Z</time>
      </trkpt>
      <trkpt lat="44.83479" lon="6.4994">
        <ele>1172</ele>
        <time>2010-07-28T12:24:04Z</time>
      </trkpt>
      <trkpt lat="44.83474" lon="6.49951">
        <ele>1171</ele>
        <time>2010-07-28T12:24:06Z</time>
      </trkpt>
      <trkpt lat="44.83471" lon="6.49965">
        <ele>1170</ele>
        <time>2010-07-28T12:24:08Z</time>
      </trkpt>
      <trkpt lat="44.83468" lon="6.49978">
        <ele>1169</ele>
        <time>2010-07-28T12:24:10Z</time>
      </trkpt>
      <trkpt lat="44.83457" lon="6.49993">
        <ele>1169</ele>
        <time>2010-07-28T12:24:13Z</time>
      </trkpt>
      <trkpt lat="44.83441" lon="6.50014">
        <ele>1161</ele>
        <time>2010-07-28T12:24:16Z</time>
      </trkpt>
      <trkpt lat="44.83433" lon="6.50024">
        <ele>1161</ele>
        <time>2010-07-28T12:24:18Z</time>
      </trkpt>
      <trkpt lat="44.83414" lon="6.5005">
        <ele>1175</ele>
        <time>2010-07-28T12:24:22Z</time>
      </trkpt>
      <trkpt lat="44.83409" lon="6.50057">
        <ele>1173</ele>
        <time>2010-07-28T12:24:23Z</time>
      </trkpt>
      <trkpt lat="44.83387" lon="6.50091">
        <ele>1164</ele>
        <time>2010-07-28T12:24:27Z</time>
      </trkpt>
      <trkpt lat="44.83379" lon="6.5012">
        <ele>1165</ele>
        <time>2010-07-28T12:24:31Z</time>
      </trkpt>
      <trkpt lat="44.83378" lon="6.5014">
        <ele>1164</ele>
        <time>2010-07-28T12:24:33Z</time>
      </trkpt>
      <trkpt lat="44.83368" lon="6.50163">
        <ele>1166</ele>
        <time>2010-07-28T12:24:37Z</time>
      </trkpt>
      <trkpt lat="44.83362" lon="6.50189">
        <ele>1159</ele>
        <time>2010-07-28T12:24:41Z</time>
      </trkpt>
      <trkpt lat="44.83354" lon="6.50229">
        <ele>1159</ele>
        <time>2010-07-28T12:24:47Z</time>
      </trkpt>
      <trkpt lat="44.83352" lon="6.50244">
        <ele>1160</ele>
        <time>2010-07-28T12:24:49Z</time>
      </trkpt>
      <trkpt lat="44.83347" lon="6.5029">
        <ele>1152</ele>
        <time>2010-07-28T12:24:55Z</time>
      </trkpt>
      <trkpt lat="44.83346" lon="6.50301">
        <ele>1152</ele>
        <time>2010-07-28T12:24:57Z</time>
      </trkpt>
      <trkpt lat="44.83348" lon="6.50329">
        <ele>1153</ele>
        <time>2010-07-28T12:25:03Z</time>
      </trkpt>
      <trkpt lat="44.83349" lon="6.50334">
        <ele>1151</ele>
        <time>2010-07-28T12:25:04Z</time>
      </trkpt>
      <trkpt lat="44.83348" lon="6.5036">
        <ele>1148</ele>
        <time>2010-07-28T12:25:09Z</time>
      </trkpt>
      <trkpt lat="44.83342" lon="6.50391">
        <ele>1147</ele>
        <time>2010-07-28T12:25:13Z</time>
      </trkpt>
      <trkpt lat="44.8333" lon="6.50438">
        <ele>1158</ele>
        <time>2010-07-28T12:25:19Z</time>
      </trkpt>
      <trkpt lat="44.83328" lon="6.50445">
        <ele>1158</ele>
        <time>2010-07-28T12:25:20Z</time>
      </trkpt>
      <trkpt lat="44.83317" lon="6.50471">
        <ele>1158</ele>
        <time>2010-07-28T12:25:25Z</time>
      </trkpt>
      <trkpt lat="44.8331" lon="6.50495">
        <ele>1157</ele>
        <time>2010-07-28T12:25:29Z</time>
      </trkpt>
      <trkpt lat="44.83305" lon="6.50514">
        <ele>1152</ele>
        <time>2010-07-28T12:25:34Z</time>
      </trkpt>
      <trkpt lat="44.833" lon="6.50536">
        <ele>1153</ele>
        <time>2010-07-28T12:25:39Z</time>
      </trkpt>
      <trkpt lat="44.83295" lon="6.50567">
        <ele>1152</ele>
        <time>2010-07-28T12:25:45Z</time>
      </trkpt>
      <trkpt lat="44.83289" lon="6.50594">
        <ele>1146</ele>
        <time>2010-07-28T12:25:50Z</time>
      </trkpt>
      <trkpt lat="44.83287" lon="6.50614">
        <ele>1145</ele>
        <time>2010-07-28T12:25:56Z</time>
      </trkpt>
      <trkpt lat="44.83285" lon="6.50642">
        <ele>1144</ele>
        <time>2010-07-28T12:26:03Z</time>
      </trkpt>
      <trkpt lat="44.83277" lon="6.50663">
        <ele>1144</ele>
        <time>2010-07-28T12:26:08Z</time>
      </trkpt>
      <trkpt lat="44.83265" lon="6.50688">
        <ele>1138</ele>
        <time>2010-07-28T12:26:15Z</time>
      </trkpt>
      <trkpt lat="44.83262" lon="6.50694">
        <ele>1138</ele>
        <time>2010-07-28T12:26:19Z</time>
      </trkpt>
      <trkpt lat="44.83259" lon="6.50699">
        <ele>1137</ele>
        <time>2010-07-28T12:26:23Z</time>
      </trkpt>
      <trkpt lat="44.83252" lon="6.50708">
        <ele>1136</ele>
        <time>2010-07-28T12:26:29Z</time>
      </trkpt>
      <trkpt lat="44.83244" lon="6.50715">
        <ele>1141</ele>
        <time>2010-07-28T12:26:32Z</time>
      </trkpt>
      <trkpt lat="44.83223" lon="6.50732">
        <ele>1140</ele>
        <time>2010-07-28T12:26:37Z</time>
      </trkpt>
      <trkpt lat="44.83218" lon="6.50735">
        <ele>1140</ele>
        <time>2010-07-28T12:26:38Z</time>
      </trkpt>
      <trkpt lat="44.83193" lon="6.50754">
        <ele>1132</ele>
        <time>2010-07-28T12:26:44Z</time>
      </trkpt>
      <trkpt lat="44.83158" lon="6.50776">
        <ele>1133</ele>
        <time>2010-07-28T12:26:51Z</time>
      </trkpt>
      <trkpt lat="44.83152" lon="6.5078">
        <ele>1132</ele>
        <time>2010-07-28T12:26:52Z</time>
      </trkpt>
      <trkpt lat="44.83132" lon="6.50805">
        <ele>1130</ele>
        <time>2010-07-28T12:26:56Z</time>
      </trkpt>
      <trkpt lat="44.83102" lon="6.5084">
        <ele>1125</ele>
        <time>2010-07-28T12:27:01Z</time>
      </trkpt>
      <trkpt lat="44.83089" lon="6.50855">
        <ele>1125</ele>
        <time>2010-07-28T12:27:04Z</time>
      </trkpt>
      <trkpt lat="44.83084" lon="6.50861">
        <ele>1125</ele>
        <time>2010-07-28T12:27:10Z</time>
      </trkpt>
      <trkpt lat="44.83081" lon="6.50862">
        <ele>1126</ele>
        <time>2010-07-28T12:27:13Z</time>
      </trkpt>
      <trkpt lat="44.83065" lon="6.50868">
        <ele>1126</ele>
        <time>2010-07-28T12:27:19Z</time>
      </trkpt>
      <trkpt lat="44.83046" lon="6.50865">
        <ele>1127</ele>
        <time>2010-07-28T12:27:24Z</time>
      </trkpt>
      <trkpt lat="44.83023" lon="6.50857">
        <ele>1128</ele>
        <time>2010-07-28T12:27:30Z</time>
      </trkpt>
      <trkpt lat="44.83002" lon="6.50857">
        <ele>1129</ele>
        <time>2010-07-28T12:27:35Z</time>
      </trkpt>
      <trkpt lat="44.8299" lon="6.50859">
        <ele>1136</ele>
        <time>2010-07-28T12:27:37Z</time>
      </trkpt>
      <trkpt lat="44.8296" lon="6.50876">
        <ele>1138</ele>
        <time>2010-07-28T12:27:42Z</time>
      </trkpt>
      <trkpt lat="44.82956" lon="6.50879">
        <ele>1138</ele>
        <time>2010-07-28T12:27:43Z</time>
      </trkpt>
      <trkpt lat="44.82938" lon="6.50906">
        <ele>1138</ele>
        <time>2010-07-28T12:27:48Z</time>
      </trkpt>
      <trkpt lat="44.82935" lon="6.50911">
        <ele>1138</ele>
        <time>2010-07-28T12:27:49Z</time>
      </trkpt>
      <trkpt lat="44.82931" lon="6.50919">
        <ele>1133</ele>
        <time>2010-07-28T12:27:51Z</time>
      </trkpt>
      <trkpt lat="44.82929" lon="6.50937">
        <ele>1130</ele>
        <time>2010-07-28T12:27:55Z</time>
      </trkpt>
      <trkpt lat="44.82928" lon="6.50966">
        <ele>1127</ele>
        <time>2010-07-28T12:28:00Z</time>
      </trkpt>
      <trkpt lat="44.82924" lon="6.50996">
        <ele>1124</ele>
        <time>2010-07-28T12:28:06Z</time>
      </trkpt>
      <trkpt lat="44.82918" lon="6.5103">
        <ele>1121</ele>
        <time>2010-07-28T12:28:12Z</time>
      </trkpt>
      <trkpt lat="44.82908" lon="6.51064">
        <ele>1122</ele>
        <time>2010-07-28T12:28:19Z</time>
      </trkpt>
      <trkpt lat="44.82889" lon="6.51095">
        <ele>1118</ele>
        <time>2010-07-28T12:28:26Z</time>
      </trkpt>
      <trkpt lat="44.82874" lon="6.51129">
        <ele>1118</ele>
        <time>2010-07-28T12:28:33Z</time>
      </trkpt>
      <trkpt lat="44.82868" lon="6.51145">
        <ele>1118</ele>
        <time>2010-07-28T12:28:36Z</time>
      </trkpt>
      <trkpt lat="44.82851" lon="6.51176">
        <ele>1116</ele>
        <time>2010-07-28T12:28:43Z</time>
      </trkpt>
      <trkpt lat="44.82839" lon="6.51195">
        <ele>1115</ele>
        <time>2010-07-28T12:28:48Z</time>
      </trkpt>
      <trkpt lat="44.82826" lon="6.51209">
        <ele>1120</ele>
        <time>2010-07-28T12:28:52Z</time>
      </trkpt>
      <trkpt lat="44.82806" lon="6.51228">
        <ele>1120</ele>
        <time>2010-07-28T12:28:57Z</time>
      </trkpt>
      <trkpt lat="44.82781" lon="6.51259">
        <ele>1117</ele>
        <time>2010-07-28T12:29:05Z</time>
      </trkpt>
      <trkpt lat="44.82763" lon="6.51282">
        <ele>1117</ele>
        <time>2010-07-28T12:29:11Z</time>
      </trkpt>
      <trkpt lat="44.82739" lon="6.51299">
        <ele>1129</ele>
        <time>2010-07-28T12:29:17Z</time>
      </trkpt>
      <trkpt lat="44.82725" lon="6.51319">
        <ele>1128</ele>
        <time>2010-07-28T12:29:22Z</time>
      </trkpt>
      <trkpt lat="44.82707" lon="6.51355">
        <ele>1124</ele>
        <time>2010-07-28T12:29:30Z</time>
      </trkpt>
      <trkpt lat="44.82702" lon="6.51371">
        <ele>1124</ele>
        <time>2010-07-28T12:29:33Z</time>
      </trkpt>
      <trkpt lat="44.82692" lon="6.51408">
        <ele>1123</ele>
        <time>2010-07-28T12:29:40Z</time>
      </trkpt>
      <trkpt lat="44.82688" lon="6.51419">
        <ele>1120</ele>
        <time>2010-07-28T12:29:42Z</time>
      </trkpt>
      <trkpt lat="44.82684" lon="6.51431">
        <ele>1119</ele>
        <time>2010-07-28T12:29:44Z</time>
      </trkpt>
      <trkpt lat="44.82672" lon="6.5146">
        <ele>1117</ele>
        <time>2010-07-28T12:29:49Z</time>
      </trkpt>
      <trkpt lat="44.82666" lon="6.51471">
        <ele>1127</ele>
        <time>2010-07-28T12:29:51Z</time>
      </trkpt>
      <trkpt lat="44.82655" lon="6.51516">
        <ele>1119</ele>
        <time>2010-07-28T12:29:58Z</time>
      </trkpt>
      <trkpt lat="44.82643" lon="6.5156">
        <ele>1118</ele>
        <time>2010-07-28T12:30:05Z</time>
      </trkpt>
      <trkpt lat="44.82637" lon="6.5158">
        <ele>1117</ele>
        <time>2010-07-28T12:30:08Z</time>
      </trkpt>
      <trkpt lat="44.82627" lon="6.51618">
        <ele>1110</ele>
        <time>2010-07-28T12:30:14Z</time>
      </trkpt>
      <trkpt lat="44.82626" lon="6.51642">
        <ele>1108</ele>
        <time>2010-07-28T12:30:18Z</time>
      </trkpt>
      <trkpt lat="44.82624" lon="6.51656">
        <ele>1108</ele>
        <time>2010-07-28T12:30:21Z</time>
      </trkpt>
      <trkpt lat="44.82621" lon="6.51667">
        <ele>1104</ele>
        <time>2010-07-28T12:30:23Z</time>
      </trkpt>
      <trkpt lat="44.82608" lon="6.51704">
        <ele>1104</ele>
        <time>2010-07-28T12:30:30Z</time>
      </trkpt>
      <trkpt lat="44.82603" lon="6.5172">
        <ele>1104</ele>
        <time>2010-07-28T12:30:33Z</time>
      </trkpt>
      <trkpt lat="44.82599" lon="6.51749">
        <ele>1104</ele>
        <time>2010-07-28T12:30:38Z</time>
      </trkpt>
      <trkpt lat="44.82594" lon="6.51787">
        <ele>1104</ele>
        <time>2010-07-28T12:30:44Z</time>
      </trkpt>
      <trkpt lat="44.82581" lon="6.51829">
        <ele>1107</ele>
        <time>2010-07-28T12:30:50Z</time>
      </trkpt>
      <trkpt lat="44.82576" lon="6.51843">
        <ele>1106</ele>
        <time>2010-07-28T12:30:52Z</time>
      </trkpt>
      <trkpt lat="44.82557" lon="6.51895">
        <ele>1106</ele>
        <time>2010-07-28T12:31:00Z</time>
      </trkpt>
      <trkpt lat="44.8254" lon="6.51956">
        <ele>1100</ele>
        <time>2010-07-28T12:31:09Z</time>
      </trkpt>
      <trkpt lat="44.82526" lon="6.52007">
        <ele>1098</ele>
        <time>2010-07-28T12:31:17Z</time>
      </trkpt>
      <trkpt lat="44.82521" lon="6.5204">
        <ele>1098</ele>
        <time>2010-07-28T12:31:22Z</time>
      </trkpt>
      <trkpt lat="44.82516" lon="6.52066">
        <ele>1099</ele>
        <time>2010-07-28T12:31:26Z</time>
      </trkpt>
      <trkpt lat="44.82508" lon="6.52125">
        <ele>1098</ele>
        <time>2010-07-28T12:31:34Z</time>
      </trkpt>
      <trkpt lat="44.82507" lon="6.52148">
        <ele>1097</ele>
        <time>2010-07-28T12:31:37Z</time>
      </trkpt>
      <trkpt lat="44.825" lon="6.52176">
        <ele>1096</ele>
        <time>2010-07-28T12:31:41Z</time>
      </trkpt>
      <trkpt lat="44.82493" lon="6.52212">
        <ele>1099</ele>
        <time>2010-07-28T12:31:46Z</time>
      </trkpt>
      <trkpt lat="44.82493" lon="6.5222">
        <ele>1099</ele>
        <time>2010-07-28T12:31:47Z</time>
      </trkpt>
      <trkpt lat="44.82494" lon="6.52266">
        <ele>1098</ele>
        <time>2010-07-28T12:31:53Z</time>
      </trkpt>
      <trkpt lat="44.82487" lon="6.52308">
        <ele>1099</ele>
        <time>2010-07-28T12:31:59Z</time>
      </trkpt>
      <trkpt lat="44.8248" lon="6.52326">
        <ele>1099</ele>
        <time>2010-07-28T12:32:02Z</time>
      </trkpt>
      <trkpt lat="44.8247" lon="6.52353">
        <ele>1101</ele>
        <time>2010-07-28T12:32:07Z</time>
      </trkpt>
      <trkpt lat="44.82464" lon="6.52385">
        <ele>1102</ele>
        <time>2010-07-28T12:32:12Z</time>
      </trkpt>
      <trkpt lat="44.82463" lon="6.52435">
        <ele>1102</ele>
        <time>2010-07-28T12:32:19Z</time>
      </trkpt>
      <trkpt lat="44.82457" lon="6.52479">
        <ele>1102</ele>
        <time>2010-07-28T12:32:25Z</time>
      </trkpt>
      <trkpt lat="44.82458" lon="6.52535">
        <ele>1098</ele>
        <time>2010-07-28T12:32:33Z</time>
      </trkpt>
      <trkpt lat="44.82459" lon="6.52553">
        <ele>1098</ele>
        <time>2010-07-28T12:32:36Z</time>
      </trkpt>
      <trkpt lat="44.8246" lon="6.52575">
        <ele>1097</ele>
        <time>2010-07-28T12:32:42Z</time>
      </trkpt>
      <trkpt lat="44.82458" lon="6.52596">
        <ele>1095</ele>
        <time>2010-07-28T12:32:48Z</time>
      </trkpt>
      <trkpt lat="44.82454" lon="6.52601">
        <ele>1095</ele>
        <time>2010-07-28T12:32:51Z</time>
      </trkpt>
      <trkpt lat="44.82451" lon="6.52602">
        <ele>1095</ele>
        <time>2010-07-28T12:32:56Z</time>
      </trkpt>
      <trkpt lat="44.82451" lon="6.526">
        <ele>1096</ele>
        <time>2010-07-28T12:32:58Z</time>
      </trkpt>
      <trkpt lat="44.8245" lon="6.52587">
        <ele>1096</ele>
        <time>2010-07-28T12:33:04Z</time>
      </trkpt>
      <trkpt lat="44.8245" lon="6.52585">
        <ele>1096</ele>
        <time>2010-07-28T12:33:05Z</time>
      </trkpt>
      <trkpt lat="44.82452" lon="6.52586">
        <ele>1096</ele>
        <time>2010-07-28T12:33:08Z</time>
      </trkpt>
      <trkpt lat="44.82448" lon="6.52588">
        <ele>1096</ele>
        <time>2010-07-28T12:33:15Z</time>
      </trkpt>
      <trkpt lat="44.82444" lon="6.52587">
        <ele>1097</ele>
        <time>2010-07-28T12:33:25Z</time>
      </trkpt>
      <trkpt lat="44.82448" lon="6.52585">
        <ele>1096</ele>
        <time>2010-07-28T12:33:51Z</time>
      </trkpt>
      <trkpt lat="44.82447" lon="6.52583">
        <ele>1099</ele>
        <time>2010-07-28T12:34:09Z</time>
      </trkpt>
      <trkpt lat="44.82452" lon="6.52591">
        <ele>1096</ele>
        <time>2010-07-28T12:34:15Z</time>
      </trkpt>
      <trkpt lat="44.82456" lon="6.52595">
        <ele>1095</ele>
        <time>2010-07-28T12:34:21Z</time>
      </trkpt>
      <trkpt lat="44.82458" lon="6.52596">
        <ele>1095</ele>
        <time>2010-07-28T12:34:27Z</time>
      </trkpt>
    </trkseg>
  </trk>
</gpx>